[[{"header":{"parameterUnit":"m.s-1","parameterCategory":1,"la1":30.6,"la2":28.766,"lo1":-90.7593,"lo2":-88.6598,"dy":0.0162,"dx":0.0183,"nx":116,"ny":114,"refTime":"2023-06-14T12:00:00:Z","depth":0,"parameterNumber":2,"parameterNumberName":"U-component_of_WINDS"},"data":[0.0,0.0,0.0,0.0,0.0,0.0,0.0,0.0,0.0,0.0,0.0,0.0,0.0,0.0,0.0,0.0,0.0,0.0,0.0,0.0,0.0,0.0,0.0,0.0,0.0,0.0,0.0,0.0,0.0,0.0,0.0,0.0,0.0,0.0,0.0,0.0,0.0,0.0,0.0,0.0,0.0,0.0,0.0,0.0,0.0,0.0,0.0,0.0,0.0,0.0,0.0,0.0,0.0,0.0,0.0,0.0,0.0,0.0,0.0,0.0,0.0,0.0,0.0,0.0,0.0,0.0,0.0,0.0,0.0,0.0,0.0,0.0,0.0,0.0,0.0,0.0,0.0,0.0,0.0,0.0,0.0,0.0,0.0,0.0,0.0,0.0,0.0,0.0,0.0,0.0,0.0,0.0,0.0,0.0,0.0,0.0,0.0,0.0,0.0,0.0,0.0,0.0,0.0,0.0,0.0,0.0,0.0,0.0,0.0,0.0,0.0,0.0,0.0,0.0,0.0,0.0,0.0,0.0,0.0,0.0,0.0,0.0,0.0,0.0,0.0,0.0,0.0,0.0,0.0,0.0,0.0,0.0,0.0,0.0,0.0,0.0,0.0,0.0,0.0,0.0,0.0,0.0,0.0,0.0,0.0,0.0,0.0,0.0,0.0,0.0,0.0,0.0,0.0,0.0,0.0,0.0,0.0,0.0,0.0,0.0,0.0,0.0,0.0,0.0,0.0,0.0,0.0,0.0,0.0,0.0,0.0,0.0,0.0,0.0,0.0,0.0,0.0,0.0,0.0,0.0,0.0,0.0,0.0,0.0,0.0,0.0,0.0,0.0,0.0,0.0,0.0,0.0,0.0,0.0,0.0,0.0,0.0,0.0,0.0,0.0,0.0,0.0,0.0,0.0,0.0,0.0,0.0,0.0,0.0,0.0,0.0,0.0,0.0,0.0,0.0,0.0,0.0,0.0,0.0,0.0,0.0,0.0,0.0,0.0,0.0,0.0,0.0,0.0,0.0,0.0,0.0,0.0,0.0,0.0,0.0,0.0,0.0,0.0,0.0,0.0,0.0,0.0,0.0,0.0,0.0,0.0,0.0,0.0,0.0,0.0,0.0,0.0,0.0,0.0,0.0,0.0,0.0,0.0,0.0,0.0,0.0,0.0,0.0,0.0,0.0,0.0,0.0,0.0,0.0,0.0,0.0,0.0,0.0,0.0,0.0,0.0,0.0,0.0,0.0,0.0,0.0,0.0,0.0,0.0,0.0,0.0,0.0,0.0,0.0,0.0,0.0,0.0,0.0,0.0,0.0,0.0,0.0,0.0,0.0,0.0,0.0,0.0,0.0,0.0,0.0,0.0,0.0,0.0,0.0,0.0,0.0,0.0,0.0,0.0,0.0,0.0,0.0,0.0,0.0,0.0,0.0,0.0,0.0,0.0,0.0,0.0,0.0,0.0,0.0,0.0,0.0,0.0,0.0,0.0,0.0,0.0,0.0,0.0,0.0,0.0,0.0,0.0,0.0,0.0,0.0,0.0,0.0,0.0,0.0,0.0,0.0,0.0,0.0,0.0,0.0,0.0,0.0,0.0,0.0,0.0,0.0,0.0,0.0,0.0,0.0,0.0,0.0,0.0,0.0,0.0,0.0,0.0,0.0,0.0,0.0,0.0,0.0,0.0,0.0,0.0,0.0,0.0,0.0,0.0,0.0,0.0,0.0,0.0,0.0,0.0,0.0,0.0,0.0,0.0,0.0,0.0,0.0,0.0,0.0,0.0,0.0,0.0,0.0,0.0,0.0,0.0,0.0,0.0,0.0,0.0,0.0,0.0,0.0,0.0,0.0,0.0,0.0,0.0,0.0,0.0,0.0,0.0,0.0,0.0,0.0,0.0,0.0,0.0,0.0,0.0,0.0,0.0,0.0,0.0,0.0,0.0,0.0,0.0,0.0,0.0,0.0,0.0,0.0,0.0,0.0,0.0,0.0,0.0,0.0,0.0,0.0,0.0,0.0,0.0,0.0,0.0,0.0,0.0,0.0,0.0,0.0,0.0,0.0,0.0,0.0,0.0,0.0,0.0,0.0,0.0,0.0,0.0,0.0,0.0,0.0,0.0,0.0,0.0,0.0,0.0,0.0,0.0,0.0,0.0,0.0,0.0,0.0,0.0,0.0,0.0,0.0,0.0,0.0,0.0,0.0,0.0,0.0,0.0,0.0,0.0,0.0,0.0,0.0,0.0,0.0,0.0,0.0,0.0,0.0,0.0,0.0,0.0,0.0,0.0,0.0,0.0,0.0,0.0,0.0,0.0,0.0,0.0,0.0,0.0,0.0,0.0,0.0,0.0,0.0,0.0,0.0,0.0,0.0,0.0,0.0,0.0,0.0,0.0,0.0,0.0,0.0,0.0,0.0,0.0,0.0,0.0,0.0,0.0,0.0,0.0,0.0,0.0,0.0,0.0,0.0,0.0,0.0,0.0,0.0,0.0,0.0,0.0,0.0,0.0,0.0,0.0,0.0,0.0,0.0,0.0,0.0,0.0,0.0,0.0,0.0,0.0,0.0,0.0,0.0,0.0,0.0,0.0,0.0,0.0,0.0,0.0,0.0,0.0,0.0,0.0,0.0,0.0,0.0,0.0,0.0,0.0,0.0,0.0,0.0,0.0,0.0,0.0,0.0,0.0,0.0,0.0,0.0,0.0,0.0,0.0,0.0,0.0,0.0,0.0,0.0,0.0,0.0,0.0,0.0,0.0,0.0,0.0,0.0,0.0,0.0,0.0,0.0,0.0,0.0,0.0,0.0,0.0,0.0,0.0,0.0,0.0,0.0,0.0,0.0,0.0,0.0,0.0,0.0,0.0,0.0,0.0,0.0,0.0,0.0,0.0,0.0,0.0,0.0,0.0,0.0,0.0,0.0,0.0,0.0,0.0,0.0,0.0,0.0,0.0,0.0,0.0,0.0,0.0,0.0,0.0,0.0,0.0,0.0,0.0,0.0,0.0,0.0,0.0,0.0,0.0,0.0,0.0,0.0,0.0,0.0,0.0,0.0,0.0,0.0,0.0,0.0,0.0,0.0,0.0,0.0,0.0,0.0,0.0,0.0,0.0,0.0,0.0,0.0,0.0,0.0,0.0,0.0,0.0,0.0,0.0,0.0,0.0,0.0,0.0,0.0,0.0,0.0,0.0,0.0,0.0,0.0,0.0,0.0,0.0,0.0,0.0,0.0,0.0,0.0,0.0,0.0,0.0,0.0,0.0,0.0,0.0,0.0,0.0,0.0,0.0,0.0,0.0,0.0,0.0,0.0,0.0,0.0,0.0,0.0,0.0,0.0,0.0,0.0,0.0,0.0,0.0,0.0,0.0,0.0,0.0,0.0,0.0,0.0,0.0,0.0,0.0,0.0,0.0,0.0,0.0,0.0,0.0,0.0,0.0,0.0,0.0,0.0,0.0,0.0,0.0,0.0,0.0,0.0,0.0,0.0,0.0,0.0,0.0,0.0,0.0,0.0,0.0,0.0,0.0,0.0,0.0,0.0,0.0,0.0,0.0,0.0,0.0,0.0,0.0,0.0,0.0,0.0,0.0,0.0,0.0,0.0,0.0,0.0,0.0,0.0,0.0,0.0,0.0,0.0,0.0,0.0,0.0,0.0,0.0,0.0,0.0,0.0,0.0,0.0,0.0,0.0,0.0,0.0,0.0,0.0,0.0,0.0,0.0,0.0,0.0,0.0,0.0,0.0,0.0,0.0,0.0,0.0,0.0,0.0,0.0,0.0,0.0,0.0,0.0,0.0,0.0,0.0,0.0,0.0,0.0,0.0,0.0,0.0,0.0,0.0,0.0,0.0,0.0,0.0,0.0,0.0,0.0,0.0,0.0,0.0,0.0,0.0,0.0,0.0,0.0,0.0,0.0,0.0,0.0,0.0,0.0,0.0,0.0,0.0,0.0,0.0,0.0,0.0,0.0,0.0,0.0,0.0,0.0,0.0,0.0,0.0,0.0,0.0,0.0,0.0,0.0,0.0,0.0,0.0,0.0,0.0,0.0,0.0,0.0,0.0,0.0,0.0,0.0,0.0,0.0,0.0,0.0,0.0,0.0,0.0,0.0,0.0,0.0,0.0,0.0,0.0,0.0,0.0,0.0,0.0,0.0,0.0,0.0,0.0,0.0,0.0,0.0,0.0,0.0,0.0,0.0,0.0,0.0,0.0,0.0,0.0,0.0,0.0,0.0,0.0,0.0,0.0,0.0,0.0,0.0,0.0,0.0,0.0,0.0,0.0,0.0,0.0,0.0,0.0,0.0,0.0,0.0,0.0,0.0,0.0,0.0,0.0,0.0,0.0,0.0,0.0,0.0,0.0,0.0,0.0,0.0,0.0,0.0,0.0,0.0,0.0,0.0,0.0,0.0,0.0,0.0,0.0,0.0,0.0,0.0,0.0,0.0,0.0,0.0,0.0,0.0,0.0,0.0,0.0,0.0,0.0,0.0,0.0,0.0,0.0,0.0,0.0,0.0,0.0,0.0,0.0,0.0,0.0,0.0,0.0,0.0,0.0,0.0,0.0,0.0,0.0,0.0,0.0,0.0,0.0,0.0,0.0,0.0,0.0,0.0,0.0,0.0,0.0,0.0,0.0,0.0,0.0,0.0,0.0,0.0,0.0,0.0,0.0,0.0,0.0,0.0,0.0,0.0,0.0,0.0,0.0,0.0,0.0,0.0,0.0,0.0,0.0,0.0,0.0,0.0,0.0,0.0,0.0,0.0,0.0,0.0,0.0,0.0,0.0,0.0,0.0,0.0,0.0,0.0,0.0,0.0,0.0,0.0,0.0,0.0,0.0,0.0,0.0,0.0,0.0,0.0,0.0,0.0,0.0,0.0,0.0,0.0,0.0,0.0,0.0,0.0,0.0,0.0,0.0,0.0,0.0,0.0,0.0,0.0,0.0,0.0,0.0,0.0,0.0,0.0,0.0,0.0,0.0,0.0,0.0,0.0,0.0,0.0,0.0,0.0,0.0,0.0,0.0,0.0,0.0,0.0,0.0,0.0,0.0,0.0,0.0,0.0,0.0,0.0,0.0,0.0,0.0,0.0,0.0,0.0,0.0,0.0,0.0,0.0,0.0,0.0,0.0,0.0,0.0,0.0,0.0,0.0,0.0,0.0,0.0,0.0,0.0,0.0,0.0,0.0,0.0,0.0,0.0,0.0,0.0,0.0,0.0,0.0,0.0,0.0,0.0,0.0,0.0,0.0,0.0,0.0,0.0,0.0,0.0,0.0,0.0,0.0,0.0,0.0,0.0,0.0,0.0,0.0,0.0,0.0,0.0,0.0,0.0,0.0,0.0,0.0,0.0,0.0,0.0,0.0,0.0,0.0,0.0,0.0,0.0,0.0,0.0,0.0,0.0,0.0,0.0,0.0,0.0,0.0,0.0,0.0,0.0,0.0,0.0,0.0,0.0,0.0,0.0,0.0,0.0,0.0,0.0,0.0,0.0,0.0,0.0,0.0,0.0,0.0,0.0,0.0,0.0,0.0,0.0,0.0,0.0,0.0,0.0,0.0,0.0,0.0,0.0,0.0,0.0,0.0,0.0,0.0,0.0,0.0,0.0,0.0,0.0,0.0,0.0,0.0,0.0,0.0,0.0,0.0,0.0,0.0,0.0,0.0,0.0,0.0,0.0,0.0,0.0,0.0,0.0,0.0,0.0,0.0,0.0,0.0,0.0,0.0,0.0,0.0,0.0,0.0,0.0,0.0,0.0,0.0,0.0,0.0,0.0,0.0,0.0,0.0,0.0,0.0,0.0,0.0,0.0,0.0,0.0,0.0,0.0,0.0,0.0,0.0,0.0,0.0,0.0,0.0,0.0,0.0,0.0,0.0,0.0,0.0,0.0,0.0,0.0,0.0,0.0,0.0,0.0,0.0,0.0,0.0,0.0,0.0,0.0,0.0,0.0,0.0,0.0,0.0,0.0,0.0,0.0,0.0,0.0,0.0,0.0,0.0,0.0,0.0,0.0,0.0,0.0,0.0,0.0,0.0,0.0,0.0,0.0,0.0,0.0,0.0,0.0,0.0,0.0,0.0,0.0,0.0,0.0,0.0,0.0,0.0,0.0,0.0,-3.6768,0.0,0.0,0.0,0.0,0.0,0.0,0.0,0.0,0.0,0.0,0.0,0.0,0.0,0.0,0.0,0.0,0.0,0.0,0.0,0.0,0.0,0.0,0.0,0.0,0.0,0.0,0.0,0.0,0.0,0.0,0.0,0.0,0.0,0.0,0.0,0.0,0.0,0.0,0.0,0.0,0.0,0.0,0.0,0.0,0.0,0.0,0.0,0.0,0.0,0.0,0.0,0.0,0.0,0.0,0.0,0.0,0.0,0.0,0.0,0.0,0.0,0.0,0.0,0.0,0.0,0.0,0.0,0.0,0.0,0.0,0.0,0.0,0.0,0.0,0.0,0.0,0.0,0.0,0.0,0.0,0.0,0.0,0.0,0.0,0.0,0.0,0.0,0.0,0.0,0.0,0.0,0.0,0.0,0.0,0.0,0.0,0.0,0.0,0.0,0.0,0.0,0.0,0.0,0.0,0.0,0.0,0.0,0.0,0.0,0.0,0.0,0.0,0.0,0.0,0.0,0.0,-3.7825,0.0,0.0,0.0,0.0,0.0,0.0,0.0,0.0,0.0,0.0,0.0,0.0,0.0,0.0,0.0,0.0,0.0,0.0,0.0,0.0,0.0,0.0,0.0,0.0,0.0,0.0,0.0,0.0,0.0,0.0,0.0,0.0,0.0,0.0,0.0,0.0,0.0,0.0,0.0,0.0,0.0,0.0,0.0,0.0,0.0,0.0,0.0,0.0,0.0,0.0,0.0,0.0,0.0,0.0,0.0,0.0,0.0,0.0,0.0,0.0,0.0,0.0,0.0,0.0,0.0,0.0,0.0,0.0,0.0,0.0,0.0,0.0,0.0,0.0,0.0,0.0,0.0,0.0,0.0,0.0,0.0,0.0,0.0,0.0,0.0,0.0,0.0,0.0,0.0,0.0,0.0,0.0,0.0,0.0,0.0,0.0,0.0,0.0,0.0,0.0,0.0,0.0,0.0,0.0,0.0,0.0,0.0,0.0,-4.1992,-4.1971,-4.2017,-4.1813,-4.1609,-4.1344,-4.1086,-4.0655,-4.0104,0.0,0.0,0.0,0.0,0.0,0.0,0.0,0.0,0.0,0.0,0.0,0.0,0.0,0.0,0.0,0.0,0.0,0.0,0.0,0.0,0.0,0.0,0.0,0.0,0.0,0.0,0.0,0.0,0.0,0.0,0.0,0.0,0.0,0.0,0.0,0.0,0.0,0.0,0.0,-2.7259,-2.7427,-2.6995,-2.6142,-2.6174,0.0,0.0,0.0,0.0,0.0,0.0,0.0,0.0,0.0,0.0,0.0,0.0,0.0,0.0,0.0,0.0,0.0,0.0,0.0,0.0,0.0,0.0,0.0,0.0,0.0,0.0,0.0,0.0,0.0,0.0,0.0,0.0,0.0,0.0,0.0,0.0,0.0,0.0,0.0,0.0,0.0,0.0,0.0,-3.0512,-3.157,0.0,0.0,0.0,0.0,0.0,0.0,0.0,0.0,0.0,0.0,0.0,0.0,0.0,-4.1999,-4.202,-4.2059,-4.2427,-4.3112,-4.2922,-4.3137,-4.3689,-4.3553,-4.3373,-4.315,-4.294,0.0,-4.0162,-3.9912,0.0,0.0,0.0,0.0,0.0,0.0,0.0,0.0,0.0,0.0,0.0,0.0,0.0,0.0,0.0,0.0,0.0,0.0,0.0,0.0,0.0,0.0,0.0,0.0,0.0,0.0,0.0,0.0,0.0,0.0,0.0,0.0,0.0,0.0,0.0,0.0,-2.7527,-2.7896,-2.8063,-2.8265,-2.7739,-2.6604,-2.6509,-2.5749,-2.4523,-2.4151,0.0,0.0,0.0,0.0,0.0,0.0,0.0,0.0,0.0,0.0,0.0,0.0,0.0,0.0,0.0,0.0,0.0,0.0,0.0,0.0,0.0,0.0,0.0,0.0,0.0,0.0,0.0,0.0,0.0,0.0,0.0,0.0,0.0,0.0,0.0,0.0,0.0,0.0,0.0,-3.0972,-3.2387,-3.341,-3.4329,-3.5272,0.0,0.0,0.0,0.0,0.0,0.0,0.0,0.0,0.0,-4.2443,-4.2902,-4.3102,-4.303,-4.3876,-4.4425,-4.4715,-4.4953,-4.5229,-4.5506,-4.5268,-4.5084,-4.4945,-4.4675,-4.3938,-4.2866,-4.1729,-4.1129,-4.0874,0.0,0.0,0.0,0.0,0.0,-3.7484,0.0,0.0,0.0,0.0,0.0,0.0,0.0,0.0,0.0,0.0,0.0,0.0,0.0,0.0,0.0,0.0,0.0,0.0,0.0,0.0,0.0,0.0,0.0,0.0,0.0,0.0,0.0,0.0,-2.8116,-2.8354,-2.8255,-2.8553,-2.7879,-2.6455,-2.628,-2.5506,-2.4354,-2.3982,-2.356,0.0,0.0,0.0,0.0,0.0,0.0,0.0,0.0,0.0,0.0,0.0,0.0,0.0,0.0,0.0,0.0,0.0,0.0,0.0,0.0,0.0,0.0,0.0,0.0,0.0,0.0,0.0,0.0,0.0,0.0,0.0,0.0,0.0,0.0,0.0,0.0,0.0,0.0,-3.266,-3.4078,-3.5067,-3.5969,-3.6891,0.0,0.0,0.0,0.0,0.0,0.0,-4.2067,-4.2666,-4.3169,-4.3577,-4.4178,-4.4547,-4.4673,-4.5792,-4.6291,-4.6158,-4.6581,-4.676,-4.6698,-4.6374,-4.6187,-4.61,-4.5754,-4.543,-4.5041,-4.3589,-4.2852,-4.2546,-4.2161,-4.1435,-4.0584,-4.035,-3.9578,-3.864,0.0,0.0,0.0,0.0,0.0,0.0,0.0,0.0,0.0,0.0,0.0,0.0,0.0,0.0,0.0,0.0,0.0,0.0,0.0,0.0,0.0,0.0,0.0,0.0,0.0,0.0,0.0,-2.7037,-2.771,-2.7713,-2.7089,-2.7349,-2.671,-2.5264,-2.514,-2.4678,-2.4003,-2.3538,-2.3105,-2.2709,0.0,0.0,0.0,0.0,0.0,0.0,0.0,0.0,0.0,0.0,0.0,0.0,0.0,0.0,0.0,0.0,0.0,0.0,0.0,0.0,0.0,0.0,0.0,0.0,0.0,0.0,0.0,0.0,0.0,0.0,0.0,0.0,0.0,0.0,0.0,0.0,0.0,0.0,0.0,-3.6111,-3.7048,0.0,0.0,0.0,0.0,-4.148,-4.2313,-4.3129,-4.401,-4.403,-4.4726,-4.626,-4.6339,-4.6667,-4.7308,-4.7308,-4.7261,-4.7127,-4.7042,-4.6866,-4.6698,-4.6422,-4.6272,-4.6169,-4.5773,-4.5488,-4.5251,-4.4851,-4.4474,-4.4155,-4.3734,-4.3374,-4.3071,-4.2689,-4.2232,-4.1759,0.0,0.0,0.0,0.0,0.0,0.0,0.0,0.0,0.0,0.0,0.0,0.0,0.0,0.0,0.0,0.0,0.0,0.0,0.0,0.0,0.0,0.0,0.0,0.0,0.0,0.0,-2.6338,-2.6537,-2.6659,-2.6634,-2.6484,-2.6281,-2.5665,-2.4739,-2.4612,-2.4022,-2.3157,-2.3068,-2.2836,-2.2472,-2.2006,-2.155,0.0,0.0,0.0,0.0,0.0,0.0,0.0,0.0,0.0,0.0,0.0,0.0,0.0,0.0,0.0,0.0,0.0,0.0,0.0,0.0,0.0,0.0,0.0,0.0,0.0,0.0,0.0,0.0,0.0,0.0,0.0,0.0,0.0,0.0,0.0,0.0,0.0,-3.7936,-3.8441,0.0,-4.0696,-4.1099,-4.1643,-4.2587,-4.3365,-4.3946,-4.4245,-4.5227,-4.6012,-4.6553,-4.7073,-4.7415,-4.7559,-4.8011,-4.8145,-4.7975,-4.8363,-4.8474,-4.8301,-4.8036,-4.7845,-4.772,-4.7329,-4.7034,-4.6827,-4.6536,-4.5574,-4.4261,-4.395,-4.3609,-4.3252,-4.286,-4.2462,-4.2028,0.0,0.0,0.0,0.0,0.0,0.0,0.0,0.0,0.0,0.0,0.0,0.0,0.0,0.0,0.0,0.0,0.0,0.0,0.0,0.0,0.0,0.0,0.0,0.0,0.0,-2.5356,-2.557,-2.5717,-2.552,-2.5353,-2.5209,-2.4954,-2.4481,-2.3818,-2.3643,-2.3181,-2.2457,-2.2365,-2.2249,-2.2091,-2.164,-2.1313,-2.1077,0.0,0.0,0.0,0.0,0.0,0.0,0.0,0.0,0.0,0.0,0.0,0.0,0.0,0.0,0.0,0.0,0.0,0.0,0.0,0.0,0.0,0.0,0.0,0.0,0.0,0.0,0.0,0.0,0.0,0.0,0.0,0.0,0.0,0.0,0.0,-3.7523,-3.9027,-3.9499,-4.0275,-4.1726,-4.2116,-4.2644,-4.3562,-4.4349,-4.4897,-4.5169,-4.6166,-4.6973,-4.7458,-4.7979,-4.83,-4.8433,-4.8935,-4.9056,-4.8843,-4.9288,-4.9402,-4.9179,-4.8962,-4.875,-4.8569,-4.8172,-4.7888,-4.7678,-4.7407,-4.6422,-4.5062,-4.4771,-4.4467,-4.4098,-4.3657,-4.3236,-4.2823,0.0,0.0,0.0,0.0,0.0,0.0,0.0,0.0,0.0,0.0,0.0,0.0,0.0,0.0,0.0,0.0,0.0,0.0,0.0,0.0,0.0,0.0,0.0,0.0,-2.4751,-2.4436,-2.4366,-2.4541,-2.4331,-2.3911,-2.3267,-2.3393,-2.3098,-2.2466,-2.2263,-2.2077,-2.1926,-2.1385,-2.1326,-2.153,-2.1277,-2.0945,-2.0585,0.0,0.0,0.0,0.0,0.0,0.0,0.0,0.0,0.0,0.0,0.0,0.0,0.0,0.0,0.0,0.0,0.0,0.0,0.0,0.0,0.0,0.0,0.0,0.0,0.0,0.0,0.0,0.0,0.0,0.0,0.0,0.0,0.0,-3.6544,-3.7348,-3.8315,-3.9315,-4.0204,-4.1087,-4.1951,-4.2768,-4.3598,-4.4474,-4.5248,-4.605,-4.6868,-4.6873,-4.7569,-4.9158,-4.9163,-4.9442,-5.0089,-5.0095,-4.9965,-4.9692,-4.9692,-4.9529,-4.9179,-4.8995,-4.8785,-4.8569,-4.8172,-4.7888,-4.7678,-4.7407,-4.7012,-4.6566,-4.6308,-4.603,-4.5744,-4.5194,-4.4769,-4.426,0.0,0.0,0.0,0.0,0.0,0.0,0.0,0.0,0.0,0.0,0.0,0.0,0.0,0.0,0.0,0.0,0.0,0.0,0.0,0.0,0.0,0.0,0.0,0.0,-2.3852,-2.3957,-2.3852,-2.3498,-2.3132,-2.2859,-2.2716,-2.2225,-2.1873,-2.1698,-2.1527,-2.1358,-2.1115,-2.0858,-2.0698,-2.0598,-2.0598,-2.0548,-2.0447,0.0,0.0,0.0,0.0,0.0,0.0,0.0,0.0,0.0,0.0,0.0,0.0,0.0,0.0,0.0,0.0,0.0,0.0,0.0,0.0,0.0,0.0,0.0,0.0,0.0,0.0,0.0,0.0,0.0,0.0,0.0,-3.5359,-3.6853,-3.7421,-3.8363,-3.9322,-4.0237,-4.115,-4.2057,-4.2935,-4.3795,-4.4634,-4.5447,-4.5657,-4.6143,-4.7005,-4.7521,-4.8259,-4.9239,-4.982,-5.0119,-5.0108,-5.0095,-4.9965,-4.9692,-4.9648,-4.9483,-4.9179,-4.8945,-4.8715,-4.8513,-4.8151,-4.7829,-4.7533,-4.7334,-4.698,-4.6566,-4.6308,-4.603,-4.5744,-4.5194,-4.4676,-4.4076,0.0,0.0,0.0,0.0,0.0,0.0,0.0,0.0,0.0,0.0,0.0,0.0,0.0,0.0,0.0,0.0,0.0,0.0,0.0,0.0,0.0,0.0,0.0,-2.3342,-2.2869,-2.284,-2.2657,-2.2339,-2.182,-2.1589,-2.1613,-2.113,-2.0896,-2.0896,-2.0696,-2.0522,-2.0346,-2.0131,-1.9927,-1.9785,-1.9811,-1.9914,-2.0042,-1.9926,-1.9914,-2.0004,-1.9824,-1.9932,-2.0072,-1.9791,0.0,0.0,0.0,0.0,0.0,0.0,0.0,0.0,0.0,0.0,0.0,0.0,0.0,0.0,0.0,0.0,0.0,0.0,0.0,0.0,0.0,0.0,0.0,0.0,-3.6266,-3.7588,-3.8437,-3.9078,-3.9785,-4.067,-4.1582,-4.2482,-4.3366,-4.4209,-4.5045,-4.5886,-4.5874,-4.6375,-4.7588,-4.8023,-4.8729,-4.9806,-5.0263,-5.0371,-5.0108,-5.0095,-4.9965,-4.9692,-4.9619,-4.9452,-4.9179,-4.8927,-4.8679,0.0,-4.8149,-4.7809,-4.749,-4.729,-4.6957,0.0,0.0,0.0,0.0,0.0,-4.4452,-4.401,0.0,0.0,0.0,0.0,0.0,0.0,0.0,0.0,0.0,0.0,0.0,0.0,0.0,0.0,0.0,0.0,0.0,0.0,0.0,0.0,0.0,-2.2649,-2.2664,-2.2396,-2.1887,-2.1454,-2.1197,-2.1133,-2.0579,-2.0321,-2.0321,-2.0144,-2.008,-2.0054,-1.9811,-1.9682,-1.9643,-1.9265,-1.9107,-1.9081,-1.896,-1.9146,-1.9512,-1.9408,-1.9539,-1.9747,-1.9926,-2.0233,-2.0519,-2.0337,0.0,0.0,0.0,0.0,0.0,0.0,0.0,0.0,0.0,0.0,0.0,0.0,0.0,0.0,0.0,0.0,0.0,0.0,0.0,0.0,0.0,0.0,0.0,0.0,-3.742,-3.844,-3.9371,-3.9596,-3.9973,-4.0805,-4.1766,-4.265,-4.3413,-4.4325,-4.5163,-4.5933,-4.5938,-4.6641,-4.8295,0.0,0.0,0.0,0.0,-5.0371,-5.0108,-5.0095,-4.9952,-4.9692,-4.9604,-4.9437,-4.9162,-4.8891,-4.8661,-4.8456,-4.8149,-4.7809,-4.7468,-4.7267,-4.6911,-4.6471,-4.6112,-4.5786,-4.5424,-4.4586,-4.4224,0.0,0.0,0.0,0.0,0.0,0.0,0.0,0.0,0.0,0.0,0.0,0.0,0.0,0.0,0.0,0.0,0.0,0.0,0.0,0.0,0.0,-2.1684,-2.1741,-2.1769,-2.1559,-2.1124,-2.0929,-2.0571,-2.0104,-1.9861,-1.9759,-1.9734,-1.95,-1.9344,-1.9225,-1.9052,-1.8946,-1.8827,-1.8575,-1.8456,-1.8467,-1.8317,-1.8614,-1.9119,-1.9212,-1.9265,-1.937,-1.9695,-1.9952,-2.0156,-2.0566,-2.0786,-2.0957,-2.1325,0.0,0.0,0.0,0.0,0.0,0.0,0.0,0.0,0.0,0.0,0.0,0.0,0.0,0.0,0.0,0.0,0.0,0.0,0.0,0.0,-3.6469,-3.752,-3.8512,-3.946,-4.0183,-4.0703,-4.0874,-4.2296,-4.3316,-4.3481,-4.4861,-4.5795,-4.5904,-4.5905,-4.6616,-4.8238,-4.8309,-4.9006,-5.0545,-5.0532,-5.0371,-5.0108,-5.0057,-4.9912,-4.9692,0.0,0.0,-4.9027,-4.8767,-4.8513,-4.8246,-4.809,-4.7767,-4.7302,-4.7116,-4.6607,-4.5947,-4.5735,-4.5441,-4.5042,-4.4491,-4.4224,-4.401,0.0,0.0,0.0,0.0,0.0,0.0,0.0,0.0,0.0,0.0,0.0,0.0,0.0,0.0,0.0,0.0,0.0,0.0,0.0,-2.0901,-2.092,-2.0859,-2.0859,-2.0625,-2.0145,-2.0026,-1.9811,-1.9488,-1.9239,-1.9107,-1.9093,-1.8789,-1.8575,-1.8452,-1.8302,-1.8166,-1.8045,-1.776,-1.7639,-1.7639,-1.7567,-1.7733,-1.805,-1.8614,-1.8881,-1.904,-1.946,-1.9772,-2.0067,-2.0535,-2.0822,-2.1082,-2.1544,-2.1864,-2.217,0.0,0.0,0.0,0.0,0.0,0.0,0.0,0.0,0.0,0.0,0.0,0.0,0.0,0.0,-3.2886,-3.3488,0.0,-3.6235,-3.7237,-3.8214,-3.9185,-4.0121,-4.0626,-4.0893,-4.0907,-4.2442,-4.3496,-4.3506,-4.5016,-4.598,-4.5955,-4.5917,-4.6623,-4.8253,-4.8318,-4.9006,-5.0545,-5.05,-5.0337,-5.0108,-5.0005,-4.9843,-4.9653,-4.9418,-4.9176,-4.8942,-4.8695,-4.8458,-4.8187,-4.7992,-4.7666,-4.7258,-4.6939,-4.6398,-4.577,-4.5572,-4.5283,-4.4923,-4.4395,-4.4155,-4.401,0.0,0.0,0.0,0.0,0.0,0.0,0.0,0.0,0.0,0.0,0.0,0.0,0.0,0.0,0.0,0.0,0.0,0.0,0.0,-2.0233,-2.0165,-1.9921,-1.9936,-1.9741,-1.9302,-1.9133,-1.9081,-1.9028,-1.8694,-1.8479,-1.8425,-1.8111,-1.7893,-1.7689,-1.7562,-1.7423,-1.7245,-1.6955,-1.6842,-1.6814,-1.6814,-1.6814,-1.6927,-1.7744,-1.8275,-1.8679,-1.9131,-1.9551,-1.9952,-2.0372,-2.0723,-2.1033,-2.1458,-2.1864,-2.2278,-2.264,-2.3105,0.0,0.0,0.0,0.0,0.0,0.0,0.0,0.0,-2.9044,-3.0037,-3.0759,-3.2249,-3.3532,-3.39,-3.5414,-3.6947,-3.7964,-3.8907,-3.9832,-4.0771,-4.0893,-4.0966,-4.1121,-4.2539,-4.3569,-4.3748,-4.5122,-4.6,-4.5991,-4.5911,-4.6609,-4.8292,-4.8301,-4.896,-5.0535,-5.0457,-5.0278,-5.0082,-4.9952,-4.9774,-4.9559,-4.9371,-4.9146,-4.8874,-4.8678,-4.8438,-4.813,-4.7832,-4.75,-4.7169,-4.6754,-4.6253,-4.577,-4.5468,-4.5203,-4.4923,-4.431,-4.4097,-4.401,0.0,0.0,0.0,0.0,0.0,0.0,0.0,0.0,0.0,0.0,0.0,0.0,0.0,0.0,0.0,0.0,0.0,0.0,-1.8849,-1.8937,-1.9006,-1.8973,-1.8973,-1.8938,-1.8878,-1.8732,-1.8614,-1.8503,-1.8275,-1.803,-1.7783,-1.7645,-1.734,-1.692,-1.6902,-1.6722,-1.641,-1.6257,-1.6189,-1.62,-1.6075,-1.6075,-1.6257,-1.6655,-1.7301,-1.8073,-1.8652,-1.9143,-1.9551,-2.008,-2.0485,-2.0908,-2.1434,-2.1864,-2.2301,-2.2731,-2.3224,-2.3696,-2.4135,-2.5013,-2.5919,-2.6539,-2.7038,-2.7701,0.0,-2.9584,-3.0441,-3.2326,-3.3112,-3.3791,-3.4767,-3.5887,-3.7017,-3.8026,-3.8986,-3.9897,-4.0781,-4.0907,-4.1199,-4.1961,-4.2908,-4.3812,-4.4574,-4.5467,-4.5986,-4.5917,-4.5854,-4.6532,-4.8224,-4.8188,-4.8856,-5.0453,-5.0371,-5.02,-5.0018,-4.9871,-4.9688,-4.9415,-4.9276,-4.9062,-4.8804,-4.8606,-4.8324,-4.7992,-4.7539,-4.7165,-4.6824,-4.6542,-4.6179,-4.577,-4.5363,-4.514,-4.4923,-4.431,-4.4097,-4.401,0.0,0.0,0.0,0.0,0.0,0.0,0.0,0.0,0.0,0.0,0.0,0.0,0.0,0.0,0.0,0.0,0.0,0.0,-1.8348,-1.8356,-1.8464,-1.8679,-1.8679,-1.8679,-1.8679,-1.8437,-1.8275,-1.8232,-1.7822,-1.7573,-1.7462,-1.7145,-1.6835,-1.6573,-1.6353,-1.6153,-1.5923,-1.5604,-1.5459,-1.5459,-1.54,-1.54,-1.5517,-1.6028,-1.6521,-1.7101,-1.805,-1.8789,0.0,0.0,-2.0334,-2.0883,-2.1337,-2.1793,-2.2287,-2.2754,-2.3224,-2.3788,-2.4599,-2.5381,-2.61,-2.6708,-2.7166,-2.7824,-2.9201,-3.012,-3.1114,-3.2776,-3.369,-3.4396,-3.5039,-3.6416,-3.7621,-3.813,-3.9373,-4.0435,-4.084,-4.1345,-4.1971,-4.2805,-4.3679,-4.4344,-4.4704,-4.5504,-4.5968,-4.5854,-4.6278,-4.7036,-4.813,-4.8605,-4.9325,-5.0344,-5.029,-5.0158,-4.9933,-4.9778,-4.9555,-4.9337,-4.9129,-4.8909,-4.8697,-4.8476,-4.8149,-4.7684,-4.7381,-4.7025,-4.6661,-4.6381,-4.6105,-4.577,-4.538,-4.5113,-4.4923,-4.431,-4.4097,-4.401,0.0,0.0,0.0,0.0,0.0,0.0,0.0,0.0,0.0,0.0,0.0,0.0,0.0,0.0,0.0,0.0,0.0,0.0,0.0,-1.8054,-1.8111,-1.8398,-1.8371,-1.8371,-1.8398,-1.8139,-1.7975,-1.792,-1.7518,-1.725,-1.7155,-1.6733,-1.6449,-1.6259,-1.5912,-1.5652,-1.5478,-1.5059,-1.4823,-1.4793,-1.4734,-1.4784,-1.4931,-1.5449,-1.5874,-1.634,-1.7518,-1.8375,0.0,0.0,-2.0131,-2.0759,-2.1215,-2.1722,-2.2287,-2.2754,-2.3355,-2.4057,-2.4942,-2.5589,-2.6154,-2.6825,-2.7246,-2.7922,-2.9568,-3.0585,-3.1641,-3.3182,-3.4143,-3.4803,-3.5105,-3.6704,-3.8031,-3.8189,-3.966,-4.0873,-4.1197,-4.1766,-4.2567,-4.3627,-4.43,-4.4857,-4.533,-4.5723,-4.6003,-4.6155,-4.6684,-4.7447,-4.8413,-4.898,-4.9608,-5.0283,-5.0175,-5.0038,-4.9871,-4.9644,-4.9434,-4.9209,-4.8993,-4.8767,-4.8514,-4.8248,-4.787,-4.7428,-4.7245,-4.6934,-4.659,-4.6259,-4.6005,-4.5744,-4.5327,-4.5086,-4.4923,-4.431,-4.4097,-4.401,0.0,0.0,0.0,0.0,0.0,0.0,0.0,0.0,0.0,0.0,0.0,0.0,0.0,0.0,0.0,0.0,0.0,0.0,0.0,-1.7958,-1.7783,-1.7936,-1.781,-1.7783,-1.7936,-1.7783,-1.7645,-1.7523,-1.7379,-1.7127,-1.6818,-1.6545,-1.623,-1.5885,-1.5565,-1.5274,-1.5,-1.4656,-1.4389,-1.4219,-1.407,-1.424,-1.4558,-1.4911,-1.54,-1.6046,-1.7123,0.0,0.0,-1.9172,-1.9849,-2.0498,-2.1033,-2.1664,-2.2287,-2.2754,-2.3653,-2.4584,-2.5056,-2.5589,-2.6154,-2.6825,-2.7246,-2.806,-3.0245,-3.098,-3.1775,-3.3849,-3.4505,-3.4774,-3.5043,-3.6629,-3.7969,-3.8163,-3.9618,-4.1009,-4.1939,-4.2086,-4.2745,-4.4451,-4.4634,-4.5241,0.0,-4.629,-4.6155,-4.7011,-4.6901,-4.7567,-4.926,-4.9143,-4.9423,-5.0264,-5.0057,-4.9871,-4.9807,-4.9537,-4.927,-4.9027,-4.8925,-4.8696,-4.8287,-4.7888,-4.7554,-4.728,-4.7093,-4.6842,-4.6566,-4.6161,-4.593,-4.5744,-4.522,-4.5005,-4.4923,-4.431,-4.4097,-4.401,0.0,0.0,0.0,0.0,0.0,0.0,0.0,0.0,0.0,0.0,0.0,0.0,0.0,0.0,0.0,0.0,0.0,0.0,0.0,-1.8289,-1.8097,-1.8227,-1.7896,-1.7711,-1.7783,-1.7645,-1.7562,-1.7496,-1.7145,-1.6902,-1.679,-1.6316,-1.6011,-1.5885,-1.5352,-1.5088,-1.497,-1.4398,-1.413,-1.407,-1.392,-1.398,-1.421,-1.4538,-1.503,-1.5671,0.0,0.0,0.0,-1.8934,-1.9708,-2.0498,-2.1033,-2.1664,-2.2356,-2.3135,-2.3888,-2.4605,-2.5075,-2.5589,-2.6136,-2.6725,-2.7543,-2.8658,-3.0294,-3.1327,-3.2368,-3.3926,-3.4443,-3.4891,-3.575,-3.699,-3.8128,-3.8828,-4.0416,-4.1674,-4.1983,-4.2989,-4.4118,-4.5297,-4.5875,0.0,0.0,0.0,0.0,-4.7703,-4.8248,-4.8702,-4.9113,-4.961,-4.9914,-5.0038,-4.9952,-4.9783,-4.9537,-4.9399,-4.9193,-4.8925,-4.8642,-4.8363,-4.8092,-4.7806,-4.7554,-4.728,-4.6985,-4.6772,-4.6566,-4.608,-4.5846,-4.5744,-4.522,-4.5005,-4.4923,-4.431,-4.4097,-4.401,0.0,0.0,0.0,0.0,0.0,0.0,0.0,0.0,0.0,0.0,0.0,0.0,0.0,0.0,0.0,0.0,0.0,0.0,0.0,0.0,-1.8357,-1.8342,-1.7996,-1.7751,-1.7629,-1.7507,-1.7423,-1.7423,-1.706,-1.6864,-1.679,-1.6316,-1.6,-1.5885,-1.5381,-1.5049,-1.4872,-1.4389,-1.407,-1.392,-1.389,-1.392,-1.404,-1.4419,-1.4913,0.0,0.0,0.0,0.0,-1.8721,-1.9565,-2.0422,-2.097,-2.1732,-2.2595,-2.3377,-2.403,-2.46,-2.5052,-2.5551,-2.6166,-2.6961,-2.7857,-2.8966,-3.0587,-3.1618,-3.2575,-3.3844,-3.4328,-3.487,-3.6026,-3.7106,-3.8148,-3.9088,-4.0739,-4.2013,-4.235,-4.3851,-4.5221,-4.6094,-4.6871,-4.7668,-4.8481,-4.8075,0.0,-4.8452,-4.897,-4.9297,-4.9391,-4.9877,-5.0082,-4.9871,-4.9769,-4.9625,-4.9415,-4.9241,-4.8993,-4.8678,-4.8363,-4.8092,-4.7888,-4.766,-4.7425,-4.7165,-4.6847,-4.6637,-4.6405,-4.5998,-4.577,-4.5667,-4.5194,-4.5005,-4.4923,-4.431,-4.4097,-4.401,0.0,0.0,0.0,0.0,0.0,0.0,0.0,0.0,0.0,0.0,0.0,0.0,0.0,0.0,0.0,0.0,0.0,0.0,0.0,0.0,0.0,-1.828,-1.813,-1.7889,-1.7523,-1.7384,-1.7328,-1.7306,-1.7106,-1.6937,-1.6807,-1.6545,-1.623,-1.5914,-1.5575,-1.5147,-1.4736,-1.4558,-1.424,-1.386,-1.395,-1.401,-1.407,-1.4538,0.0,0.0,0.0,0.0,-1.7831,-1.8572,-1.9434,-2.0359,-2.0894,-2.1917,-2.3001,-2.3465,-2.403,-2.458,-2.4989,-2.5508,-2.6241,-2.7482,-2.8152,-2.9049,-3.1103,-3.1864,-3.248,-3.3623,-3.4148,-3.4746,-3.5922,-3.6986,-3.801,-3.8982,-4.0605,-4.2066,-4.2953,-4.4575,-4.597,-4.6861,-4.7607,-4.8383,-4.9243,-4.9237,-4.9245,-4.9365,0.0,-4.936,-5.0038,-4.9965,-4.9857,-4.9792,-4.9521,-4.9399,-4.9384,-4.9044,-4.8678,-4.8287,-4.8092,-4.7888,-4.7678,-4.7407,-4.7187,-4.6998,-4.6725,-4.6471,-4.6186,-4.5922,-4.5718,-4.5537,-4.514,-4.5005,-4.4923,-4.4327,-4.408,-4.396,0.0,0.0,0.0,0.0,0.0,0.0,0.0,0.0,0.0,0.0,0.0,0.0,0.0,0.0,0.0,0.0,0.0,0.0,0.0,0.0,0.0,0.0,0.0,0.0,0.0,0.0,0.0,0.0,0.0,-1.6983,-1.6937,-1.6563,-1.6355,-1.6259,-1.5652,-1.5323,-1.5206,-1.4795,-1.4529,-1.43,0.0,-1.4249,-1.441,0.0,0.0,0.0,0.0,0.0,-1.8104,-1.8747,-1.9837,-2.1057,-2.1684,-2.2365,-2.3001,-2.3465,-2.3952,-2.4462,-2.4954,-2.5805,-2.6738,-2.7472,-2.8832,-3.0162,-3.097,-3.1943,-3.285,-3.3411,-3.3818,-3.4649,-3.6437,-3.7133,-3.7944,-3.9576,-4.1313,-4.2546,-4.2841,-4.4892,-4.6665,-4.7537,-4.8341,-4.9379,-5.0787,-5.081,-5.0971,0.0,-5.0488,-4.9867,-4.9946,-4.9816,-4.9673,-4.9506,-4.9384,-4.9225,-4.9027,-4.866,-4.8401,-4.8287,-4.7949,-4.7741,-4.7678,-4.7377,-4.7156,-4.6998,-4.6725,-4.6471,-4.6186,-4.5922,-4.5667,-4.5415,-4.5113,-4.4923,-4.4803,-4.4298,-4.3746,-4.3175,0.0,0.0,0.0,0.0,0.0,0.0,0.0,0.0,0.0,0.0,0.0,0.0,0.0,0.0,0.0,0.0,0.0,0.0,0.0,0.0,0.0,0.0,0.0,0.0,0.0,0.0,0.0,0.0,0.0,0.0,0.0,-1.6902,-1.6687,-1.6477,-1.6038,-1.5768,-1.5613,0.0,0.0,0.0,0.0,0.0,0.0,0.0,0.0,0.0,0.0,-1.7793,-1.8924,-1.9514,-2.0409,-2.1399,-2.2091,-2.2655,-2.3172,-2.3566,-2.4228,-2.4922,-2.5368,-2.6338,-2.7388,-2.8184,-2.9359,-3.0515,-3.1184,-3.2019,-3.2752,-3.3142,-3.3781,-3.4783,-3.644,-3.7204,-3.8222,-4.0102,-4.1597,-4.2827,-4.3698,-4.5644,-4.7312,-4.8193,-4.9315,-5.0361,-5.1203,-5.1554,-5.1869,-5.2201,-5.15,-5.0983,-5.0793,-5.0369,-5.0025,-4.9802,-4.9365,-4.8959,-4.8642,-4.842,-4.8209,-4.8012,-4.7804,-4.7615,-4.7464,-4.7223,-4.702,-4.6801,0.0,-4.6326,-4.6005,-4.5871,-4.5615,-4.5283,-4.5086,-4.4913,-4.4714,-4.39,-4.3344,-4.2886,0.0,0.0,0.0,0.0,0.0,0.0,0.0,0.0,0.0,0.0,0.0,0.0,0.0,0.0,0.0,0.0,0.0,0.0,0.0,0.0,0.0,0.0,0.0,0.0,0.0,0.0,0.0,0.0,0.0,0.0,0.0,0.0,0.0,0.0,0.0,0.0,0.0,0.0,0.0,0.0,0.0,0.0,0.0,0.0,0.0,0.0,-1.7429,-1.8632,-1.9901,-2.0459,-2.1019,-2.1568,-2.2231,-2.2886,-2.3496,-2.3831,-2.4732,-2.572,-2.6036,-2.6954,-2.8062,-2.9118,-2.98,-3.0455,-3.1515,-3.2071,-3.251,-3.2977,-3.3934,-3.5063,-3.626,-3.7283,-3.8538,-4.0434,-4.1581,-4.2898,-4.4782,-4.6441,-4.7827,-4.8777,-5.0244,-5.1192,-5.1257,-5.1945,-5.2375,-5.2293,-5.2422,-5.2332,-5.1914,-5.1188,-5.0607,-5.026,-4.943,-4.8771,-4.8306,-4.8248,-4.805,-4.7717,-4.7636,-4.7464,-4.7174,-4.7043,-4.6819,-4.6566,0.0,0.0,-4.5795,-4.577,-4.5537,-4.515,-4.4957,-4.476,-4.4483,-4.3278,-4.2775,-4.2534,0.0,0.0,0.0,0.0,0.0,0.0,0.0,0.0,0.0,0.0,-2.3362,-2.257,0.0,0.0,0.0,0.0,0.0,0.0,0.0,0.0,0.0,0.0,0.0,0.0,0.0,0.0,0.0,0.0,0.0,0.0,0.0,0.0,0.0,0.0,0.0,0.0,0.0,0.0,0.0,0.0,0.0,0.0,0.0,0.0,0.0,0.0,-1.8509,-1.9345,-2.0067,-2.0698,-2.1302,-2.1817,-2.2394,-2.3281,-2.4185,-2.4522,-2.5419,-2.6399,-2.6729,-2.7615,-2.8595,-2.9161,-2.9962,-3.0727,-3.1278,-3.2116,-3.2921,-3.3336,-3.4352,-3.5522,-3.6685,-3.7276,-3.8224,-4.0169,-4.1263,-4.2549,-4.4492,-4.6193,-4.7799,-4.9297,-5.034,-5.1432,-5.2615,-5.2834,-5.3142,-5.3762,-5.3714,-5.308,-5.1874,-5.1407,-5.0803,-4.9917,-4.9583,-4.9044,-4.8324,-4.797,-4.7762,-4.7696,-4.7421,-4.7201,-4.7043,-4.6888,-4.6684,-4.6447,0.0,0.0,-4.5795,-4.5667,-4.5406,-4.4964,-4.4338,-4.3895,-4.3538,-4.2467,-4.1703,-4.1069,0.0,0.0,0.0,0.0,0.0,0.0,0.0,-2.5271,-2.5068,-2.4853,-2.4398,-2.3797,-2.2976,-2.2742,-2.2441,0.0,0.0,0.0,0.0,0.0,0.0,0.0,0.0,0.0,0.0,0.0,-1.9968,-1.9803,0.0,-1.9217,-1.9206,-1.8606,-1.8294,-1.821,0.0,0.0,0.0,0.0,0.0,0.0,0.0,0.0,0.0,0.0,0.0,0.0,0.0,-2.0572,-2.1459,-2.208,-2.266,-2.3097,-2.3155,-2.3754,-2.4589,-2.5221,-2.6228,-2.7181,-2.7425,-2.8283,-2.9334,-2.9968,-3.065,-3.1337,-3.1938,-3.2679,-3.3316,-3.3682,-3.4724,-3.5794,-3.6551,-3.7642,-3.8962,-4.0502,-4.1908,-4.3465,-4.5413,-4.7136,-4.8633,-4.9872,-5.111,-5.2148,-5.2836,-5.3197,-5.3553,-5.3851,-5.3795,-5.3479,-5.2863,-5.2084,-5.1244,-5.0298,-4.9678,-4.9115,-4.863,-4.8003,-4.7593,-4.7439,-4.7201,-4.702,-4.6888,-4.6684,-4.6518,-4.6381,-4.6179,0.0,-4.5795,-4.5658,-4.5129,-4.4407,-4.4048,-4.3469,-4.2716,-4.1695,-4.11,-4.0652,0.0,0.0,0.0,0.0,0.0,0.0,0.0,-2.5857,-2.5844,-2.5492,-2.5296,-2.4976,-2.4238,-2.3716,-2.3271,0.0,0.0,0.0,0.0,0.0,0.0,0.0,0.0,0.0,0.0,0.0,0.0,-2.0727,-2.0344,0.0,0.0,0.0,0.0,0.0,-1.8543,-1.8219,-1.81,0.0,0.0,0.0,0.0,-1.7843,0.0,0.0,0.0,0.0,0.0,-2.1742,-2.2791,-2.3358,-2.3914,-2.4337,-2.4221,-2.4576,-2.5175,-2.5985,-2.7026,-2.8006,-2.8269,-2.9091,-3.0055,-3.0907,-3.141,-3.1869,-3.2613,-3.3213,-3.3714,-3.4062,-3.5087,-3.6073,-3.6663,-3.808,-3.9623,-4.0999,-4.2558,-4.4286,-4.6234,-4.7951,-4.9398,-5.044,-5.1838,-5.2771,-5.2847,-5.3365,-5.3659,-5.3543,-5.3504,0.0,-5.3659,-5.2747,-5.1807,-5.0922,-4.993,-4.9231,-4.8898,-4.8034,-4.7443,-4.7174,-4.702,-4.6865,-4.6725,-4.6495,-4.6374,-4.6301,-4.6073,0.0,0.0,-4.5442,-4.4742,-4.3877,-4.3552,-4.2856,-4.1938,-4.0922,-4.0548,-4.0384,0.0,0.0,0.0,0.0,0.0,0.0,0.0,-2.6494,-2.6513,-2.6468,-2.6035,-2.5692,-2.5619,-2.52,-2.4708,0.0,0.0,0.0,0.0,0.0,0.0,0.0,0.0,0.0,0.0,0.0,0.0,-2.176,-2.1288,0.0,0.0,0.0,0.0,0.0,0.0,-1.928,-1.8718,-1.8706,0.0,0.0,0.0,0.0,0.0,0.0,0.0,0.0,0.0,-2.2484,-2.3136,-2.354,-2.4042,-2.4629,-2.5508,-2.6091,-2.6495,-2.6819,-2.775,-2.8849,-2.9618,-3.0077,-3.0584,-3.1643,-3.1922,-3.2078,-3.2601,-3.3361,-3.4075,-3.4533,-3.5513,-3.6593,-3.774,-3.8402,-3.9389,-4.1343,-4.2541,-4.3942,-4.5947,-4.7625,-4.927,-5.0935,-5.1899,-5.2694,-5.3356,-5.3383,-5.3341,-5.332,-5.3151,0.0,-5.3254,-5.3033,-5.2483,-5.1554,-5.0555,-4.9662,-4.8916,-4.7795,-4.7156,-4.702,-4.6888,-4.6684,-4.6447,-4.6405,-4.6277,-4.6023,-4.5871,0.0,0.0,-4.4742,-4.4208,-4.3774,-4.2356,-4.1597,-4.1195,-4.0176,-3.9804,-3.9709,0.0,0.0,0.0,0.0,0.0,0.0,-2.6768,-2.6891,-2.6974,-2.6974,-2.6873,-2.6817,-2.6817,-2.6817,-2.625,-2.4925,0.0,0.0,0.0,0.0,0.0,0.0,0.0,0.0,0.0,0.0,-2.2603,-2.2844,-2.2421,0.0,0.0,0.0,0.0,0.0,0.0,-2.0674,-2.0397,-2.0089,0.0,0.0,0.0,0.0,0.0,0.0,0.0,0.0,0.0,0.0,-2.4708,-2.503,-2.5453,-2.5991,-2.6557,-2.6985,-2.7374,-2.7546,-2.8458,-2.9474,-2.9788,-3.0432,-3.1214,-3.2062,-3.2458,-3.2772,-3.3403,-3.4049,-3.4772,-3.5553,-3.6237,-3.7041,-3.8239,-3.9147,-4.0228,-4.1735,-4.3286,-4.479,-4.6246,-4.83,-4.9975,-5.0754,-5.1967,-5.2886,-5.3175,-5.3066,-5.298,-5.2879,-5.2779,0.0,-5.2667,-5.2667,-5.254,-5.2168,-5.1122,-5.0149,-4.9271,-4.8294,-4.7484,-4.6865,-4.6661,-4.6501,-4.6381,-4.6228,-4.6097,-4.5955,-4.5308,0.0,0.0,-4.3999,-4.3193,-4.2458,-4.1843,-4.1154,-4.0468,-3.9924,-3.9703,-3.9625,0.0,0.0,0.0,0.0,0.0,-2.6974,-2.6974,-2.7179,-2.7301,-2.7301,-2.7493,-2.7615,-2.7615,-2.78,-2.7387,-2.6052,-2.5477,0.0,0.0,0.0,0.0,0.0,0.0,0.0,0.0,0.0,-2.3626,-2.3977,-2.3573,-2.345,0.0,0.0,-2.275,-2.2585,0.0,0.0,0.0,0.0,0.0,0.0,0.0,0.0,0.0,0.0,0.0,0.0,0.0,0.0,0.0,0.0,0.0,-2.6954,-2.7417,-2.7838,-2.8168,-2.8283,-2.8962,-2.9846,-3.0261,-3.0979,-3.1765,-3.258,-3.3168,-3.3693,-3.4286,-3.4939,-3.5645,-3.6411,-3.6872,-3.7506,-3.8699,-3.9825,-4.099,-4.22,-4.3974,-4.5555,-4.6644,-4.8805,-5.0387,-5.0727,-5.1988,-5.2828,-5.2828,-5.2717,-5.2604,-5.2472,-5.2415,0.0,-5.2269,-5.2269,-5.2293,-5.2364,-5.1335,-5.036,-4.9442,-4.8526,-4.7601,-4.6684,-4.6495,-4.6398,-4.6326,-4.6097,-4.585,-4.5581,0.0,0.0,0.0,-4.3205,-4.2351,-4.1587,-4.1364,-4.078,-4.0087,-3.9807,-3.9703,-3.9625,0.0,0.0,0.0,0.0,0.0,0.0,-2.719,-2.7371,-2.7522,-2.7522,-2.7748,-2.7893,-2.7893,-2.7893,-2.7881,-2.7869,-2.7364,0.0,0.0,0.0,0.0,0.0,0.0,0.0,0.0,0.0,-2.475,-2.5084,-2.4668,-2.454,-2.4667,-2.4262,-2.3801,-2.3291,0.0,0.0,0.0,0.0,0.0,0.0,0.0,0.0,0.0,0.0,0.0,0.0,0.0,0.0,0.0,0.0,0.0,0.0,0.0,-2.8655,-2.8991,-2.8991,-2.9271,-2.9915,-3.1379,-3.1868,-3.2222,-3.3234,-3.4143,-3.4856,-3.5117,-3.5955,-3.6737,-3.696,-3.7352,-3.8043,-3.9174,-4.0266,-4.1412,-4.2678,-4.4417,-4.6007,-4.7132,-4.878,-5.0231,-5.1104,-5.1919,-5.2408,-5.2408,-5.2351,-5.2251,-5.2126,0.0,0.0,-5.2084,-5.184,-5.1815,-5.2102,-5.107,-5.012,-4.9305,-4.8311,-4.7338,-4.6405,-4.6405,-4.6326,-4.6196,-4.6048,-4.5528,0.0,0.0,0.0,0.0,-4.2344,-4.1845,-4.1535,-4.08,-4.0337,-4.0087,-3.9807,-3.9703,-3.9625,0.0,0.0,0.0,0.0,0.0,0.0,0.0,-2.7615,-2.7917,-2.8269,-2.8521,-2.8857,-2.935,-2.9215,-2.912,-2.9306,-2.8076,0.0,0.0,0.0,0.0,0.0,0.0,0.0,0.0,0.0,-2.5864,-2.6175,-2.5793,-2.5739,-2.6001,-2.5445,-2.5159,-2.5058,-2.4656,-2.4374,0.0,0.0,0.0,0.0,0.0,0.0,0.0,0.0,0.0,0.0,0.0,0.0,0.0,0.0,0.0,0.0,0.0,0.0,0.0,-3.0354,-3.0714,-3.1094,-3.1644,-3.2598,-3.3527,-3.3936,-3.4754,-3.5513,-3.5594,-3.6172,-3.6901,-3.7543,-3.8419,-3.9387,-4.0451,-4.1543,-4.2654,-4.3802,-4.5144,-4.6389,-4.7435,-4.9079,-5.0306,-5.0677,-5.1436,-5.192,-5.192,0.0,-5.184,-5.1708,0.0,0.0,-5.1564,-5.1462,-5.1538,-5.1815,-5.1332,-5.0399,-4.9032,-4.8671,-4.777,-4.6405,-4.6301,-4.6196,-4.6048,-4.5922,0.0,0.0,0.0,0.0,0.0,-4.1446,-4.1016,-4.081,-4.0472,-4.0263,-4.0087,-3.9807,-3.9703,-3.9651,0.0,0.0,0.0,0.0,0.0,0.0,0.0,-2.8034,-2.8444,-2.8858,-2.9254,-2.9742,-3.0288,-3.0187,-3.0069,-3.01,-2.9209,0.0,0.0,0.0,0.0,0.0,0.0,0.0,-2.7156,-2.6855,-2.6902,-2.7313,-2.6889,-2.6858,-2.7094,-2.6557,-2.6222,-2.6062,-2.5736,-2.5463,0.0,0.0,0.0,0.0,0.0,0.0,-2.5592,0.0,0.0,0.0,0.0,0.0,0.0,0.0,0.0,0.0,0.0,0.0,0.0,0.0,-3.1967,-3.2412,-3.2547,-3.3291,-3.4136,-3.4608,-3.5458,-3.6222,-3.6222,-3.7091,-3.8045,-3.8596,-3.9677,-4.0745,-4.1411,-4.2482,-4.3623,-4.4664,-4.5784,-4.6936,-4.8209,-4.9399,-5.0303,-5.0748,-5.1236,-5.1538,0.0,-5.1538,-5.1513,0.0,0.0,0.0,-5.1281,-5.1246,-5.1298,-5.1479,-5.1324,-5.046,-4.8869,-4.8743,-4.7867,-4.6253,-4.6172,-4.6048,-4.5922,-4.5499,0.0,0.0,0.0,0.0,0.0,-4.0934,-4.0624,-4.0485,-4.0337,-4.0213,-4.0087,-3.9807,-3.9703,-3.9651,0.0,0.0,0.0,0.0,0.0,0.0,0.0,-2.8573,-2.9152,-2.9441,-3.007,-3.0594,-3.0934,-3.0939,-3.0799,-3.0505,0.0,0.0,0.0,0.0,0.0,0.0,0.0,0.0,-2.8486,-2.791,-2.7875,-2.8387,-2.8012,-2.7871,-2.8016,-2.7594,-2.7116,-2.6617,-2.6677,-2.6413,0.0,0.0,0.0,0.0,-2.6089,-2.6171,0.0,0.0,0.0,0.0,0.0,0.0,0.0,0.0,0.0,0.0,0.0,0.0,0.0,0.0,0.0,0.0,0.0,-3.4048,-3.4288,-3.5244,-3.6282,-3.7066,-3.705,-3.8594,0.0,-3.9968,-4.1039,-4.2032,-4.2202,-4.3233,-4.4358,-4.5344,-4.6412,-4.7674,-4.9211,-4.9723,-5.0259,-5.1114,-5.1246,-5.1246,-5.1246,-5.1246,-5.1246,0.0,0.0,0.0,-5.1246,-5.1114,-5.1052,-5.1052,-5.0999,-5.0268,-4.8778,-4.8537,-4.7594,-4.5972,-4.5972,-4.5905,-4.5665,-4.4877,0.0,0.0,0.0,0.0,0.0,-4.0745,-4.0607,-4.0485,-4.0337,-4.0213,-4.0087,-3.9807,-3.9703,-3.9651,0.0,0.0,0.0,0.0,0.0,0.0,0.0,0.0,0.0,0.0,-3.1222,-3.1625,-3.2459,-3.2164,-3.1964,0.0,0.0,0.0,0.0,0.0,0.0,0.0,0.0,0.0,-2.9311,-2.9127,-2.9099,-2.9232,-2.9027,-2.9021,-2.9177,-2.8731,-2.8515,-2.8506,-2.8039,-2.7755,0.0,0.0,0.0,0.0,-2.7825,-2.7909,0.0,0.0,0.0,0.0,-2.89,-2.952,0.0,0.0,0.0,0.0,0.0,0.0,0.0,0.0,-3.4293,-3.4641,-3.5444,0.0,-3.5776,-3.6204,-3.7406,-3.8523,0.0,-3.9722,-4.0738,-4.0738,-4.1716,-4.2812,-4.3506,-4.4541,-4.5569,-4.6471,-4.7619,-4.8519,-4.891,-4.9743,-5.0372,-5.0592,-5.061,-5.061,-5.061,-5.061,0.0,0.0,0.0,-5.061,-5.061,-5.0582,-5.0554,-5.0554,-5.0023,-4.9309,-4.8435,-4.7813,-4.6941,-4.5846,-4.5846,-4.5482,-4.4782,-4.4584,0.0,0.0,0.0,0.0,-4.0871,-4.0631,-4.0534,-4.0485,-4.0238,-4.0138,-4.0087,-3.991,-3.9781,-3.9677,0.0,0.0,0.0,0.0,0.0,0.0,0.0,0.0,0.0,0.0,0.0,0.0,0.0,0.0,0.0,0.0,0.0,0.0,0.0,0.0,0.0,0.0,0.0,-3.0459,-3.0378,-3.0154,-3.0178,-3.0411,-3.0048,-3.001,-3.0276,-2.9777,-2.9455,-2.9258,-2.8742,-2.8567,-2.8623,-2.8623,-2.8623,-2.8623,-2.8736,0.0,0.0,0.0,0.0,0.0,-3.0076,-3.0838,0.0,-3.1707,-3.2288,-3.3084,0.0,0.0,0.0,0.0,-3.5027,-3.5576,-3.6411,-3.6423,-3.6432,-3.7372,-3.8296,-3.9129,-3.9599,-4.0645,-4.1619,-4.1947,-4.2943,-4.4027,-4.4938,-4.5685,-4.6443,-4.7347,-4.8116,-4.8787,-4.9258,-4.9798,-5.0228,-5.0369,-5.0415,-5.0415,0.0,0.0,0.0,0.0,0.0,-5.0415,-5.0415,-5.0415,-5.0241,-4.991,-4.9144,-4.8589,-4.8207,-4.7483,-4.6638,-4.5693,-4.5693,-4.5242,-4.4396,-4.405,-4.3212,0.0,0.0,0.0,-4.0888,-4.0607,-4.051,-4.0485,-4.0196,-4.0096,-4.007,-3.9935,-3.9824,-3.9677,0.0,0.0,0.0,0.0,0.0,0.0,0.0,0.0,0.0,0.0,0.0,0.0,0.0,0.0,0.0,0.0,0.0,0.0,0.0,0.0,0.0,0.0,0.0,-3.1289,-3.155,-3.1158,-3.1182,-3.1683,-3.1095,-3.0935,-3.1151,-3.0746,-3.0245,-2.9652,-2.936,-2.9281,-2.9407,-2.9407,-2.9435,-2.942,-2.9448,0.0,0.0,0.0,0.0,0.0,0.0,0.0,0.0,-3.3164,-3.3647,-3.4283,-3.4375,0.0,0.0,0.0,0.0,0.0,-3.738,-3.7174,-3.7105,-3.8607,-3.914,-3.953,-4.0321,-4.152,-4.2619,-4.3225,-4.4252,-4.533,-4.6263,-4.6623,-4.7081,-4.8052,-4.8384,-4.8829,-4.9693,-4.9837,-4.9924,-5.0228,-5.0257,0.0,0.0,0.0,0.0,0.0,0.0,-5.0257,-5.0257,-5.0257,-4.9927,-4.9236,-4.841,-4.7968,-4.7873,-4.7152,-4.6378,-4.5581,-4.5459,-4.4958,-4.4104,-4.3362,-4.2585,0.0,0.0,0.0,-4.0888,-4.0607,-4.051,-4.0485,-4.0196,-4.0096,-4.0087,-3.9961,-3.9833,-3.9677,0.0,0.0,0.0,0.0,0.0,0.0,0.0,0.0,0.0,0.0,0.0,0.0,0.0,0.0,0.0,0.0,0.0,0.0,0.0,0.0,0.0,-3.2516,-3.2169,-3.2236,-3.2743,-3.2346,-3.2244,-3.2419,-3.2288,-3.1922,-3.1432,-3.1655,-3.1425,-3.0837,-3.0793,-3.0778,-3.0778,-3.0778,-3.0851,-3.0981,-3.1081,0.0,0.0,0.0,0.0,0.0,0.0,0.0,0.0,-3.4026,-3.4221,-3.4568,-3.5257,0.0,0.0,0.0,0.0,0.0,-3.8935,-3.9185,-3.9339,-3.9729,-4.0302,-4.0906,-4.1295,-4.2671,-4.3915,-4.4014,-4.4902,-4.5941,-4.6878,-4.7106,-4.7465,-4.8514,-4.8924,-4.9184,-4.953,-4.956,-4.956,-4.9619,0.0,0.0,0.0,0.0,0.0,0.0,0.0,0.0,0.0,-4.9637,-4.9335,-4.8713,-4.7984,-4.7351,-4.684,-4.6152,-4.5702,-4.5406,-4.4794,-4.4112,-4.3345,-4.2551,-4.1792,0.0,0.0,-4.0912,-4.0888,-4.0607,-4.051,-4.0485,-4.0196,-4.0096,-4.0096,-4.0087,-3.9893,-3.9651,0.0,0.0,0.0,0.0,0.0,0.0,0.0,0.0,0.0,0.0,0.0,0.0,0.0,0.0,0.0,0.0,0.0,0.0,0.0,0.0,0.0,-3.3057,-3.2888,-3.2923,-3.3157,-3.3184,-3.3337,-3.3561,-3.3165,-3.2928,-3.2828,-3.2463,-3.199,-3.1497,-3.1539,-3.1597,-3.1612,-3.1972,-3.2151,-3.2269,0.0,0.0,0.0,0.0,0.0,0.0,0.0,0.0,0.0,0.0,-3.5305,-3.5858,-3.6676,0.0,0.0,0.0,0.0,0.0,-3.9882,-4.0214,-4.0546,-4.1502,-4.1773,-4.1963,-4.2571,-4.3716,-4.4771,-4.5291,-4.5828,-4.6529,-4.7547,-4.7744,-4.8058,-4.9082,-4.9085,-4.9185,-4.9729,-4.9562,-4.9381,0.0,0.0,0.0,0.0,0.0,0.0,0.0,0.0,0.0,0.0,0.0,-4.856,-4.7866,-4.7141,-4.6415,-4.5743,-4.5436,-4.5318,-4.538,-4.4647,-4.3914,-4.3172,-4.2378,-4.1602,-4.0912,0.0,-4.0864,-4.0793,-4.0583,-4.0461,-4.0362,-4.0188,-4.0096,-4.007,-3.9935,-3.9807,-3.9651,0.0,0.0,0.0,0.0,0.0,0.0,0.0,0.0,0.0,0.0,0.0,0.0,0.0,0.0,0.0,0.0,0.0,0.0,0.0,0.0,-3.4186,-3.3473,-3.3452,-3.3486,-3.3486,-3.3848,-3.4157,-3.4481,-3.4024,-3.3932,-3.4125,-3.3259,-3.266,-3.2309,-3.2438,-3.2452,-3.2497,-3.2998,-3.324,-3.3315,0.0,0.0,0.0,0.0,0.0,0.0,0.0,0.0,0.0,0.0,0.0,0.0,0.0,0.0,0.0,-3.9377,-3.9677,-3.9914,-4.064,-4.1054,-4.1613,-4.2861,-4.2944,-4.2896,-4.3767,-4.4626,-4.5457,-4.6192,-4.6602,-4.7094,-4.7933,-4.8296,-4.8759,-4.9624,-4.935,-4.9224,-4.9892,-4.9444,-4.9107,-4.9229,-4.926,0.0,0.0,0.0,0.0,0.0,0.0,0.0,0.0,0.0,-4.7675,-4.6937,-4.634,-4.5702,-4.5022,-4.4834,-4.4847,-4.5042,-4.4294,-4.3537,-4.2796,-4.2004,-4.135,-4.0799,-4.0799,-4.0769,-4.0648,-4.051,-4.0387,-4.0305,-4.0163,-4.0096,-4.007,-3.9833,-3.9729,-3.9677,0.0,0.0,0.0,0.0,0.0,0.0,0.0,0.0,0.0,0.0,0.0,0.0,0.0,0.0,0.0,0.0,0.0,0.0,0.0,0.0,-3.4121,-3.3856,-3.3971,-3.4059,-3.4059,-3.423,-3.4462,-3.4664,-3.4938,-3.4924,-3.4662,-3.4122,-3.3849,-3.3848,-3.3833,-3.3878,-3.3848,-3.3894,-3.3983,-3.4132,-3.4178,0.0,0.0,0.0,0.0,0.0,0.0,0.0,0.0,0.0,0.0,0.0,0.0,0.0,-3.9393,-4.0245,-4.0514,-4.0672,-4.1336,-4.2132,-4.2806,-4.3116,-4.3297,-4.3637,-4.4528,-4.539,-4.6026,-4.6125,-4.693,-4.7638,-4.7721,-4.8547,-4.946,-5.0209,-4.9892,-4.9571,-4.9621,0.0,-4.8547,0.0,0.0,0.0,0.0,0.0,0.0,0.0,0.0,0.0,0.0,0.0,0.0,-4.6017,-4.5932,-4.5625,-4.5022,-4.4338,-4.3997,-4.4006,-4.3193,-4.2424,-4.168,-4.0945,-4.0585,-4.0534,-4.0534,-4.0534,-4.051,-4.0362,-4.0305,-4.0305,-4.0163,-4.0096,-4.007,-3.9952,-3.9824,-3.9677,0.0,0.0,0.0,0.0,0.0,0.0,0.0,0.0,0.0,0.0,0.0,0.0,0.0,0.0,0.0,0.0,0.0,0.0,0.0,-3.4562,-3.4469,-3.4205,-3.4278,-3.4366,-3.4601,-3.4582,-3.4731,-3.503,-3.5362,-3.5307,-3.4894,-3.479,-3.4516,-3.4149,-3.4327,-3.4431,-3.4475,-3.5011,-3.5285,-3.5346,-3.5764,-3.598,0.0,0.0,0.0,0.0,0.0,0.0,0.0,0.0,-3.8811,-3.8968,0.0,-4.0102,-4.026,-4.1004,-4.1209,-4.1367,-4.2078,-4.2592,-4.3156,-4.4235,-4.4645,-4.4927,-4.5337,-4.6037,-4.6624,-4.6776,-4.7432,-4.8223,-4.8955,-4.9388,-4.9805,-5.0206,-4.9776,-4.9408,-4.9408,0.0,0.0,0.0,0.0,0.0,0.0,0.0,0.0,0.0,0.0,0.0,0.0,0.0,0.0,-4.545,-4.5012,-4.4727,-4.4564,-4.3836,-4.3281,-4.2913,-4.2304,-4.1877,-4.1569,-4.0834,-4.051,-4.051,-4.051,-4.0461,-4.0362,-4.033,-4.0238,-4.0163,-4.0138,-4.0096,-4.007,-3.9935,-3.9824,-3.9677,0.0,0.0,0.0,0.0,0.0,0.0,0.0,0.0,0.0,0.0,0.0,0.0,0.0,0.0,0.0,0.0,0.0,0.0,-3.4589,-3.463,-3.4603,-3.4511,-3.4549,-3.4702,-3.5001,-3.4964,-3.5063,-3.5294,-3.5671,-3.5684,-3.5368,-3.5585,-3.5431,-3.4986,-3.5299,-3.5433,-3.5464,-3.6065,-3.6313,-3.6344,-3.6828,-3.7015,0.0,0.0,0.0,0.0,0.0,0.0,0.0,0.0,0.0,0.0,0.0,0.0,0.0,0.0,-4.1746,-4.2047,-4.2552,-4.3081,-4.3756,-4.4899,-4.5469,-4.5819,-4.6011,-4.6486,-4.6992,-4.7373,-4.8044,-4.8884,-4.9953,-4.9955,-4.9943,0.0,-4.9622,-4.9061,0.0,0.0,0.0,0.0,0.0,0.0,0.0,0.0,0.0,0.0,0.0,0.0,0.0,0.0,0.0,0.0,-4.4348,-4.4037,-4.39,-4.3166,-4.2465,-4.1815,-4.1316,-4.1086,-4.1103,-4.0608,-4.037,-4.037,-4.037,-4.0313,-4.0238,-4.0238,-4.0188,-4.0096,-4.0096,-4.0096,-4.007,-3.9986,-3.9858,-3.9677,0.0,0.0,0.0,0.0,0.0,0.0,0.0,0.0,0.0,0.0,0.0,0.0,0.0,0.0,0.0,0.0,0.0,0.0,-3.4094,-3.4298,-3.4481,-3.4698,-3.4835,-3.5001,-3.518,-3.5392,-3.5504,-3.5504,-3.5973,-3.6196,-3.6211,-3.6554,-3.6693,-3.6723,-3.6908,-3.7015,-3.7015,-3.6999,-3.6999,-3.6999,-3.6999,-3.7015,-3.7123,0.0,0.0,0.0,0.0,0.0,0.0,0.0,-4.0609,0.0,0.0,0.0,0.0,0.0,-4.211,-4.2695,-4.2695,-4.369,-4.4752,-4.498,-4.5571,-4.6203,-4.6528,-4.6738,-4.7103,-4.7864,-4.8719,-4.958,-5.0514,-5.0091,-4.9829,-5.0549,-4.9452,-4.8571,0.0,0.0,0.0,0.0,0.0,0.0,0.0,0.0,0.0,0.0,0.0,0.0,0.0,0.0,0.0,0.0,-4.4097,-4.3729,-4.302,-4.2256,-4.1519,-4.0782,-4.0202,-3.9961,-4.0096,-4.0096,-4.0096,-4.0096,-4.0096,-4.0096,-4.0096,-4.0096,-4.0096,-4.0096,-4.0096,-4.0096,-4.0096,-4.0096,-3.9935,-3.9703,0.0,0.0,0.0,0.0,0.0,0.0,0.0,0.0,0.0,0.0,0.0,0.0,0.0,0.0,0.0,0.0,0.0,0.0,-3.4635,-3.4735,-3.4835,-3.5049,-3.5228,-3.5409,-3.5542,-3.5831,-3.6005,-3.6005,-3.6258,-3.6445,-3.6554,-3.68,-3.6908,-3.6908,-3.7059,-3.715,-3.715,-3.7285,-3.7361,-3.7361,-3.7361,-3.7614,-3.8071,0.0,0.0,0.0,0.0,0.0,0.0,0.0,0.0,0.0,0.0,0.0,0.0,-4.1588,-4.211,-4.2789,-4.3295,-4.4053,-4.4879,-4.558,-4.5953,-4.6168,-4.6333,-4.6528,-4.7077,-4.8427,-4.892,-4.9385,-5.0317,-4.9896,-4.9344,-4.9171,-4.878,-4.8372,0.0,0.0,0.0,0.0,0.0,0.0,0.0,0.0,0.0,0.0,0.0,0.0,0.0,0.0,0.0,0.0,-4.3102,-4.2854,-4.2867,-4.1605,-4.0909,-4.0782,-4.0081,-3.9833,-3.9961,-4.0062,-4.0096,-4.0096,-4.0096,-4.0096,-4.0096,-4.0096,-4.0096,-4.0096,-4.0096,-4.0096,-4.0096,-4.0096,-3.9935,-3.9703,0.0,0.0,0.0,0.0,0.0,0.0,0.0,0.0,0.0,0.0,-3.3536,-3.3675,0.0,0.0,0.0,0.0,0.0,0.0,0.0,-3.5034,-3.518,-3.5326,-3.5554,-3.5886,-3.6305,-3.6821,-3.6996,-3.6798,-3.663,-3.6677,-3.6831,-3.6984,-3.7075,-3.7075,-3.724,-3.7329,-3.7329,-3.7435,-3.751,-3.751,-3.751,-3.7891,-3.8539,0.0,0.0,0.0,0.0,0.0,0.0,0.0,0.0,0.0,0.0,0.0,0.0,-4.1936,-4.2537,-4.3248,-4.3927,-4.4622,-4.5254,-4.5857,-4.6004,-4.6024,-4.6187,-4.6593,-4.7203,-4.8252,-4.8743,-4.9103,-4.9726,-4.9258,0.0,-4.8358,-4.8066,-4.7758,0.0,0.0,0.0,0.0,0.0,0.0,0.0,0.0,0.0,0.0,0.0,0.0,0.0,0.0,0.0,0.0,-4.2164,-4.177,-4.1747,-4.084,-4.0325,-4.0188,-3.979,-3.9668,-3.9746,-3.9952,-4.0062,-4.0096,-4.0096,-4.0096,-4.0096,-4.0096,-4.0096,-4.0096,-4.0096,-4.0096,-4.0096,-4.0037,-3.9884,-3.9677,0.0,0.0,0.0,0.0,0.0,0.0,0.0,0.0,0.0,0.0,-3.3965,-3.4088,0.0,0.0,0.0,0.0,0.0,0.0,0.0,0.0,-3.5537,-3.5537,-3.5921,-3.6466,-3.7221,-3.809,-3.8268,-3.7731,-3.7142,-3.6908,-3.703,-3.715,-3.7224,-3.7254,-3.7435,-3.751,-3.751,-3.751,-3.751,-3.751,-3.751,-3.7938,-3.8665,-3.9281,0.0,0.0,0.0,0.0,0.0,0.0,0.0,0.0,-4.1588,-4.1588,-4.1715,-4.2394,-4.3121,-4.3813,-4.4448,-4.5207,-4.5807,-4.5807,-4.5807,-4.5859,-4.604,-4.6697,-4.7325,-4.7621,-4.8188,-4.8711,-4.8824,-4.8295,-4.7842,-4.7842,-4.7295,0.0,0.0,0.0,0.0,0.0,0.0,0.0,0.0,0.0,0.0,0.0,0.0,0.0,0.0,0.0,0.0,-4.1983,-4.1278,-4.0631,-4.0099,-4.0033,-3.9754,0.0,-3.9405,-3.9501,-3.9528,-3.9772,-3.9961,-4.0096,-4.0096,-4.0096,-4.0096,-4.0096,-4.0096,-4.0096,-4.0096,-4.0096,-4.007,-3.9935,-3.9824,-3.9677,0.0,0.0,0.0,0.0,0.0,0.0,0.0,0.0,0.0,0.0,0.0,0.0,0.0,0.0,0.0,0.0,0.0,0.0,0.0,0.0,-3.5893,-3.5893,-3.6571,-3.7163,-3.7683,-3.838,-3.8556,-3.8169,-3.8028,-3.7698,-3.7164,-3.7345,-3.7435,-3.7435,-3.748,-3.751,-3.751,-3.751,-3.751,-3.751,-3.751,-3.8207,-3.9297,-3.9455,-4.0277,0.0,0.0,0.0,0.0,0.0,0.0,0.0,-4.1588,-4.1588,-4.162,-4.1778,-4.271,-4.3722,-4.3895,-4.4859,-4.5807,-4.5807,-4.5807,-4.5807,-4.5844,-4.5991,-4.6405,-4.7293,-4.7606,-4.7702,-4.7738,-4.7145,-4.668,0.0,0.0,0.0,0.0,0.0,0.0,0.0,0.0,0.0,0.0,0.0,0.0,0.0,0.0,0.0,0.0,0.0,0.0,-4.1069,-4.0368,-3.9969,-3.9959,-3.9468,-3.9188,0.0,-3.9245,-3.9405,-3.9528,-3.9772,-3.9961,-4.0096,-4.0096,-4.0096,-4.0096,-4.0096,-4.0096,-4.0096,-4.0096,-4.0096,-4.007,-3.9935,-3.9824,-3.9677,0.0,0.0,0.0,0.0,0.0,0.0,0.0,0.0,0.0,0.0,0.0,0.0,0.0,0.0,0.0,0.0,0.0,0.0,0.0,0.0,-3.6148,-3.632,-3.7123,-3.7683,-3.7888,-3.8652,-3.8795,-3.8246,-3.8354,-3.8023,-3.7359,-3.7435,-3.751,-3.751,-3.751,-3.751,-3.751,-3.751,-3.751,-3.751,-3.751,-3.8286,-3.9503,-3.9503,-4.0372,-4.1588,-4.1588,0.0,0.0,0.0,0.0,0.0,0.0,0.0,-4.1652,-4.2015,-4.2868,-4.3769,-4.4101,-4.4986,-4.5807,-4.5807,-4.5807,-4.5807,-4.5807,-4.5807,-4.5954,-4.6521,-4.6709,-4.6817,-4.6857,-4.6554,-4.6298,0.0,0.0,0.0,0.0,0.0,0.0,0.0,0.0,0.0,0.0,0.0,0.0,0.0,0.0,0.0,0.0,-4.013,-3.9847,-4.004,-3.936,-3.9072,-3.9282,-3.8962,-3.8876,-3.8996,-3.9121,-3.9272,-3.9528,-3.9772,-3.9952,-4.0011,-4.0087,-4.0096,-4.0096,-4.0096,-4.0096,-4.0096,-4.0096,-4.0096,-4.0087,-3.9884,-3.9755,-3.9677,0.0,0.0,0.0,0.0,0.0,0.0,0.0,0.0,0.0,0.0,0.0,0.0,0.0,0.0,0.0,0.0,0.0,0.0,0.0,0.0,0.0,-3.6723,-3.7561,-3.8029,-3.806,-3.8858,-3.8952,-3.8261,-3.84,-3.816,-3.751,-3.751,-3.751,-3.751,-3.751,-3.751,-3.751,-3.751,-3.751,-3.7555,-3.7666,-3.8457,-3.9612,-3.9739,-4.0563,-4.1687,-4.1687,-4.1654,-4.167,-4.167,0.0,0.0,0.0,0.0,-4.1715,-4.2315,-4.2995,-4.364,-4.4211,-4.4986,-4.5649,-4.5776,-4.5807,-4.5807,-4.5807,-4.5807,-4.5807,-4.5807,-4.5916,-4.6096,-4.6207,-4.6207,0.0,0.0,0.0,0.0,0.0,0.0,0.0,0.0,0.0,0.0,0.0,0.0,0.0,0.0,0.0,0.0,-3.9902,-3.9198,-3.8857,-3.8972,-3.847,-3.8323,-3.8548,-3.856,-3.8699,-3.8914,-3.8969,-3.9175,-3.9475,-3.972,-3.9849,-3.9901,-4.0037,-4.0096,-4.0096,-4.0096,-4.0096,-4.0096,-4.0096,-4.0096,-4.0087,-3.9807,-3.9703,-3.9651,0.0,0.0,0.0,0.0,0.0,0.0,0.0,0.0,0.0,0.0,-3.5326,-3.5474,0.0,0.0,0.0,0.0,0.0,0.0,0.0,0.0,0.0,-3.6969,-3.7639,-3.8091,-3.8246,-3.8952,-3.9031,-3.8446,-3.8477,-3.816,-3.751,-3.751,-3.751,-3.751,-3.751,-3.751,-3.751,-3.751,-3.7569,-3.7735,-3.8368,-3.9145,-4.0,-4.0654,-4.1342,-4.2045,-4.2045,-4.1964,-4.1866,-4.1866,-4.1752,0.0,0.0,0.0,-4.1604,-4.1715,-4.2252,-4.2837,-4.2932,-4.3895,-4.5017,-4.5649,-4.5807,-4.5807,-4.5807,-4.5807,-4.5807,0.0,-4.5807,-4.5859,-4.588,0.0,0.0,0.0,0.0,0.0,0.0,0.0,0.0,0.0,0.0,0.0,0.0,0.0,0.0,0.0,0.0,0.0,-3.8876,-3.8357,-3.8078,-3.8062,-3.8155,-3.8237,-3.825,-3.8476,-3.8616,-3.8644,-3.8903,-3.9121,-3.9325,-3.9484,-3.9668,-3.9901,-4.0037,-4.0096,-4.0096,-4.0096,-4.0096,-4.0096,-4.0096,-4.0096,-4.0087,-3.9807,-3.9703,-3.9651,0.0,0.0,0.0,0.0,0.0,0.0,0.0,0.0,0.0,0.0,0.0,-3.5797,0.0,0.0,0.0,0.0,0.0,0.0,0.0,0.0,0.0,-3.7089,-3.7493,-3.7757,-3.7848,-3.8147,-3.8194,-3.7938,-3.7938,-3.778,-3.751,-3.751,-3.751,-3.751,-3.751,-3.751,-3.751,-3.7599,-3.7658,-3.7764,-3.8599,-3.9345,-4.0078,-4.0829,-4.1533,-4.2109,-4.2109,-4.2061,-4.2012,-4.2012,-4.1899,-4.1784,-4.1784,0.0,0.0,0.0,-4.211,-4.2774,-4.3169,-4.3706,-4.4322,-4.5017,-4.5191,-4.5302,-4.5713,-4.5698,-4.5625,-4.5625,-4.5552,-4.5515,0.0,0.0,0.0,0.0,0.0,0.0,0.0,0.0,0.0,0.0,0.0,0.0,0.0,0.0,0.0,0.0,0.0,-3.8287,-3.7861,-3.7741,-3.77,-3.7788,-3.7876,-3.8008,-3.8209,-3.8323,-3.8476,-3.8711,-3.8914,-3.9121,-3.9299,-3.9448,-3.9606,-3.9798,-3.9935,-4.0037,-4.0096,-4.0096,-4.0096,-4.0096,-4.0096,-4.0096,-4.0087,-3.9807,-3.9703,-3.9651,0.0,0.0,0.0,0.0,0.0,0.0,0.0,0.0,0.0,0.0,0.0,0.0,0.0,0.0,0.0,0.0,0.0,0.0,0.0,0.0,0.0,-3.7284,-3.7435,-3.751,-3.751,-3.751,-3.751,-3.751,-3.751,-3.751,-3.751,-3.751,-3.751,-3.751,-3.751,-3.751,-3.751,-3.7642,-3.7841,-3.8093,-3.8974,-3.9752,-4.0503,-4.1226,-4.1772,-4.2238,-4.2238,-4.2206,-4.2174,-4.2174,-4.2029,-4.1898,-4.1898,-4.1752,0.0,0.0,0.0,-4.2568,-4.3263,-4.3469,-4.3576,-4.4204,-4.4378,-4.4532,-4.5236,0.0,-4.5238,0.0,-4.5294,0.0,0.0,0.0,0.0,0.0,0.0,0.0,0.0,0.0,0.0,0.0,0.0,0.0,0.0,0.0,0.0,0.0,0.0,-3.7714,-3.7165,-3.7329,-3.7464,-3.7583,-3.7671,-3.7847,-3.8107,-3.8209,-3.8448,-3.8805,-3.8914,-3.9067,-3.9299,-3.9405,-3.9537,-3.9703,-3.9849,-3.9977,-4.0096,-4.0096,-4.0096,-4.0096,-4.0096,-4.0096,-4.0104,-4.0008,-3.9988,-3.9969,0.0,0.0,0.0,0.0,0.0,0.0,0.0,0.0,0.0,0.0,0.0,0.0,-3.646,-3.66,-3.6754,-3.6954,-3.6969,0.0,0.0,0.0,0.0,-3.748,-3.748,0.0,-3.751,-3.751,-3.751,-3.751,-3.751,-3.751,-3.751,-3.751,-3.751,-3.751,-3.751,-3.751,-3.751,-3.7642,-3.8187,-3.9006,-3.9861,-4.075,-4.1598,-4.2279,-4.2539,-4.2571,-4.2571,-4.2508,-4.2381,-4.2381,-4.2174,-4.1898,-4.1898,-4.1752,-4.1588,0.0,0.0,0.0,-4.2537,-4.2742,-4.2866,-4.3355,-4.3478,-4.3596,0.0,0.0,-4.444,-4.5079,0.0,0.0,0.0,0.0,0.0,0.0,0.0,0.0,0.0,0.0,0.0,0.0,0.0,0.0,0.0,0.0,0.0,0.0,0.0,-3.7046,-3.6999,-3.715,-3.7224,-3.7224,-3.7537,-3.7759,-3.7905,-3.8221,-3.8516,-3.8805,-3.8805,-3.8969,-3.9299,-3.9299,-3.9441,-3.9703,-3.9849,-3.9977,-4.0096,-4.0096,-4.0096,-4.0096,-4.0096,-4.0096,-4.013,-4.057,-4.0732,-4.0806,0.0,0.0,0.0,0.0,0.0,0.0,0.0,0.0,0.0,0.0,0.0,0.0,0.0,-3.68,-3.6953,-3.7119,-3.7271,0.0,0.0,0.0,0.0,-3.7628,-3.7628,-3.7599,-3.751,-3.751,-3.751,-3.751,-3.751,-3.751,-3.751,-3.751,-3.751,-3.751,-3.751,-3.751,-3.751,-3.773,-3.8291,-3.9083,-4.0043,-4.0903,-4.1677,-4.2327,-4.2894,-4.3298,-4.3298,-4.3589,-4.3881,-4.338,-4.3089,-4.2831,-4.2221,-4.1915,-4.1784,-4.1621,-4.1588,-4.1652,-4.1904,-4.1917,-4.1956,-4.2595,-4.2648,-4.2751,-4.3415,-4.3463,-4.3433,-4.3666,0.0,0.0,0.0,0.0,0.0,0.0,0.0,0.0,0.0,0.0,0.0,0.0,0.0,0.0,0.0,0.0,0.0,0.0,0.0,0.0,-3.68,-3.6984,-3.7089,-3.7194,-3.7314,-3.7567,-3.7905,-3.8221,-3.8516,-3.8805,-3.8805,-3.8985,-3.9299,-3.9299,-3.9405,-3.959,-3.9703,-3.991,-4.0146,-4.0595,-4.0798,-4.0849,-4.1348,-4.1517,-4.1499,-4.151,-4.1519,-4.1498,0.0,0.0,0.0,0.0,0.0,0.0,0.0,0.0,-3.6227,-3.6367,0.0,0.0,0.0,0.0,-3.7165,-3.7359,-3.7494,-3.7612,-3.7759,-3.7759,-3.7759,-3.7759,-3.773,-3.7642,-3.7569,-3.751,-3.751,-3.751,-3.751,-3.751,-3.751,-3.751,-3.751,-3.751,-3.751,-3.751,-3.751,-3.7788,-3.8478,-3.945,-4.0183,-4.1063,-4.2002,-4.2731,-4.3266,-4.3735,-4.3994,-4.4383,-4.4723,-4.4237,-4.3816,-4.3379,-4.2783,-4.2269,-4.1866,-4.167,-4.1588,-4.1588,-4.1588,-4.1456,-4.1415,-4.1834,-4.1807,-4.184,-4.2521,-4.255,-4.252,-4.2736,0.0,0.0,0.0,0.0,0.0,0.0,0.0,0.0,0.0,0.0,0.0,0.0,0.0,0.0,0.0,0.0,0.0,0.0,0.0,0.0,-3.6631,-3.68,-3.6984,-3.7178,-3.7314,-3.7537,-3.7905,-3.8193,-3.8476,-3.8722,-3.8777,-3.8942,-3.9202,-3.9272,-3.9379,-3.9501,-3.9893,-4.0202,-4.0425,-4.0975,-4.1356,-4.1627,-4.21,-4.226,-4.2257,-4.2255,-4.2245,-4.215,0.0,0.0,0.0,0.0,0.0,0.0,0.0,0.0,-3.6336,-3.6662,0.0,0.0,0.0,0.0,0.0,-3.7671,-3.77,-3.7759,-3.7905,-3.7905,-3.7905,-3.7905,0.0,0.0,-3.77,-3.7553,-3.751,-3.751,-3.751,-3.751,-3.751,-3.751,-3.751,-3.751,-3.751,-3.751,-3.751,-3.7788,-3.875,-4.0123,-4.0393,-4.1355,-4.2683,-4.3427,-4.3719,-4.3832,-4.4561,-4.4836,-4.4852,-4.4836,-4.4252,-4.3524,-4.3476,-4.275,-4.1866,-4.167,-4.1588,-4.1588,0.0,0.0,0.0,-4.1135,-4.095,0.0,-4.1452,0.0,-4.1755,-4.2417,0.0,0.0,0.0,0.0,0.0,0.0,0.0,0.0,0.0,0.0,0.0,0.0,0.0,0.0,0.0,0.0,0.0,0.0,0.0,-3.6274,-3.6492,-3.6631,-3.6831,-3.7194,-3.7508,-3.7759,-3.7905,-3.8107,-3.8335,-3.8588,-3.8738,-3.8887,-3.8996,-3.9202,-3.9379,-3.9534,-4.0428,-4.0879,-4.1038,-4.1202,-4.1694,-4.232,-4.2337,-4.2291,-4.223,-4.2814,-4.2907,-4.2791,0.0,0.0,0.0,0.0,0.0,-3.6242,-3.6523,-3.6554,-3.6662,0.0,0.0,0.0,-3.7178,-3.7419,-3.7642,-3.7817,-3.7847,-3.7934,-3.8123,-3.8107,-3.8107,-3.8107,-3.8078,-3.7934,-3.77,-3.7671,-3.7599,-3.751,-3.751,-3.751,-3.751,-3.751,-3.751,-3.751,-3.751,-3.751,-3.751,-3.7788,-3.875,-4.0123,-4.0393,-4.1355,-4.2683,-4.3427,-4.4043,-4.4593,-4.5273,-4.5856,-4.6228,-4.5694,-4.5029,-4.422,-4.2912,-4.2204,-4.1866,-4.167,-4.1588,-4.1588,-4.1588,0.0,0.0,0.0,0.0,0.0,0.0,0.0,0.0,0.0,0.0,0.0,0.0,0.0,0.0,0.0,0.0,0.0,0.0,0.0,0.0,0.0,0.0,0.0,0.0,0.0,0.0,0.0,-3.6879,-3.6211,-3.6274,-3.6569,-3.6816,-3.706,-3.7314,-3.761,-3.7905,-3.8107,-3.8335,-3.8588,-3.8738,-3.8887,-3.8996,-3.9202,-3.9325,-3.9402,-4.0284,-4.0965,-4.1565,-4.2456,-4.2902,-4.3139,-4.3597,-4.3715,-4.3693,-4.3671,-4.361,-4.3539,0.0,0.0,0.0,0.0,0.0,-3.6461,-3.6662,-3.6754,-3.6892,0.0,0.0,0.0,-3.7814,-3.837,-3.877,-3.8873,-3.8614,-3.8541,-3.873,-3.8456,-3.8278,-3.8278,-3.8237,-3.8049,-3.7788,-3.773,-3.7612,-3.751,-3.751,-3.751,-3.751,-3.751,-3.751,-3.751,-3.751,-3.751,-3.751,-3.7788,-3.875,-4.0123,-4.0393,-4.1355,-4.2699,-4.3767,-4.4431,-4.4917,-4.5905,-4.6536,-4.6811,-4.639,-4.5597,-4.4527,-4.304,-4.2301,-4.1931,-4.167,-4.1588,-4.1588,-4.1588,-4.1355,-4.1117,-4.1117,0.0,0.0,-4.0489,-4.0489,0.0,0.0,0.0,0.0,0.0,0.0,0.0,0.0,0.0,0.0,0.0,0.0,0.0,0.0,0.0,0.0,0.0,0.0,0.0,-3.7464,-3.6565,-3.6038,-3.6196,-3.6523,-3.68,-3.6984,-3.721,-3.7492,-3.7817,-3.7992,-3.8193,-3.8436,-3.8628,-3.8794,-3.8914,-3.9094,-3.9384,-3.9812,-4.0679,-4.1466,-4.2227,-4.3284,-4.3698,-4.3749,-4.4085,-4.4184,-4.4126,-4.3956,-4.3793,-4.3645,0.0,0.0,-3.6211,-3.6242,-3.6492,-3.6708,-3.6754,-3.6923,-3.7106,0.0,-3.7427,-3.7877,-3.8874,-3.9647,-4.0184,-4.0319,-3.9707,-3.9441,-3.959,-3.8926,-3.8521,-3.8521,-3.8327,-3.8107,-3.7889,-3.7788,-3.7658,-3.751,-3.751,-3.751,-3.751,-3.751,-3.751,-3.751,-3.751,-3.751,-3.751,-3.7868,-3.883,-4.0123,-4.0393,-4.1355,-4.2748,-4.4237,-4.4787,-4.4965,-4.6374,-4.6876,-4.6911,-4.6795,-4.5888,-4.4641,-4.357,-4.2718,-4.2045,-4.1736,-4.1621,-4.1588,-4.1588,-4.1388,-4.1102,-4.1102,-4.0814,0.0,-4.0489,-4.0489,-4.0489,0.0,0.0,0.0,0.0,0.0,0.0,0.0,0.0,0.0,0.0,0.0,0.0,0.0,0.0,0.0,0.0,-3.7793,-3.7218,-3.6706,-3.6079,-3.5847,-3.6164,-3.6492,-3.6754,-3.6984,-3.7119,-3.7359,-3.77,-3.7847,-3.7992,-3.8209,-3.8476,-3.8655,-3.8805,-3.9024,-3.96,-4.0459,-4.1394,-4.2166,-4.2832,-4.3681,-4.4068,-4.4097,-4.4068,-4.3998,-4.3898,-4.3868,-4.3674,-4.3372,0.0,-3.6179,-3.6305,-3.6554,-3.6662,-3.68,-3.7074,-3.7134,-3.7398,-3.8162,-3.8853,-3.948,-3.9959,-4.0164,-4.0319,-4.0437,-4.0337,-4.0256,-4.0286,-3.9638,-3.9295,-3.9295,-3.8687,-3.8221,-3.7905,-3.7876,-3.773,-3.751,-3.751,-3.751,-3.751,-3.751,-3.751,-3.751,-3.751,-3.751,-3.7541,-3.8424,-3.9278,-4.0123,-4.0393,-4.1355,-4.2748,-4.4237,-4.4787,-4.4965,-4.6374,-4.6876,-4.6795,-4.6212,-4.5467,-4.4641,-4.3734,-4.2815,-4.2093,-4.1882,-4.1736,-4.1588,-4.1588,-4.1423,-4.1239,-4.1135,-4.0916,0.0,-4.0524,-4.0489,-4.0489,0.0,0.0,0.0,0.0,0.0,0.0,0.0,0.0,0.0,0.0,0.0,0.0,0.0,0.0,0.0,0.0,-3.7793,-3.715,-3.6588,-3.6029,-3.5847,-3.6164,-3.6274,-3.6507,-3.6984,-3.703,-3.7271,-3.7716,-3.7847,-3.7992,-3.8209,-3.8476,-3.8655,-3.8821,-3.955,-4.0078,-4.0475,-4.1785,-4.2431,-4.2614,-4.3372,-4.3864,-4.4097,-4.3969,-4.3927,-4.3868,-4.3734,-4.3539,-4.3372,-3.6352,-3.6399,-3.6492,-3.6662,-3.6831,-3.7013,-3.7164,-3.7583,-3.8036,-3.8597,-3.9811,-4.0651,-4.0836,-4.1203,-4.1473,-4.1535,-4.1225,-4.1061,-4.1061,-4.0397,-3.9862,-3.9522,-3.9165,-3.8621,-3.7905,-3.7905,-3.7759,-3.751,-3.751,-3.751,-3.751,-3.751,-3.751,-3.751,-3.751,-3.751,-3.7587,-3.8583,-3.9436,-4.0155,-4.0811,-4.1678,-4.2748,-4.4237,-4.4787,-4.4965,-4.6374,-4.6876,-4.6779,-4.605,-4.5354,-4.4641,-4.3783,-4.2848,-4.2077,-4.1931,-4.1752,-4.1588,-4.1588,-4.1456,-4.1256,-4.1135,-4.095,0.0,0.0,-4.0489,-4.0489,-4.0489,-4.0489,0.0,0.0,0.0,0.0,0.0,0.0,0.0,0.0,0.0,0.0,0.0,0.0,0.0,0.0,-3.733,-3.6686,-3.6043,-3.5802,-3.5816,-3.6085,-3.6164,-3.6399,-3.6831,-3.6938,-3.7151,-3.7449,-3.7743,-3.7963,-3.8049,-3.8379,-3.856,-3.8743,-3.9519,-4.0229,-4.0877,-4.1939,-4.2662,-4.3069,-4.3449,-4.3933,-4.4397,-4.4324,-4.4295,-4.4298,-4.4495,-4.4443,-4.4335,-3.6554,-3.6677,-3.6754,-3.68,-3.7013,-3.7271,-3.7427,-3.8067,-3.874,-3.9223,-4.0777,-4.1817,-4.1832,-4.2539,-4.3007,-4.3007,-4.2391,-4.2017,-4.2017,-4.1207,-4.0464,-3.9943,-3.9622,-3.9011,-3.8113,-3.794,-3.773,-3.751,0.0,0.0,0.0,-3.751,-3.751,-3.751,-3.751,-3.751,-3.7573,-3.8727,-3.9564,-4.0203,-4.136,-4.2116,-4.2748,-4.4091,-4.4707,-4.5048,-4.6459,-4.6961,-4.6848,-4.605,-4.5354,-4.4641,-4.3815,-4.288,-4.2077,-4.198,-4.1768,-4.1588,-4.1588,-4.1489,-4.1323,-4.1169,-4.0984,-4.0768,0.0,0.0,0.0,0.0,0.0,0.0,0.0,0.0,0.0,0.0,0.0,0.0,0.0,0.0,0.0,0.0,0.0,0.0,0.0,-3.6671,-3.6073,-3.5549,-3.5589,-3.5767,-3.6005,-3.6085,-3.6336,-3.6693,-3.6908,-3.7044,-3.7194,-3.7655,-3.7876,-3.7889,-3.8221,-3.8529,-3.8832,-3.9593,-4.0438,-4.1399,-4.2127,-4.2845,-4.3509,-4.3657,-4.4084,-4.4596,-4.4627,-4.474,-4.4892,-4.5299,-4.5371,-4.5227,-3.6723,-3.6831,-3.6984,-3.7134,-3.7164,-3.7458,-3.8225,-3.8581,-3.9333,-4.0903,-4.2365,-4.3315,-4.3412,-4.4107,-4.4544,-4.4544,-4.3881,-4.346,-4.346,-4.2197,-4.145,-4.1369,-3.9989,-3.9133,-3.8878,-3.8107,-3.7658,-3.751,-3.751,0.0,0.0,0.0,-3.751,-3.751,-3.751,-3.751,-3.7619,-3.9283,-4.0012,-4.0235,-4.1862,-4.2522,-4.2683,-4.3524,-4.4334,-4.5261,-4.6678,-4.7183,-4.7035,0.0,-4.5354,-4.4658,-4.3913,-4.2945,-4.2109,-4.2077,-4.1851,-4.1588,-4.1588,-4.1588,-4.1522,-4.1323,-4.1187,-4.0878,-4.0073,0.0,-3.9428,-3.8862,0.0,0.0,-3.8739,0.0,0.0,0.0,0.0,0.0,0.0,0.0,0.0,0.0,0.0,0.0,0.0,0.0,-3.5594,-3.5504,-3.5504,-3.5651,-3.5973,-3.6005,-3.6226,-3.6693,-3.6908,-3.7044,-3.7194,-3.7537,-3.7788,-3.7905,-3.8107,-3.8719,-3.9609,-4.0342,-4.1115,-4.1963,-4.2701,-4.3061,-4.3223,-4.3863,-4.4191,-4.4256,-4.4381,-4.4838,-4.5398,-4.5339,-4.5211,-4.5017,-3.6892,-3.6998,-3.715,-3.7194,-3.763,-3.8129,-3.8597,-3.9602,-4.0858,-4.243,-4.3202,-4.3784,-4.4302,-4.4609,-4.4787,-4.4787,-4.4512,-4.4156,-4.3735,-4.3152,-4.2439,-4.1644,-4.046,-3.9585,-3.9006,-3.8155,-3.7612,-3.751,-3.751,-3.751,0.0,0.0,-3.751,-3.751,-3.751,-3.751,-3.7605,-3.9363,-4.0092,-4.0251,-4.1943,-4.2602,0.0,-4.3427,-4.4253,-4.5114,-4.5701,-4.5912,-4.5782,0.0,-4.4399,0.0,0.0,-4.2607,-4.2109,-4.2109,-4.1851,-4.1588,-4.1588,-4.1588,-4.1555,-4.1357,-4.0923,-4.0398,-3.992,-3.9349,-3.8846,-3.8569,0.0,0.0,0.0,0.0,0.0,0.0,-3.7756,0.0,0.0,0.0,0.0,0.0,0.0,0.0,0.0,0.0,0.0,0.0,0.0,-3.5587,-3.5831,-3.5941,-3.6132,-3.6399,-3.6693,-3.6923,-3.7075,-3.7389,-3.7626,-3.7788,-3.845,-3.9008,-3.9447,-4.0686,-4.1471,-4.1931,-4.2649,-4.3266,-4.3768,-4.4063,-4.4702,-4.5472,-4.5423,-4.5635,-4.606,-4.6306,-4.6287,-4.6087,-3.7386,-3.7351,-3.7347,-3.7506,-3.8129,-3.8802,-3.9412,-4.0906,-4.2365,-4.3412,-4.3961,-4.448,-4.5014,-4.5241,-4.537,-4.537,-4.5192,-4.4852,-4.4318,-4.3913,-4.3249,-4.2228,-4.1107,-4.0135,-3.934,-3.8382,-3.7789,-3.751,-3.751,-3.751,0.0,0.0,-3.751,-3.751,-3.751,-3.751,-3.7589,-3.9125,-3.9916,-4.0219,-4.1733,-4.2424,-4.2683,-4.3523,-4.4236,-4.4804,-4.5,-4.5082,-4.4935,-4.401,-4.3719,0.0,-4.2829,0.0,-4.2109,-4.2109,-4.1851,-4.1588,-4.1588,0.0,0.0,0.0,0.0,0.0,0.0,0.0,0.0,0.0,0.0,0.0,0.0,0.0,-3.7597,-3.7479,0.0,-3.7083,0.0,0.0,0.0,0.0,0.0,0.0,0.0,0.0,0.0,0.0,-3.5504,-3.5554,-3.5688,-3.5894,-3.6068,-3.6211,-3.6523,-3.68,-3.7015,-3.7224,-3.7557,-3.7987,-3.8777,-3.9374,-3.9836,-4.1035,-4.174,-4.2059,-4.279,-4.3486,-4.4101,-4.4461,-4.5277,-4.6224,-4.6236,-4.6318,-4.65,-4.6903,-4.6945,-4.6772,-3.8319,-3.7938,-3.7686,-3.8365,-3.8659,-3.9379,-4.1063,-4.2526,-4.3509,-4.367,-4.4901,-4.5743,-4.5775,-4.6407,-4.6811,-4.6811,-4.618,-4.5759,-4.5743,-4.4464,-4.3686,-4.3638,-4.1996,-4.0749,-4.0076,-3.9023,-3.8144,-3.751,-3.751,-3.751,0.0,0.0,-3.751,-3.751,-3.751,-3.751,-3.7557,-3.8599,-3.9468,-4.0187,-4.1231,-4.2019,-4.2715,0.0,-4.421,-4.4325,-4.5029,0.0,0.0,-4.4042,-4.3719,0.0,0.0,0.0,0.0,0.0,0.0,0.0,0.0,0.0,0.0,-4.1588,0.0,0.0,0.0,0.0,-3.7481,0.0,0.0,-3.6553,-3.6553,-3.6413,-3.6209,-3.6098,-3.5891,0.0,0.0,0.0,0.0,0.0,0.0,0.0,0.0,0.0,0.0,-3.5504,-3.5504,-3.5554,-3.5688,-3.5894,-3.6068,-3.6211,-3.6523,-3.68,-3.7015,-3.715,-3.7705,-3.867,-3.8914,-3.9784,-4.1238,-4.1488,-4.1954,-4.2602,-4.3362,-4.3686,-4.3816,-4.5176,-4.5759,-4.5872,-4.638,-4.6585,-4.6601,-4.6617,-4.6633,-4.6563,-3.9494,-3.9396,-3.924,-3.934,-3.9877,-4.0893,-4.2526,-4.3267,-4.3994,-4.4982,-4.55,-4.5986,-4.6455,-4.673,-4.6876,-4.6876,-4.6649,-4.6309,-4.584,-4.5354,-4.4624,-4.3622,-4.243,-4.1422,-4.0577,-3.9215,-3.8397,-3.816,-3.7731,-3.751,-3.751,-3.751,-3.751,-3.751,-3.751,-3.751,-3.7587,-3.8583,-3.9436,-4.0219,0.0,-4.2392,-4.265,0.0,0.0,-4.3384,-4.3629,-4.371,0.0,-4.315,-4.2958,-4.2926,-4.2683,-4.2365,-4.2109,-4.2109,-4.1851,0.0,0.0,0.0,-4.1478,-4.1035,0.0,0.0,0.0,0.0,0.0,0.0,0.0,0.0,-3.6492,-3.6445,-3.632,-3.6037,-3.5941,-3.5814,0.0,-3.5504,0.0,0.0,0.0,0.0,0.0,0.0,0.0,-3.5504,-3.5504,-3.5537,0.0,-3.5861,-3.6037,-3.6068,-3.6383,-3.6925,-3.7639,-3.7701,-3.8215,-3.9248,-3.9879,-4.0543,-4.1195,-4.1833,-4.2572,-4.3331,-4.3605,-4.4237,-4.5127,-4.5495,-4.5929,-4.6314,-4.6362,-4.6388,-4.6388,-4.6388,-4.6349,-4.6223,-4.0412,-4.0522,-4.0491,-4.029,-4.1197,-4.2318,-4.3412,-4.4075,-4.4771,-4.5678,-4.6261,-4.6763,-4.7232,-4.7491,-4.7556,-4.7297,-4.7281,-4.6973,-4.6228,-4.5885,-4.5172,-4.391,-4.2942,-4.1933,-4.0817,-3.9533,-3.8744,-3.8507,-3.7812,-3.751,-3.751,-3.751,-3.751,-3.751,-3.751,-3.751,-3.7541,-3.8253,-3.9152,-4.0251,0.0,-4.2602,0.0,0.0,-4.2837,-4.2899,0.0,-4.2899,-4.2868,-4.2665,-4.2602,-4.2602,-4.2602,-4.2365,-4.2109,-4.2109,-4.1851,-4.1588,-4.1588,-4.1415,0.0,-4.0704,-3.9803,0.0,-3.8263,0.0,-3.677,0.0,0.0,0.0,-3.6492,-3.6492,-3.6398,-3.6068,-3.6005,-3.5878,0.0,-3.5504,0.0,0.0,0.0,-3.5504,0.0,0.0,-3.5504,-3.5504,-3.5504,-3.5504,0.0,0.0,-3.5941,-3.6005,-3.6487,-3.7109,-3.7888,-3.82,-3.8842,-3.9787,-4.0484,-4.1008,-4.1422,-4.2286,-4.2993,-4.3557,-4.4057,-4.4782,-4.562,-4.5808,-4.6092,-4.6458,-4.6314,-4.6207,-4.6207,-4.6207,-4.608,-4.5844,-4.1052,-4.1369,-4.1464,-4.1276,-4.251,-4.3573,-4.3767,-4.4949,-4.5807,-4.5856,-4.7119,-4.801,-4.801,-4.8557,-4.867,-4.8074,-4.7977,-4.7653,-4.6959,-4.614,-4.5295,-4.4505,-4.3515,-4.2296,-4.0881,-3.9977,-3.9187,-3.8555,-3.7828,-3.751,-3.751,-3.751,-3.751,-3.751,-3.751,-3.751,-3.751,-3.7642,-3.8647,-4.0235,-4.1911,-4.257,-4.2602,-4.2602,-4.2728,-4.2899,-4.2899,-4.2899,-4.2868,-4.2665,-4.2602,-4.2602,-4.2602,-4.2365,-4.2109,-4.2109,-4.1851,-4.1573,-4.1541,-4.1083,-4.0577,-4.0514,0.0,0.0,0.0,0.0,-3.6938,0.0,0.0,0.0,0.0,-3.6492,-3.6398,-3.6068,-3.5973,-3.5861,-3.5537,-3.5504,-3.5504,0.0,0.0,-3.5504,-3.5504,-3.5504,-3.5504,-3.5504,-3.5504,-3.5504,0.0,0.0,0.0,-3.6051,-3.6787,-3.7396,-3.7807,-3.8635,-3.9498,-4.0334,-4.0689,-4.1246,-4.1978,-4.2811,-4.3228,-4.3372,-4.4717,-4.5309,-4.5389,-4.6026,-4.6298,-4.6278,-4.6132,-4.6076,-4.6076,-4.6076,-4.5807,-4.5478,-4.2201,-4.2701,-4.3105,-4.3041,-4.338,-4.401,-4.5111,-4.5581,-4.6002,-4.6536,-4.7427,-4.801,-4.801,-4.8171,-4.8204,-4.8026,-4.7508,-4.7087,-4.6892,-4.6542,-4.5759,-4.4403,-4.396,-4.2994,-4.1417,-4.0151,-3.9424,-3.925,-3.8049,-3.751,-3.751,-3.751,-3.751,-3.751,-3.751,-3.751,-3.751,-3.7642,-3.8706,-4.0339,-4.1423,-4.2164,0.0,0.0,-4.2634,-4.2665,-4.2665,-4.2665,-4.2665,-4.2634,-4.2602,-4.2602,-4.2602,-4.2365,-4.2109,-4.2109,-4.1851,-4.1478,-4.0988,-4.0735,-4.0356,-3.9313,-3.8776,-3.8304,0.0,0.0,0.0,0.0,0.0,0.0,0.0,0.0,-3.6398,-3.6068,-3.5797,-3.5587,-3.5504,-3.5504,-3.5504,-3.5504,0.0,0.0,-3.5504,-3.5504,-3.5504,-3.5504,-3.5504,0.0,0.0,0.0,0.0,-3.6734,-3.7031,-3.7856,-3.9249,-3.9648,-4.0233,-4.1056,-4.1287,-4.1815,-4.2646,-4.2854,-4.3623,-4.4781,-4.5133,-4.5581,-4.6058,-4.6108,-4.6168,-4.6132,-4.5952,-4.5771,-4.5662,-4.5662,-4.5478,-4.5257,-4.3072,-4.3686,-4.4269,-4.4577,-4.4625,-4.4901,-4.5678,-4.6067,-4.6423,-4.6828,-4.754,-4.801,-4.801,-4.8269,-4.8333,-4.8042,-4.7621,-4.7198,-4.6789,-4.6598,-4.5763,-4.4234,-4.3999,-4.3162,-4.162,-4.0214,-3.9503,-3.9503,-3.8174,-3.751,-3.751,-3.751,-3.751,-3.751,-3.751,-3.751,-3.7526,-3.8034,-3.8832,-3.9796,-4.073,0.0,0.0,-4.1695,-4.1695,-4.1695,-4.1695,-4.1905,-4.2164,-4.2164,-4.1954,-4.1664,-4.1619,-4.1385,-4.1166,-4.1103,-4.0912,-4.0593,-4.0214,-3.9914,-3.9503,-3.8713,-3.8286,-3.7924,-3.7348,-3.7105,-3.6938,0.0,0.0,0.0,0.0,0.0,-3.6398,-3.6068,-3.5716,-3.5504,-3.5504,-3.5504,-3.5504,-3.5504,-3.5504,0.0,-3.5504,-3.5504,-3.5504,-3.5504,-3.5504,0.0,0.0,0.0,0.0,-3.6993,-3.7621,-3.8524,-3.9676,-4.0168,-4.0678,-4.1221,-4.172,-4.2234,-4.2847,-4.34,-4.4183,-4.505,-4.5384,-4.575,-4.608,-4.5916,-4.5844,-4.5807,-4.5625,-4.5389,-4.5241,-4.5241,-4.5167,-4.5039,-4.3848,-4.4431,-4.5111,-4.5694,-4.5888,-4.5937,0.0,-4.6488,0.0,-4.6876,0.0,-4.801,-4.801,-4.8528,-4.8605,-4.8058,-4.7929,-4.7518,-4.67,-4.6343,-4.5543,-4.4081,-4.3733,-4.2932,-4.162,-4.0214,-3.9503,-3.9503,-3.8174,-3.751,-3.751,-3.751,-3.751,-3.751,-3.751,-3.751,-3.7541,-3.8487,-3.891,-3.9067,-4.0006,-4.0415,-4.0496,-4.0496,-4.0496,-4.0496,-4.0496,-4.0931,-4.1466,-4.1466,-4.1015,-4.0437,-4.0319,-4.0151,-3.9952,-3.983,-3.9659,-3.9487,-3.9392,-3.895,-3.8491,-3.8397,-3.7923,-3.7435,-3.7254,-3.7105,-3.6938,-3.6723,-3.66,-3.6492,0.0,0.0,-3.6336,-3.6037,-3.5716,-3.5504,-3.5504,-3.5504,-3.5504,-3.5504,-3.5504,0.0,0.0,0.0,0.0,0.0,0.0,0.0,0.0,0.0,0.0,0.0,-3.8345,0.0,-3.9579,0.0,-4.0882,-4.1083,-4.1941,-4.2488,-4.2784,-4.4062,-4.4693,-4.4784,-4.5451,-4.5735,-4.5698,-4.5515,-4.5478,-4.5442,-4.5257,-4.5039,-4.4874,-4.4836,-4.4836,-4.4836,-4.4642,-4.516,-4.5662,-4.5791,-4.6293,-4.6698,-4.6698,-4.6811,-4.6876,-4.6876,-4.754,-4.801,-4.801,-4.8107,-4.8139,-4.8026,-4.7443,-4.7022,-4.6858,-4.5998,-4.5101,-4.4285,-4.3373,-4.2457,-4.1604,-4.0214,-3.9503,-3.9503,-3.8174,-3.751,-3.751,-3.751,-3.751,-3.751,-3.751,-3.751,-3.7526,-3.7916,0.0,-3.9035,-3.9489,-4.0024,-4.0496,-4.0496,-4.0496,-4.0496,-4.0496,-4.0577,-4.0675,-4.0675,-4.052,-4.0319,-4.0305,-4.0076,-3.983,-3.9799,-3.9659,-3.9376,-3.8839,-3.8602,-3.8381,-3.7796,-3.7605,-3.7435,-3.7254,-3.7105,-3.6938,-3.6723,-3.66,-3.6492,-3.6492,0.0,0.0,0.0,0.0,0.0,0.0,-3.5504,-3.5504,-3.5504,-3.5504,-3.5504,0.0,0.0,0.0,0.0,0.0,0.0,0.0,0.0,0.0,0.0,0.0,0.0,0.0,0.0,0.0,-4.0848,-4.1738,-4.2466,-4.3079,-4.3841,-4.4528,-4.5106,-4.5231,-4.5294,-4.5294,-4.5257,-4.5257,-4.522,-4.5039,-4.4911,-4.4874,-4.4549,-4.4396,-4.4396,-4.5841,-4.6147,-4.6358,-4.6358,-4.6649,0.0,0.0,-4.6876,-4.6876,-4.6876,-4.72,-4.7427,-4.7427,-4.7427,-4.7427,-4.7427,-4.7087,-4.6696,-4.6272,-4.5642,-4.4779,-4.3625,-4.3022,-4.2173,-4.1099,-4.004,-3.9329,-3.8981,-3.797,-3.751,-3.751,-3.751,-3.751,-3.751,-3.751,-3.751,0.0,0.0,0.0,-3.8446,-3.8795,-3.912,-3.9412,-3.9412,-3.9412,-3.9412,-3.9412,-3.9383,-3.9344,-3.9699,-3.9556,-3.9165,-3.9017,-3.8838,-3.8688,-3.8628,-3.8537,-3.8381,-3.8065,-3.7986,-3.7891,-3.7589,-3.7435,-3.73,-3.7119,-3.6984,-3.68,-3.6631,-3.6538,-3.646,-3.6352,-3.6163,0.0,0.0,0.0,0.0,0.0,0.0,-3.5504,-3.5504,-3.5407,-3.5326,-3.5326,0.0,0.0,0.0,0.0,0.0,0.0,0.0,0.0,0.0,0.0,0.0,0.0,0.0,0.0,-4.1326,-4.2144,-4.2898,-4.3624,-4.4341,-4.4855,-4.5182,-4.5182,-4.5182,-4.5182,-4.5092,-4.4964,-4.4867,-4.4663,-4.4572,-4.4534,-4.4243,-4.4127,-4.4127,-4.6848,-4.6876,-4.6876,-4.6876,-4.6876,-4.6876,-4.6876,-4.6876,-4.6876,-4.6876,-4.6876,-4.6876,-4.6876,-4.6876,-4.6876,-4.6876,-4.6747,-4.6389,-4.5685,-4.5193,-4.4315,-4.3014,-4.2704,-4.1906,-4.0625,-3.9882,-3.9171,-3.8507,-3.7812,-3.751,0.0,-3.751,0.0,0.0,0.0,0.0,0.0,0.0,-3.7905,-3.7934,-3.825,-3.8391,-3.8391,-3.8391,-3.8363,-3.8379,-3.8379,-3.825,-3.8216,-3.8717,-3.8528,-3.8049,-3.7788,-3.7671,-3.7642,-3.7539,-3.751,-3.751,-3.751,-3.748,-3.7435,-3.7435,-3.7315,-3.7119,-3.6969,-3.68,-3.6662,-3.6523,-3.6492,-3.6445,-3.6242,-3.6085,0.0,0.0,0.0,0.0,0.0,0.0,-3.5439,-3.5439,-3.5261,-3.5148,-3.5148,0.0,0.0,0.0,0.0,-3.5504,-3.5504,-3.6716,0.0,0.0,0.0,-4.0031,-4.0242,0.0,-4.0913,0.0,-4.2478,-4.3231,-4.4013,-4.4728,-4.5055,-4.5055,-4.5055,-4.5055,-4.4996,-4.4852,-4.4648,-4.4473,-4.4281,-4.4243,-4.4205,-4.4026,-4.3949,-4.3949,-4.6945,-4.6876,0.0,0.0,0.0,0.0,-4.6876,-4.6876,-4.6876,-4.6876,-4.6876,-4.6876,-4.6876,-4.6876,-4.6876,-4.6876,-4.6277,-4.5872,-4.5774,-4.4444,-4.3522,-4.3181,-4.2393,-4.1546,-4.0625,-3.9882,-3.9171,-3.8507,-3.7812,-3.751,0.0,0.0,0.0,0.0,0.0,0.0,0.0,-3.7788,-3.7905,-3.7934,-3.825,-3.8391,-3.8391,-3.8391,-3.8307,-3.8237,-3.8237,-3.8078,-3.7921,-3.7868,-3.7793,-3.773,-3.77,-3.7628,-3.751,-3.751,-3.751,-3.751,-3.751,-3.7359,-3.7224,-3.7224,-3.7119,-3.6969,-3.6754,-3.6723,-3.6662,-3.6523,-3.6492,-3.6445,-3.6242,-3.6085,-3.5941,0.0,0.0,0.0,0.0,0.0,-3.5213,-3.5213,-3.5034,-3.4935,-3.4935,-3.4935,0.0,0.0,-3.5294,-3.5504,-3.5504,-3.6716,0.0,-3.7439,0.0,-3.9839,-4.0031,-4.0242,0.0,-4.1637,-4.2315,-4.2977,-4.3661,-4.4355,-4.4663,-4.4663,-4.4663,-4.4549,-4.4396,-4.4358,-4.4243,-4.4065,-4.4026,-4.4026,-4.3988,-4.3793,-4.3729,-4.3675,0.0,0.0,0.0,0.0,0.0,0.0,0.0,-4.6876,-4.673,-4.6293,-4.6617,-4.6876,-4.6876,-4.6488,-4.6228,-4.6228,-4.5597,-4.5014,-4.4577,-4.3896,-4.3266,-4.2719,-4.1773,-4.0896,-4.015,-3.9297,-3.857,0.0,0.0,0.0,0.0,0.0,0.0,0.0,0.0,-3.751,-3.751,-3.77,-3.7788,-3.7788,-3.802,-3.8107,-3.8107,-3.8107,-3.8078,-3.802,-3.802,-3.7905,-3.7679,-3.7221,-3.7335,-3.7671,-3.7628,-3.7539,-3.751,-3.751,-3.751,-3.751,-3.751,-3.7359,-3.7194,-3.7194,-3.7029,-3.68,-3.6723,-3.6631,-3.6569,-3.6523,-3.6383,-3.6274,-3.6116,-3.5926,-3.5767,0.0,0.0,0.0,0.0,0.0,0.0,-3.5034,-3.4883,-3.4783,-3.4783,0.0,0.0,0.0,0.0,-3.5505,-3.5892,-3.6858,0.0,-3.7988,0.0,-3.9732,-3.9803,-4.0031,-4.0685,-4.1824,-4.223,-4.2993,-4.4036,-4.4312,-4.4358,-4.4243,-4.4243,-4.4205,-4.4127,-4.4127,-4.405,-4.3988,-4.3871,-4.3832,-4.3793,-4.3557,-4.3463,-4.3423,-4.7202,0.0,-4.6637,0.0,-4.6407,-4.6261,-4.6261,-4.6261,-4.6083,-4.5565,-4.5953,-4.6261,-4.6261,-4.5807,-4.55,-4.55,-4.4868,-4.4253,-4.3735,-4.3412,-4.2993,-4.2429,-4.1469,0.0,-3.9815,-3.8978,-3.822,-3.751,-3.751,0.0,0.0,0.0,0.0,0.0,-3.751,-3.751,-3.751,-3.7642,-3.77,-3.77,-3.7847,-3.7905,-3.7905,-3.7905,-3.7876,-3.7847,-3.7847,-3.7632,-3.7232,-3.6708,-3.6769,-3.7009,-3.6922,-3.6893,-3.6893,-3.6893,-3.6893,-3.6864,-3.6835,-3.6672,-3.6523,-3.6463,-3.6425,-3.6368,-3.6368,-3.643,-3.6492,-3.6414,-3.6305,-3.6148,-3.5958,-3.5799,-3.5671,-3.5537,0.0,0.0,0.0,-3.5129,0.0,-3.4883,-3.4731,-3.4597,-3.4597,-3.4597,0.0,0.0,0.0,0.0,0.0,0.0,0.0,0.0,0.0,0.0,0.0,-3.9839,-4.0537,-4.1696,-4.2041,-4.2801,-4.3915,-4.4113,-4.4127,-4.3988,-4.3988,-4.3988,-4.391,-4.391,-4.3871,-4.3778,-4.3636,-4.3596,-4.3557,-4.3384,-4.325,-4.321,-4.7138,-4.6597,-4.6041,-4.5857,-4.5273,-4.482,-4.482,-4.482,-4.4804,-4.4804,-4.4804,-4.482,-4.482,-4.4804,-4.4804,-4.4804,-4.414,-4.3719,-4.3719,-4.3007,-4.2556,0.0,0.0,-4.0843,-3.9815,-3.9084,-3.8308,-3.751,0.0,0.0,-3.751,0.0,-3.751,-3.751,-3.751,-3.751,-3.751,-3.7642,-3.77,-3.77,-3.7847,-3.7905,-3.7905,-3.7905,-3.7817,-3.77,-3.77,-3.7139,-3.6408,-3.6408,-3.5979,-3.5438,-3.5426,-3.5426,-3.5426,-3.5426,-3.5426,-3.5398,-3.5257,-3.5099,-3.4896,-3.4767,-3.5147,-3.5521,-3.5521,-3.6014,-3.6445,-3.6242,-3.6196,-3.6101,-3.5752,-3.5688,-3.5671,-3.5537,0.0,0.0,0.0,0.0,0.0,-3.4698,-3.4515,-3.4414,-3.4414,-3.4414,0.0,0.0,0.0,0.0,0.0,0.0,0.0,-3.8362,-3.905,0.0,-3.9681,-3.9681,-4.0136,-4.1028,-4.168,-4.2348,-4.3016,-4.3684,-4.3988,-4.3988,-4.3988,-4.3871,-4.369,-4.369,-4.3557,-4.329,-4.329,-4.329,-4.329,-4.329,-4.3155,-4.2981,-4.6011,-4.5669,-4.5326,-4.5293,-4.4983,-4.4787,-4.4787,-4.4787,-4.4609,-4.4123,-4.4059,-4.3864,-4.3379,-4.3767,-4.4059,0.0,-4.3395,-4.2942,0.0,-4.2732,-4.2392,-4.1876,-4.1058,-4.0212,-3.9399,-3.8487,-3.7894,-3.7658,0.0,0.0,0.0,-3.6753,-3.6516,-3.6058,-3.6058,-3.6058,-3.6087,-3.6115,-3.6128,-3.6175,-3.6679,-3.6869,-3.6869,-3.6869,-3.684,-3.6748,-3.6302,-3.5928,-3.5647,-3.5142,-3.4826,-3.4557,-3.4115,-3.462,-3.5394,-3.5394,-3.5394,-3.5366,-3.5241,-3.5039,-3.488,-3.4736,-3.4776,-3.4828,-3.4828,-3.5352,-3.5768,-3.5554,-3.5796,-3.599,-3.5752,-3.5621,-3.5554,-3.5504,-3.5326,0.0,0.0,0.0,-3.4664,-3.4515,-3.4448,-3.4414,0.0,-3.4414,0.0,0.0,0.0,0.0,0.0,0.0,0.0,0.0,-3.9058,0.0,-3.9481,-3.9481,-3.9847,-4.0596,-4.0939,-4.1707,-4.281,-4.3037,-4.3238,-4.3542,-4.3542,-4.3503,-4.3423,-4.3423,-4.3384,-4.329,-4.3155,-4.3115,-4.3076,-4.293,-4.285,-4.2809,-4.5447,-4.5141,-4.477,-4.4658,-4.4318,-4.4059,-4.3978,-4.3978,-4.3816,-4.3331,-4.3282,-4.3104,-4.2651,-4.3007,0.0,-4.3282,-4.2861,-4.2602,-4.2602,-4.2344,-4.2035,-4.1628,-4.0568,-3.9736,-3.9224,0.0,0.0,-3.77,-3.73,-3.6864,-3.6393,-3.6124,-3.5805,-3.5394,-3.5394,-3.5394,-3.5394,-3.5394,-3.5394,-3.5426,-3.5868,-3.6026,-3.6026,-3.6026,-3.6026,-3.5979,-3.5552,-3.5205,-3.4905,-3.4446,-3.4115,-3.3846,-3.3435,-3.3893,-3.4604,-3.4604,-3.4577,-3.451,-3.4372,-3.4188,-3.3988,-3.3875,-3.3962,-3.4166,-3.4443,-3.4769,-3.5032,-3.5095,-3.5321,-3.5528,-3.5608,-3.5554,-3.5472,-3.5392,-3.5213,-3.5049,-3.4835,0.0,0.0,0.0,0.0,0.0,0.0,-3.4632,0.0,0.0,0.0,0.0,0.0,0.0,0.0,-3.8965,-3.898,0.0,-3.9301,-3.9301,-3.9546,-4.0038,-4.0424,-4.1152,-4.2204,-4.2204,-4.2488,-4.297,-4.2837,-4.2932,-4.317,-4.309,-4.309,-4.305,-4.2915,-4.2875,-4.2875,-4.2729,-4.2648,-4.2581,-4.5265,-4.4869,0.0,0.0,-4.3387,0.0,-4.2665,-4.2634,-4.2634,-4.2602,-4.2554,-4.2522,-4.2522,-4.2473,-4.2457,-4.2457,0.0,0.0,0.0,-4.1889,-4.1498,-4.1466,-4.0202,0.0,-3.9143,-3.8531,-3.8049,-3.77,-3.6856,-3.6406,-3.6342,-3.5631,-3.53,-3.5252,-3.5252,-3.5252,-3.5252,-3.5252,-3.5252,-3.5252,-3.53,-3.5315,-3.5315,-3.5315,-3.5315,-3.5315,-3.5268,-3.481,-3.4225,-3.4225,-3.3814,-3.3309,-3.3309,-3.3309,-3.3309,-3.3309,-3.3203,-3.3069,-3.2939,-3.2746,-3.2578,-3.2425,-3.2875,-3.3506,-3.4212,-3.4235,-3.4286,-3.4775,-3.4742,-3.4781,-3.5342,-3.5429,-3.5379,-3.5213,-3.5034,-3.4835,-3.4731,0.0,0.0,0.0,0.0,0.0,0.0,-3.4994,-3.5421,0.0,0.0,0.0,0.0,0.0,-3.8011,-3.8767,-3.8797,-3.887,-3.9068,-3.9068,-3.9177,-3.9352,-4.0001,-4.0644,-4.1272,-4.1272,-4.163,-4.2297,-4.2034,-4.2273,-4.2881,-4.2695,-4.2659,-4.2688,-4.2688,-4.2688,-4.2688,-4.2648,-4.2541,-4.2392,0.0,0.0,-4.3636,-4.3544,-4.3274,-4.3007,-4.2852,-4.2837,-4.2759,-4.2634,-4.2148,-4.1824,-4.1824,-4.1322,-4.0998,-4.0998,-4.15,-4.1824,-4.1824,-4.1144,-4.0513,-4.0024,-3.9684,-3.9217,-3.8594,-3.8346,-3.8078,-3.7847,-3.6969,-3.6292,-3.5784,-3.4944,-3.4288,-3.3799,-3.3799,-3.3799,-3.3799,-3.3799,-3.3799,-3.3846,-3.4352,-3.4557,-3.4557,-3.4557,-3.4557,-3.4478,-3.3972,-3.3672,-3.3546,-3.3546,-3.3435,-3.3309,-3.3309,-3.3309,-3.3309,-3.3309,-3.3203,-3.3069,-3.2939,-3.2746,-3.2578,-3.2425,-3.2521,-3.2675,-3.2844,-3.3176,-3.3446,-3.3482,-3.3743,-3.4165,-3.4655,-3.4758,-3.4859,-3.5139,-3.5034,-3.4835,-3.4731,-3.4515,0.0,0.0,-3.4414,-3.4414,-3.4414,-3.4994,-3.5595,0.0,0.0,0.0,0.0,0.0,-3.8206,-3.8538,-3.859,-3.8649,-3.887,-3.887,-3.8907,-3.8943,-3.9106,-3.9535,-4.0186,-4.0186,-4.0541,-4.1187,-4.1109,-4.144,-4.1991,-4.1951,-4.2246,-4.2688,-4.2541,-4.2474,-4.2474,-4.2284,-4.2201,-4.2175,-4.3598,-4.3539,-4.3462,-4.3402,-4.3048,-4.2668,-4.25,-4.2225,-4.1999,-4.1862,-4.149,-4.12,-4.12,-4.0783,-4.0496,-4.0496,-4.0883,-4.111,-4.111,-4.0445,-3.9865,-3.9522,-3.9197,-3.8796,-3.8408,-3.8323,-3.8032,-3.7539,-3.6662,-3.5876,-3.519,-3.4324,-3.3747,-3.3372,-3.3335,-3.3309,-3.3309,-3.3309,-3.3309,-3.3324,-3.3704,-3.383,-3.383,-3.383,-3.383,-3.3799,-3.3435,-3.3309,-3.3309,-3.3309,-3.3309,-3.3309,-3.3309,-3.3309,-3.3309,-3.3309,-3.3203,-3.3069,-3.2939,-3.2746,-3.2578,-3.2425,-3.2398,-3.2398,-3.2398,-3.2522,-3.2719,-3.2951,-3.311,-3.3472,-3.4339,-3.4503,-3.4633,-3.4996,-3.4968,-3.4835,-3.4582,-3.4481,0.0,-3.4414,-3.4414,-3.453,-3.482,-3.543,-3.6054,-3.6722,0.0,0.0,-3.8188,-3.8202,-3.824,-3.8366,-3.8366,-3.8464,-3.8649,-3.8745,-3.8782,-3.8782,-3.8782,-3.8974,-3.9342,-3.9342,-3.9696,-4.033,-4.0238,-4.0568,-4.1146,-4.1037,-4.1188,-4.151,-4.1405,-4.1365,-4.1324,-4.1218,-4.1192,-4.1192,-4.3433,-4.3416,-4.337,-4.3135,-4.2578,-4.2107,-4.1898,-4.1393,-4.1033,-4.1003,-4.0756,-4.057,-4.057,-4.0385,-4.0261,-4.0261,-4.0261,-4.028,-4.0335,-3.9716,-3.9343,-3.9343,-3.8732,-3.8391,-3.8391,-3.8391,-3.7979,-3.7129,-3.6268,-3.5481,-3.4734,-3.3899,-3.3529,-3.3529,-3.3398,-3.3361,-3.3319,-3.3319,-3.3335,-3.3309,-3.3309,-3.3309,-3.3309,-3.3309,-3.3309,-3.3309,-3.3309,-3.3309,-3.3309,-3.3309,-3.3309,-3.3309,-3.3309,-3.3309,-3.3309,-3.3309,-3.3229,-3.3112,-3.2924,-3.2746,-3.2551,-3.2425,-3.2398,-3.2398,-3.2398,-3.2191,-3.2148,-3.2725,-3.2569,-3.2736,-3.3963,-3.4294,-3.4452,-3.4717,-3.4828,-3.4769,-3.4448,0.0,-3.4414,-3.4414,-3.4414,-3.4661,-3.5334,-3.5938,-3.6591,-3.7259,-3.7868,0.0,0.0,-3.8202,-3.8202,-3.8202,-3.8202,-3.8277,-3.8441,-3.8612,-3.8708,-3.8708,-3.8708,-3.8708,-3.8708,-3.8708,-3.9032,-3.9539,-3.9373,-3.9677,-4.0305,-4.0066,-4.0017,-4.0104,-4.0104,-4.0104,-4.0104,-4.0104,-4.0104,-4.0104,-4.2684,-4.2655,-4.2456,-4.1799,-4.1617,-4.1477,-4.135,-4.1239,-4.1116,-4.1003,-4.0431,-4.0021,-4.0021,-3.9453,-3.9049,-3.9049,-3.9049,-3.9243,-3.9619,-3.8958,-3.857,-3.857,-3.8456,-3.8391,-3.8391,-3.8391,-3.8023,-3.7268,-3.6416,-3.561,-3.4935,-3.4056,-3.3684,-3.3684,-3.3658,-3.3581,-3.3477,-3.3477,-3.3398,-3.3309,-3.3309,-3.3309,-3.3309,-3.3309,-3.3309,-3.3309,-3.3309,-3.3309,-3.3309,-3.3309,-3.3309,-3.3309,-3.3309,-3.3309,-3.3309,-3.3309,-3.3282,-3.3203,-3.2978,-3.2676,-3.2425,-3.2425,-3.2398,-3.2398,-3.2398,-3.2191,-3.2027,-3.2133,-3.1891,-3.1884,-3.2677,-3.3275,-3.3765,-3.4085,-3.4581,-3.4769,-3.4448,0.0,-3.4414,-3.4414,-3.4414,-3.4661,-3.5334,-3.5938,-3.6591,-3.7259,-3.7868,-3.8202,-3.8202,-3.8202,-3.8202,-3.8202,-3.8202,-3.8202,-3.824,-3.8277,-3.8277,-3.8277,-3.8277,-3.8277,-3.8277,-3.8277,-3.8373,-3.8475,-3.8423,-3.8763,-3.9387,-3.9349,-3.9639,-4.0104,-4.0104,-4.0104,-4.0104,-4.0104,-4.0104,-4.0104,-4.2114,-4.2086,-4.1941,-4.1475,-4.111,-4.0834,-4.0795,-4.042,-4.0144,-4.0105,-3.9693,-3.9424,-3.9424,-3.9057,-3.8805,-3.8805,-3.8805,-3.8897,-3.91,-3.8755,-3.8492,-3.8391,-3.8391,-3.8391,-3.8391,-3.8391,-3.7873,-3.6772,-3.6352,-3.5608,-3.451,-3.4034,-3.3797,-3.3797,-3.372,-3.3684,-3.3607,-3.3529,-3.345,-3.3398,-3.3335,-3.3309,-3.3309,-3.3309,-3.3309,-3.3309,-3.3309,-3.3309,-3.3309,-3.3309,-3.3309,-3.3309,-3.3309,-3.3309,-3.3309,-3.3309,-3.3256,-3.315,-3.2951,-3.2718,-3.2496,-3.2425,-3.2398,-3.2398,-3.2398,-3.2247,-3.2094,-3.2025,-3.1826,-3.1836,-3.2392,-3.3051,-3.3647,-3.4036,-3.454,0.0,0.0,-3.4481,-3.4414,-3.4414,-3.4414,-3.4791,-3.5778,-3.6141,-3.6722,-3.7709,-3.8043,-3.8202,-3.8202,-3.8202,-3.8202,-3.8202,-3.8202,-3.8202,-3.8202,-3.8202,-3.8202,-3.8202,-3.8202,-3.8202,-3.8202,-3.8202,-3.8202,-3.8202,-3.8202,-3.8376,-3.8667,-3.8667,-3.8826,-3.9073,-3.9073,-3.9073,-3.9073,-3.9073,-3.9073,-3.9073,-4.1505,-4.1466,-4.1344,-4.1017,-4.0509,-4.0144,-4.0144,-3.9663,-3.9299,-3.9299,-3.9175,-3.9067,-3.9067,-3.8969,-3.8914,-3.8914,-3.8914,-3.8887,-3.886,-3.8738,-3.8644,-3.8504,-3.8448,-3.842,-3.8391,-3.8391,-3.7711,-3.6303,-3.6303,-3.5558,-3.4101,-3.4,-3.3949,-3.3949,-3.3848,-3.3787,-3.3745,-3.3658,-3.3581,-3.3529,-3.3398,-3.3361,-3.3319,-3.3293,-3.3309,-3.3309,-3.3309,-3.3309,-3.3309,-3.3309,-3.3309,-3.3309,-3.3309,-3.3309,-3.3309,-3.3309,-3.3229,-3.3096,-3.2951,-3.2746,-3.2578,-3.2425,-3.2398,-3.2398,-3.2398,-3.2302,-3.2163,-3.2025,-3.1898,-3.1938,-3.2422,-3.3051,-3.3632,-3.4116,0.0,0.0,0.0,-3.4582,-3.4481,-3.4481,-3.4414,-3.4849,-3.5981,-3.6228,-3.678,-3.7912,-3.813,-3.8202,-3.8202,-3.8202,-3.8202,-3.8202,-3.8202,-3.8202,-3.8202,-3.8202,-3.8202,-3.8202,-3.8202,-3.8202,-3.8202,-3.8202,-3.8202,-3.8202,-3.8202,-3.8202,-3.8202,-3.8202,-3.8202,-3.8202,-3.8202,-3.8202,-3.8202,-3.8202,-3.8202,-3.8202,-4.0883,-4.0765,-4.0467,-3.9741,-3.9495,-3.9381,-3.9381,-3.9332,-3.9299,-3.9299,-3.9299,-3.9272,-3.9272,-3.9272,-3.9272,-3.9272,-3.9272,-3.9175,-3.8996,-3.8969,-3.8914,-3.8777,-3.8655,-3.8548,-3.8391,-3.8391,-3.7711,-3.6303,-3.6303,-3.5558,-3.4101,-3.4101,-3.4101,-3.4075,-3.4075,-3.4,-3.3873,-3.3873,-3.3797,-3.3668,-3.3555,-3.3477,-3.3477,-3.3361,-3.3309,-3.3309,-3.3309,-3.3309,-3.3309,-3.3309,-3.3309,-3.3309,-3.3309,-3.3309,-3.3309,-3.3309,-3.3309,-3.3229,-3.2978,-3.2746,-3.2578,-3.2425,-3.2398,-3.2398,-3.2398,-3.2302,-3.2163,-3.2025,-3.1898,-3.1938,-3.2422,-3.3051,-3.3632,-3.4116,0.0,0.0,-3.4902,-3.475,-3.4664,-3.4664,-3.4515,-3.4675,-3.5407,-3.5967,-3.6606,-3.7317,-3.7883,-3.8202,-3.8202,-3.8202,-3.8202,-3.8202,-3.8202,-3.8202,-3.8202,-3.8202,-3.8202,-3.8202,-3.8202,-3.8202,-3.8202,-3.8202,-3.8202,-3.8202,-3.8202,-3.8202,-3.8202,-3.8202,-3.8202,-3.8202,-3.8202,-3.8202,-3.8202,-3.8202,-3.8202,-3.8202,-4.027,-4.0191,-4.0055,-3.9692,-3.9573,-3.9547,-3.9547,-3.9484,-3.9405,-3.9405,-3.9352,-3.9299,-3.9299,-3.9299,-3.9299,-3.9299,-3.9299,-3.9272,-3.9175,-3.9175,-3.9067,-3.8805,-3.875,-3.8711,-3.8655,-3.856,-3.8045,-3.7037,-3.6524,-3.5785,-3.4764,-3.4311,-3.4101,-3.4101,-3.4101,-3.4075,-3.4025,-3.3924,-3.3873,-3.3797,-3.3684,-3.3617,-3.3607,-3.3477,-3.3424,-3.3398,-3.3335,-3.3309,-3.3309,-3.3309,-3.3309,-3.3309,-3.3309,-3.3309,-3.3309,-3.3309,-3.3309,-3.3256,-3.3069,-3.2924,-3.2746,-3.2578,-3.2453,-3.2398,-3.2398,-3.237,-3.2302,-3.2135,-3.2025,-3.2066,-3.2525,-3.3096,-3.3709,-3.4289,0.0,-3.518,-3.5115,-3.4949,-3.4802,-3.4802,-3.4683,-3.483,-3.5443,-3.568,-3.617,-3.723,-3.752,-3.781,-3.8188,-3.8202,-3.8202,-3.8202,-3.8202,-3.8202,-3.8202,-3.8202,-3.8202,-3.8202,-3.8202,-3.8202,-3.8202,-3.8202,-3.8202,-3.8202,-3.8202,-3.8202,-3.8202,-3.8202,-3.8202,-3.8202,-3.8202,-3.8202,-3.8202,-3.8202,-3.8202,-3.8202,-3.9986,-3.9926,-3.9875,-3.9781,-3.9729,-3.9703,-3.9703,-3.9616,-3.9563,-3.9563,-3.9484,-3.9432,-3.9432,-3.9432,-3.9432,-3.9432,-3.9379,-3.9352,-3.9352,-3.9325,-3.9175,-3.8887,-3.886,-3.8832,-3.8805,-3.8711,-3.8297,-3.759,-3.6972,-3.6204,-3.5247,-3.4693,-3.4311,-3.4101,-3.4101,-3.4101,-3.4101,-3.4,-3.3949,-3.3949,-3.3822,-3.3745,-3.3761,-3.3607,-3.3555,-3.3555,-3.345,-3.3424,-3.3424,-3.3424,-3.3424,-3.3424,-3.3424,-3.3398,-3.3346,-3.3293,-3.3309,-3.3282,-3.3176,-3.3043,-3.2897,-3.2676,-3.2523,-3.2453,-3.2425,-3.2398,-3.237,-3.2219,-3.2275,-3.2497,-3.2944,-3.3487,-3.407,-3.4713,-3.5093,-3.5294,-3.5294,-3.5115,-3.5001,-3.5001,-3.485,-3.4926,-3.5283,-3.5414,-3.5805,-3.6635,-3.6881,-3.7259,-3.7883,-3.8101,-3.8202,-3.8202,-3.8202,-3.8202,-3.8202,-3.8202,-3.8202,-3.8202,-3.8202,-3.8202,-3.8202,-3.8202,-3.8202,-3.8202,-3.8202,-3.8202,-3.8202,-3.8202,-3.8202,-3.8202,-3.8202,-3.8202,-3.8202,-3.8202,-3.8202,-3.8202,-4.0096,-3.9986,-3.9901,-3.9901,-3.9781,-3.9703,-3.9703,-3.9703,-3.9703,-3.9703,-3.9703,-3.9703,-3.9703,-3.9703,-3.9703,-3.9703,-3.959,-3.9501,-3.9501,-3.9395,-3.9202,-3.9023,-3.8996,-3.8942,-3.8805,-3.8805,-3.8477,-3.7816,-3.759,-3.6802,-3.5433,-3.5279,-3.4822,-3.4101,-3.4101,-3.4101,-3.4101,-3.4101,-3.4101,-3.4101,-3.3949,-3.3899,-3.3873,-3.3745,-3.3694,-3.3694,-3.3694,-3.3694,-3.3694,-3.3694,-3.3694,-3.3694,-3.3694,-3.3607,-3.3477,-3.3319,-3.3309,-3.3309,-3.3309,-3.3203,-3.3016,-3.2676,-3.2594,-3.2578,-3.2425,-3.2398,-3.237,-3.2219,-3.2726,-3.3311,-3.3653,-3.4256,-3.4871,-3.5417,-3.5504,-3.5504,-3.5504,-3.5326,-3.518,-3.518,-3.5001,-3.4835,-3.4731,-3.5239,-3.5536,-3.5392,-3.5952,-3.6591,-3.7273,-3.7868,-3.8202,-3.8202,-3.8202,-3.8202,-3.8202,-3.8202,-3.8202,-3.8202,-3.8202,-3.8202,-3.8202,-3.8202,-3.8202,-3.8202,-3.8202,-3.8202,-3.8202,-3.8202,-3.8202,-3.8202,-3.8202,-3.8202,-3.8202,-3.8202,-3.8202,-3.8202,-4.0238,-4.0138,-4.0037,-4.0037,-4.0011,-3.9969,-3.9969,-3.991,-3.9849,-3.9849,-3.9755,-3.9703,-3.9703,-3.9703,-3.9703,-3.9703,-3.9651,-3.9625,-3.9625,-3.9511,-3.9405,-3.9352,-3.9255,-3.9175,-3.9148,-3.8996,-3.8843,-3.8629,-3.8029,-3.749,-3.7065,-3.6516,-3.5817,-3.5015,-3.5015,-3.4672,-3.4101,-3.4101,-3.4101,-3.4101,-3.405,-3.405,-3.4025,-3.3899,-3.3848,-3.3822,-3.372,-3.3694,-3.3694,-3.3694,-3.3694,-3.3694,-3.3694,-3.3607,-3.3503,-3.345,-3.3372,-3.3309,-3.3309,-3.3282,-3.3203,-3.3016,-3.2784,-3.2578,-3.2551,-3.2453,-3.2398,-3.2342,-3.2811,-3.3369,-3.3952,-3.4409,-3.4919,-3.5533,-3.5554,-3.5504,-3.5504,-3.5439,-3.5407,-3.5407,-3.5213,-3.5082,-3.5049,-3.5078,-3.5238,-3.5507,-3.6008,-3.6591,-3.7273,-3.7476,-3.7767,-3.8188,-3.8202,-3.8202,-3.8202,-3.8202,-3.8202,-3.8202,-3.8202,-3.8202,-3.8202,-3.8202,-3.8202,-3.8202,-3.8202,-3.8202,-3.8202,-3.8202,-3.8202,-3.8202,-3.8202,-3.8202,-3.8202,-3.8202,-3.8202,-3.8202,-4.0387,-4.0313,-4.0246,-4.0246,-4.0196,-4.0188,-4.0188,-4.0062,-3.9986,-3.9986,-3.991,-3.9858,-3.9858,-3.9858,-3.9858,-3.9858,-3.9807,-3.9755,-3.9703,-3.9625,-3.9563,-3.9501,-3.9422,-3.9352,-3.9299,-3.9175,-3.9121,-3.9121,-3.8558,-3.8159,-3.788,-3.7383,-3.6698,-3.5901,-3.5531,-3.5122,-3.4581,-3.4255,-3.4101,-3.4101,-3.4101,-3.4101,-3.4101,-3.4,-3.3975,-3.3975,-3.3873,-3.3848,-3.3848,-3.3848,-3.3848,-3.3848,-3.3813,-3.372,-3.3658,-3.3607,-3.3477,-3.3372,-3.3372,-3.3319,-3.3282,-3.3203,-3.2989,-3.2757,-3.2648,-3.2551,-3.253,-3.2736,-3.3295,-3.3899,-3.4498,-3.4988,-3.5378,-3.5659,-3.5621,-3.5554,-3.5504,-3.5504,-3.5504,-3.5504,-3.5392,-3.5294,-3.5213,-3.5082,-3.5064,-3.521,-3.5735,-3.6168,-3.6519,-3.7027,-3.7476,-3.7839,-3.8086,-3.8202,-3.8202,-3.8202,-3.8202,-3.8202,-3.8202,-3.8202,-3.8202,-3.8202,-3.8202,-3.8202,-3.8202,-3.8202,-3.8202,-3.8202,-3.8202,-3.8202,-3.8202,-3.8202,-3.8202,-3.8202,-3.8202,-3.8202,-4.0534,-4.051,-4.051,-4.051,-4.0387,-4.033,-4.033,-4.0213,-4.0138,-4.0138,-4.0138,-4.0138,-4.0138,-4.0113,-4.0096,-4.0096,-3.9986,-3.9875,-3.9755,-3.9729,-3.9651,-3.9554,-3.9511,-3.9475,-3.9325,-3.9299,-3.9299,-3.9299,-3.9121,-3.871,-3.8111,-3.7978,-3.7531,-3.6783,-3.5983,-3.5556,-3.5368,-3.4549,-3.419,-3.4126,-3.4101,-3.4101,-3.4101,-3.4101,-3.4101,-3.4101,-3.4101,-3.4101,-3.4101,-3.4101,-3.4101,-3.4075,-3.3949,-3.3899,-3.3873,-3.3745,-3.3607,-3.3503,-3.3503,-3.3398,-3.3309,-3.3309,-3.3203,-3.3043,-3.2703,-3.2667,-3.2813,-3.3303,-3.4014,-3.4723,-3.5156,-3.5752,-3.6101,-3.5784,-3.572,-3.5671,-3.5522,-3.5504,-3.5504,-3.5504,-3.5504,-3.5439,-3.5261,-3.5213,-3.5082,-3.4765,-3.5244,-3.5492,-3.5427,-3.6525,-3.7157,-3.7215,-3.781,-3.813,-3.813,-3.8173,-3.8202,-3.8202,-3.8202,-3.8202,-3.8202,-3.8202,-3.8202,-3.8202,-3.8202,-3.8202,-3.8202,-3.8202,-3.8202,-3.8202,-3.8202,-3.8202,-3.8202,-3.8202,-3.8202,-3.8202,-4.0648,-4.0558,-4.051,-4.051,-4.0485,-4.0461,-4.0461,-4.0419,-4.0395,-4.0395,-4.0313,-4.0255,-4.0255,-4.0163,-4.0096,-4.0096,-4.007,-4.0037,-4.0037,-3.991,-3.9849,-3.9824,-3.9703,-3.959,-3.9475,-3.9352,-3.9299,-3.9299,-3.9272,-3.9162,-3.9013,-3.8987,-3.8527,-3.7729,-3.7512,-3.6753,-3.5527,-3.5237,-3.4796,-3.425,-3.4151,-3.4101,-3.4101,-3.4101,-3.4101,-3.4101,-3.4101,-3.4101,-3.4101,-3.4101,-3.4101,-3.4101,-3.4075,-3.3975,-3.3899,-3.3873,-3.3684,-3.3503,-3.3503,-3.3398,-3.3309,-3.3309,-3.3282,-3.3176,-3.2897,-3.3165,-3.3457,-3.3411,-3.4398,-3.5306,-3.5415,-3.5845,-3.6179,-3.6101,-3.5879,-3.5688,-3.5671,-3.5587,-3.5504,-3.5504,-3.5504,-3.5472,-3.5439,-3.5294,-3.5148,-3.5082,-3.4982,-3.5073,-3.5507,-3.5723,-3.6011,-3.6504,-3.7157,-3.7506,-3.7506,-3.797,-3.8202,-3.8202,-3.8202,-3.8202,-3.8202,-3.8202,-3.8202,-3.8202,-3.8202,-3.8202,-3.8202,-3.8202,-3.8202,-3.8202,-3.8202,-3.8202,-3.8202,-3.8202,-3.8202,-3.8202,-4.0793,-4.0728,-4.068,-4.068,-4.0631,-4.06,-4.06,-4.0534,-4.051,-4.051,-4.0436,-4.0387,-4.0387,-4.0263,-4.0163,-4.0113,-4.0096,-4.0096,-4.0096,-4.0037,-3.9977,-3.9901,-3.9833,-3.9729,-3.9616,-3.9458,-3.9352,-3.9299,-3.9299,-3.9299,-3.9299,-3.9299,-3.9046,-3.8586,-3.8203,-3.7548,-3.6697,-3.5864,-3.5264,-3.4889,-3.4397,-3.4201,-3.4201,-3.4126,-3.4101,-3.4101,-3.4101,-3.4101,-3.4101,-3.4101,-3.4101,-3.4101,-3.4101,-3.405,-3.4,-3.4,-3.3848,-3.3684,-3.3607,-3.3503,-3.3372,-3.3335,-3.3309,-3.3256,-3.3032,-3.3427,-3.3836,-3.3988,-3.4796,-3.5614,-3.5937,-3.6183,-3.6305,-3.6211,-3.6038,-3.5879,-3.572,-3.5638,-3.5572,-3.5504,-3.5504,-3.5504,-3.5504,-3.5392,-3.5294,-3.5213,-3.5049,-3.4997,-3.5151,-3.539,-3.5607,-3.5851,-3.6489,-3.6823,-3.6823,-3.7462,-3.7781,-3.7781,-3.8072,-3.8202,-3.8202,-3.8202,-3.8202,-3.8202,-3.8202,-3.8202,-3.8202,-3.8202,-3.8202,-3.8202,-3.8202,-3.8202,-3.8202,-3.8202,-3.8202,-3.8202,-4.0935,-4.0935,-4.0935,-4.0894,-4.0817,-4.0721,-4.0721,-4.0631,-4.0583,-4.0583,-4.0558,-4.0534,-4.0534,-4.0387,-4.0255,-4.0121,-4.0096,-4.0096,-4.0096,-4.0096,-4.0062,-3.9952,-3.9935,-3.9858,-3.9729,-3.9616,-3.9484,-3.9325,-3.9299,-3.9299,-3.9299,-3.9299,-3.9299,-3.9282,-3.8553,-3.8154,-3.7946,-3.6582,-3.5874,-3.557,-3.4823,-3.4464,-3.4325,-3.4226,-3.4176,-3.4176,-3.4151,-3.4126,-3.4101,-3.4101,-3.4101,-3.4101,-3.4101,-3.4101,-3.4101,-3.4101,-3.4,-3.3873,-3.3736,-3.3607,-3.3477,-3.3319,-3.3309,-3.3298,-3.3291,-3.3709,-3.4198,-3.4599,-3.521,-3.583,-3.6384,-3.6492,-3.646,-3.6274,-3.6211,-3.6101,-3.5816,-3.5752,-3.5671,-3.5554,-3.5504,-3.5504,-3.5504,-3.5504,-3.5439,-3.5261,-3.5213,-3.5096,-3.4798,-3.5234,-3.5424,-3.5301,-3.5913,-3.6247,-3.6247,-3.6881,-3.7259,-3.7375,-3.7847,-3.8138,-3.8202,-3.8202,-3.8202,-3.8202,-3.8202,-3.8202,-3.8202,-3.8202,-3.8202,-3.8202,-3.8202,-3.8202,-3.8202,-3.8202,-3.8202,-3.8202,-4.1093,-4.107,-4.1047,-4.0935,-4.0888,-4.0871,-4.0871,-4.0864,-4.0847,-4.0847,-4.0745,-4.0673,-4.0673,-4.0453,-4.0288,-4.0263,-4.0163,-4.0096,-4.0096,-4.0096,-4.007,-4.007,-4.007,-4.0011,-3.9875,-3.9849,-3.972,-3.9475,-3.9352,-3.9299,-3.9299,-3.9299,-3.9299,-3.9299,-3.9172,-3.8765,-3.8143,-3.7814,-3.6938,-3.5753,-3.5505,-3.5029,-3.4472,-3.4448,-3.4448,-3.4423,-3.4325,-3.4201,-3.4101,-3.4101,-3.4101,-3.4101,-3.4101,-3.4101,-3.4101,-3.4101,-3.4,-3.3873,-3.3736,-3.3607,-3.3477,-3.3319,-3.3309,-3.3451,-3.4009,-3.445,-3.4743,-3.4692,-3.5596,-3.6384,-3.6476,-3.6492,-3.6492,-3.646,-3.6305,-3.6164,-3.6133,-3.5879,-3.5688,-3.5671,-3.5572,-3.5504,-3.5504,-3.5504,-3.5504,-3.5472,-3.5294,-3.518,-3.5115,-3.5042,-3.5001,-3.4967,-3.5619,-3.5957,-3.5957,-3.657,-3.7172,-3.7716,-3.7638,-3.7827,-3.8202,-3.8202,-3.8202,-3.8202,-3.8202,-3.8202,-3.8202,-3.8202,-3.8202,-3.8202,-3.8202,-3.8202,-3.8202,-3.8202,-3.8202,-3.8202,-4.1157,-4.1152,-4.1152,-4.1088,-4.1035,-4.1006,-4.1006,-4.0959,-4.0912,-4.0912,-4.0864,-4.0817,-4.0817,-4.0648,-4.0478,-4.0305,-4.0238,-4.0188,-4.0096,-4.0096,-4.0096,-4.0096,-4.0096,-4.0087,-4.0011,-3.9952,-3.9849,-3.972,-3.9511,-3.9405,-3.9405,-3.9342,-3.9299,-3.9299,-3.9299,-3.9133,-3.8775,-3.8299,-3.7727,-3.7067,-3.6099,-3.5523,-3.5169,-3.4685,-3.4497,-3.4497,-3.4423,-3.4374,-3.4325,-3.425,-3.4226,-3.4201,-3.4126,-3.4101,-3.4101,-3.4101,-3.405,-3.3975,-3.3745,-3.3658,-3.3555,-3.3346,-3.3309,-3.3482,-3.4146,-3.4675,-3.5089,-3.5305,-3.6026,-3.6585,-3.6523,-3.6492,-3.6492,-3.6492,-3.6414,-3.6352,-3.6211,-3.607,-3.5911,-3.572,-3.5572,-3.5504,-3.5504,-3.5504,-3.5504,-3.5504,-3.5439,-3.5326,-3.5213,-3.5115,-3.5001,-3.4902,-3.5181,-3.5347,-3.5347,-3.5996,-3.6468,-3.6763,-3.7378,-3.7923,-3.8366,-3.824,-3.8202,-3.8202,-3.8202,-3.8202,-3.8202,-3.8202,-3.8202,-3.8202,-3.8202,-3.8202,-3.8202,-3.8202,-3.8202,-3.8202]},{"header":{"parameterUnit":"m.s-1","parameterCategory":1,"la1":30.6,"la2":28.766,"lo1":-90.7593,"lo2":-88.6598,"dy":0.0162,"dx":0.0183,"nx":116,"ny":114,"refTime":"2023-06-14T12:00:00:Z","depth":0,"parameterNumber":3,"parameterNumberName":"V-component_of_WINDS"},"data":[0.0,0.0,0.0,0.0,0.0,0.0,0.0,0.0,0.0,0.0,0.0,0.0,0.0,0.0,0.0,0.0,0.0,0.0,0.0,0.0,0.0,0.0,0.0,0.0,0.0,0.0,0.0,0.0,0.0,0.0,0.0,0.0,0.0,0.0,0.0,0.0,0.0,0.0,0.0,0.0,0.0,0.0,0.0,0.0,0.0,0.0,0.0,0.0,0.0,0.0,0.0,0.0,0.0,0.0,0.0,0.0,0.0,0.0,0.0,0.0,0.0,0.0,0.0,0.0,0.0,0.0,0.0,0.0,0.0,0.0,0.0,0.0,0.0,0.0,0.0,0.0,0.0,0.0,0.0,0.0,0.0,0.0,0.0,0.0,0.0,0.0,0.0,0.0,0.0,0.0,0.0,0.0,0.0,0.0,0.0,0.0,0.0,0.0,0.0,0.0,0.0,0.0,0.0,0.0,0.0,0.0,0.0,0.0,0.0,0.0,0.0,0.0,0.0,0.0,0.0,0.0,0.0,0.0,0.0,0.0,0.0,0.0,0.0,0.0,0.0,0.0,0.0,0.0,0.0,0.0,0.0,0.0,0.0,0.0,0.0,0.0,0.0,0.0,0.0,0.0,0.0,0.0,0.0,0.0,0.0,0.0,0.0,0.0,0.0,0.0,0.0,0.0,0.0,0.0,0.0,0.0,0.0,0.0,0.0,0.0,0.0,0.0,0.0,0.0,0.0,0.0,0.0,0.0,0.0,0.0,0.0,0.0,0.0,0.0,0.0,0.0,0.0,0.0,0.0,0.0,0.0,0.0,0.0,0.0,0.0,0.0,0.0,0.0,0.0,0.0,0.0,0.0,0.0,0.0,0.0,0.0,0.0,0.0,0.0,0.0,0.0,0.0,0.0,0.0,0.0,0.0,0.0,0.0,0.0,0.0,0.0,0.0,0.0,0.0,0.0,0.0,0.0,0.0,0.0,0.0,0.0,0.0,0.0,0.0,0.0,0.0,0.0,0.0,0.0,0.0,0.0,0.0,0.0,0.0,0.0,0.0,0.0,0.0,0.0,0.0,0.0,0.0,0.0,0.0,0.0,0.0,0.0,0.0,0.0,0.0,0.0,0.0,0.0,0.0,0.0,0.0,0.0,0.0,0.0,0.0,0.0,0.0,0.0,0.0,0.0,0.0,0.0,0.0,0.0,0.0,0.0,0.0,0.0,0.0,0.0,0.0,0.0,0.0,0.0,0.0,0.0,0.0,0.0,0.0,0.0,0.0,0.0,0.0,0.0,0.0,0.0,0.0,0.0,0.0,0.0,0.0,0.0,0.0,0.0,0.0,0.0,0.0,0.0,0.0,0.0,0.0,0.0,0.0,0.0,0.0,0.0,0.0,0.0,0.0,0.0,0.0,0.0,0.0,0.0,0.0,0.0,0.0,0.0,0.0,0.0,0.0,0.0,0.0,0.0,0.0,0.0,0.0,0.0,0.0,0.0,0.0,0.0,0.0,0.0,0.0,0.0,0.0,0.0,0.0,0.0,0.0,0.0,0.0,0.0,0.0,0.0,0.0,0.0,0.0,0.0,0.0,0.0,0.0,0.0,0.0,0.0,0.0,0.0,0.0,0.0,0.0,0.0,0.0,0.0,0.0,0.0,0.0,0.0,0.0,0.0,0.0,0.0,0.0,0.0,0.0,0.0,0.0,0.0,0.0,0.0,0.0,0.0,0.0,0.0,0.0,0.0,0.0,0.0,0.0,0.0,0.0,0.0,0.0,0.0,0.0,0.0,0.0,0.0,0.0,0.0,0.0,0.0,0.0,0.0,0.0,0.0,0.0,0.0,0.0,0.0,0.0,0.0,0.0,0.0,0.0,0.0,0.0,0.0,0.0,0.0,0.0,0.0,0.0,0.0,0.0,0.0,0.0,0.0,0.0,0.0,0.0,0.0,0.0,0.0,0.0,0.0,0.0,0.0,0.0,0.0,0.0,0.0,0.0,0.0,0.0,0.0,0.0,0.0,0.0,0.0,0.0,0.0,0.0,0.0,0.0,0.0,0.0,0.0,0.0,0.0,0.0,0.0,0.0,0.0,0.0,0.0,0.0,0.0,0.0,0.0,0.0,0.0,0.0,0.0,0.0,0.0,0.0,0.0,0.0,0.0,0.0,0.0,0.0,0.0,0.0,0.0,0.0,0.0,0.0,0.0,0.0,0.0,0.0,0.0,0.0,0.0,0.0,0.0,0.0,0.0,0.0,0.0,0.0,0.0,0.0,0.0,0.0,0.0,0.0,0.0,0.0,0.0,0.0,0.0,0.0,0.0,0.0,0.0,0.0,0.0,0.0,0.0,0.0,0.0,0.0,0.0,0.0,0.0,0.0,0.0,0.0,0.0,0.0,0.0,0.0,0.0,0.0,0.0,0.0,0.0,0.0,0.0,0.0,0.0,0.0,0.0,0.0,0.0,0.0,0.0,0.0,0.0,0.0,0.0,0.0,0.0,0.0,0.0,0.0,0.0,0.0,0.0,0.0,0.0,0.0,0.0,0.0,0.0,0.0,0.0,0.0,0.0,0.0,0.0,0.0,0.0,0.0,0.0,0.0,0.0,0.0,0.0,0.0,0.0,0.0,0.0,0.0,0.0,0.0,0.0,0.0,0.0,0.0,0.0,0.0,0.0,0.0,0.0,0.0,0.0,0.0,0.0,0.0,0.0,0.0,0.0,0.0,0.0,0.0,0.0,0.0,0.0,0.0,0.0,0.0,0.0,0.0,0.0,0.0,0.0,0.0,0.0,0.0,0.0,0.0,0.0,0.0,0.0,0.0,0.0,0.0,0.0,0.0,0.0,0.0,0.0,0.0,0.0,0.0,0.0,0.0,0.0,0.0,0.0,0.0,0.0,0.0,0.0,0.0,0.0,0.0,0.0,0.0,0.0,0.0,0.0,0.0,0.0,0.0,0.0,0.0,0.0,0.0,0.0,0.0,0.0,0.0,0.0,0.0,0.0,0.0,0.0,0.0,0.0,0.0,0.0,0.0,0.0,0.0,0.0,0.0,0.0,0.0,0.0,0.0,0.0,0.0,0.0,0.0,0.0,0.0,0.0,0.0,0.0,0.0,0.0,0.0,0.0,0.0,0.0,0.0,0.0,0.0,0.0,0.0,0.0,0.0,0.0,0.0,0.0,0.0,0.0,0.0,0.0,0.0,0.0,0.0,0.0,0.0,0.0,0.0,0.0,0.0,0.0,0.0,0.0,0.0,0.0,0.0,0.0,0.0,0.0,0.0,0.0,0.0,0.0,0.0,0.0,0.0,0.0,0.0,0.0,0.0,0.0,0.0,0.0,0.0,0.0,0.0,0.0,0.0,0.0,0.0,0.0,0.0,0.0,0.0,0.0,0.0,0.0,0.0,0.0,0.0,0.0,0.0,0.0,0.0,0.0,0.0,0.0,0.0,0.0,0.0,0.0,0.0,0.0,0.0,0.0,0.0,0.0,0.0,0.0,0.0,0.0,0.0,0.0,0.0,0.0,0.0,0.0,0.0,0.0,0.0,0.0,0.0,0.0,0.0,0.0,0.0,0.0,0.0,0.0,0.0,0.0,0.0,0.0,0.0,0.0,0.0,0.0,0.0,0.0,0.0,0.0,0.0,0.0,0.0,0.0,0.0,0.0,0.0,0.0,0.0,0.0,0.0,0.0,0.0,0.0,0.0,0.0,0.0,0.0,0.0,0.0,0.0,0.0,0.0,0.0,0.0,0.0,0.0,0.0,0.0,0.0,0.0,0.0,0.0,0.0,0.0,0.0,0.0,0.0,0.0,0.0,0.0,0.0,0.0,0.0,0.0,0.0,0.0,0.0,0.0,0.0,0.0,0.0,0.0,0.0,0.0,0.0,0.0,0.0,0.0,0.0,0.0,0.0,0.0,0.0,0.0,0.0,0.0,0.0,0.0,0.0,0.0,0.0,0.0,0.0,0.0,0.0,0.0,0.0,0.0,0.0,0.0,0.0,0.0,0.0,0.0,0.0,0.0,0.0,0.0,0.0,0.0,0.0,0.0,0.0,0.0,0.0,0.0,0.0,0.0,0.0,0.0,0.0,0.0,0.0,0.0,0.0,0.0,0.0,0.0,0.0,0.0,0.0,0.0,0.0,0.0,0.0,0.0,0.0,0.0,0.0,0.0,0.0,0.0,0.0,0.0,0.0,0.0,0.0,0.0,0.0,0.0,0.0,0.0,0.0,0.0,0.0,0.0,0.0,0.0,0.0,0.0,0.0,0.0,0.0,0.0,0.0,0.0,0.0,0.0,0.0,0.0,0.0,0.0,0.0,0.0,0.0,0.0,0.0,0.0,0.0,0.0,0.0,0.0,0.0,0.0,0.0,0.0,0.0,0.0,0.0,0.0,0.0,0.0,0.0,0.0,0.0,0.0,0.0,0.0,0.0,0.0,0.0,0.0,0.0,0.0,0.0,0.0,0.0,0.0,0.0,0.0,0.0,0.0,0.0,0.0,0.0,0.0,0.0,0.0,0.0,0.0,0.0,0.0,0.0,0.0,0.0,0.0,0.0,0.0,0.0,0.0,0.0,0.0,0.0,0.0,0.0,0.0,0.0,0.0,0.0,0.0,0.0,0.0,0.0,0.0,0.0,0.0,0.0,0.0,0.0,0.0,0.0,0.0,0.0,0.0,0.0,0.0,0.0,0.0,0.0,0.0,0.0,0.0,0.0,0.0,0.0,0.0,0.0,0.0,0.0,0.0,0.0,0.0,0.0,0.0,0.0,0.0,0.0,0.0,0.0,0.0,0.0,0.0,0.0,0.0,0.0,0.0,0.0,0.0,0.0,0.0,0.0,0.0,0.0,0.0,0.0,0.0,0.0,0.0,0.0,0.0,0.0,0.0,0.0,0.0,0.0,0.0,0.0,0.0,0.0,0.0,0.0,0.0,0.0,0.0,0.0,0.0,0.0,0.0,0.0,0.0,0.0,0.0,0.0,0.0,0.0,0.0,0.0,0.0,0.0,0.0,0.0,0.0,0.0,0.0,0.0,0.0,0.0,0.0,0.0,0.0,0.0,0.0,0.0,0.0,0.0,0.0,0.0,0.0,0.0,0.0,0.0,0.0,0.0,0.0,0.0,0.0,0.0,0.0,0.0,0.0,0.0,0.0,0.0,0.0,0.0,0.0,0.0,0.0,0.0,0.0,0.0,0.0,0.0,0.0,0.0,0.0,0.0,0.0,0.0,0.0,0.0,0.0,0.0,0.0,0.0,0.0,0.0,0.0,0.0,0.0,0.0,0.0,0.0,0.0,0.0,0.0,0.0,0.0,0.0,0.0,0.0,0.0,0.0,0.0,0.0,0.0,0.0,0.0,0.0,0.0,0.0,0.0,0.0,0.0,0.0,0.0,0.0,0.0,0.0,0.0,0.0,0.0,0.0,0.0,0.0,0.0,0.0,0.0,0.0,0.0,0.0,0.0,0.0,0.0,0.0,0.0,0.0,0.0,0.0,0.0,0.0,0.0,0.0,0.0,0.0,0.0,0.0,0.0,0.0,0.0,0.0,0.0,0.0,0.0,0.0,0.0,0.0,0.0,0.0,0.0,0.0,0.0,0.0,0.0,0.0,0.0,0.0,0.0,0.0,0.0,0.0,0.0,0.0,0.0,0.0,0.0,0.0,0.0,0.0,0.0,0.0,0.0,0.0,0.0,0.0,0.0,0.0,0.0,0.0,0.0,0.0,0.0,0.0,0.0,0.0,0.0,0.0,0.0,0.0,0.0,0.0,0.0,0.0,0.0,0.0,0.0,0.0,0.0,0.0,0.0,0.0,0.0,0.0,0.0,0.0,0.0,0.0,0.0,0.0,0.0,0.0,0.0,0.0,0.0,0.0,0.0,0.0,0.0,0.0,0.0,0.0,0.0,0.0,0.0,0.0,0.0,0.0,0.0,0.0,0.0,0.0,0.0,0.0,0.0,0.0,0.0,0.0,0.0,0.0,0.0,0.0,0.0,0.0,0.0,0.0,0.0,0.0,0.0,0.0,0.0,0.0,0.0,0.0,0.0,0.0,0.0,0.0,0.0,0.0,0.0,0.0,0.0,0.0,0.0,0.0,0.0,0.0,0.0,0.0,0.0,-1.5042,0.0,0.0,0.0,0.0,0.0,0.0,0.0,0.0,0.0,0.0,0.0,0.0,0.0,0.0,0.0,0.0,0.0,0.0,0.0,0.0,0.0,0.0,0.0,0.0,0.0,0.0,0.0,0.0,0.0,0.0,0.0,0.0,0.0,0.0,0.0,0.0,0.0,0.0,0.0,0.0,0.0,0.0,0.0,0.0,0.0,0.0,0.0,0.0,0.0,0.0,0.0,0.0,0.0,0.0,0.0,0.0,0.0,0.0,0.0,0.0,0.0,0.0,0.0,0.0,0.0,0.0,0.0,0.0,0.0,0.0,0.0,0.0,0.0,0.0,0.0,0.0,0.0,0.0,0.0,0.0,0.0,0.0,0.0,0.0,0.0,0.0,0.0,0.0,0.0,0.0,0.0,0.0,0.0,0.0,0.0,0.0,0.0,0.0,0.0,0.0,0.0,0.0,0.0,0.0,0.0,0.0,0.0,0.0,0.0,0.0,0.0,0.0,0.0,0.0,0.0,0.0,-1.5861,0.0,0.0,0.0,0.0,0.0,0.0,0.0,0.0,0.0,0.0,0.0,0.0,0.0,0.0,0.0,0.0,0.0,0.0,0.0,0.0,0.0,0.0,0.0,0.0,0.0,0.0,0.0,0.0,0.0,0.0,0.0,0.0,0.0,0.0,0.0,0.0,0.0,0.0,0.0,0.0,0.0,0.0,0.0,0.0,0.0,0.0,0.0,0.0,0.0,0.0,0.0,0.0,0.0,0.0,0.0,0.0,0.0,0.0,0.0,0.0,0.0,0.0,0.0,0.0,0.0,0.0,0.0,0.0,0.0,0.0,0.0,0.0,0.0,0.0,0.0,0.0,0.0,0.0,0.0,0.0,0.0,0.0,0.0,0.0,0.0,0.0,0.0,0.0,0.0,0.0,0.0,0.0,0.0,0.0,0.0,0.0,0.0,0.0,0.0,0.0,0.0,0.0,0.0,0.0,0.0,0.0,0.0,0.0,-1.2888,-1.3284,-1.3652,-1.4143,-1.4734,-1.5406,-1.6081,-1.6736,-1.7386,0.0,0.0,0.0,0.0,0.0,0.0,0.0,0.0,0.0,0.0,0.0,0.0,0.0,0.0,0.0,0.0,0.0,0.0,0.0,0.0,0.0,0.0,0.0,0.0,0.0,0.0,0.0,0.0,0.0,0.0,0.0,0.0,0.0,0.0,0.0,0.0,0.0,0.0,0.0,-1.9399,-1.916,-1.8858,-1.8475,-1.8328,0.0,0.0,0.0,0.0,0.0,0.0,0.0,0.0,0.0,0.0,0.0,0.0,0.0,0.0,0.0,0.0,0.0,0.0,0.0,0.0,0.0,0.0,0.0,0.0,0.0,0.0,0.0,0.0,0.0,0.0,0.0,0.0,0.0,0.0,0.0,0.0,0.0,0.0,0.0,0.0,0.0,0.0,0.0,-1.0432,-1.003,0.0,0.0,0.0,0.0,0.0,0.0,0.0,0.0,0.0,0.0,0.0,0.0,0.0,-1.1008,-1.1308,-1.1614,-1.1966,-1.2413,-1.2918,-1.3549,-1.4195,-1.4731,-1.5253,-1.5759,-1.6322,0.0,-1.7203,-1.7822,0.0,0.0,0.0,0.0,0.0,0.0,0.0,0.0,0.0,0.0,0.0,0.0,0.0,0.0,0.0,0.0,0.0,0.0,0.0,0.0,0.0,0.0,0.0,0.0,0.0,0.0,0.0,0.0,0.0,0.0,0.0,0.0,0.0,0.0,0.0,0.0,-2.1362,-2.0878,-2.0718,-2.0442,-1.9969,-1.9373,-1.9437,-1.9184,-1.8732,-1.921,0.0,0.0,0.0,0.0,0.0,0.0,0.0,0.0,0.0,0.0,0.0,0.0,0.0,0.0,0.0,0.0,0.0,0.0,0.0,0.0,0.0,0.0,0.0,0.0,0.0,0.0,0.0,0.0,0.0,0.0,0.0,0.0,0.0,0.0,0.0,0.0,0.0,0.0,0.0,-1.0476,-0.9902,-0.9541,-0.952,-0.9327,0.0,0.0,0.0,0.0,0.0,0.0,0.0,0.0,0.0,-1.0288,-1.0548,-1.0796,-1.1078,-1.1705,-1.2216,-1.2558,-1.3422,-1.399,-1.4348,-1.5146,-1.5744,-1.6137,-1.6814,-1.7474,-1.803,-1.8253,-1.8689,-1.9332,0.0,0.0,0.0,0.0,0.0,-2.2523,0.0,0.0,0.0,0.0,0.0,0.0,0.0,0.0,0.0,0.0,0.0,0.0,0.0,0.0,0.0,0.0,0.0,0.0,0.0,0.0,0.0,0.0,0.0,0.0,0.0,0.0,0.0,0.0,-2.2414,-2.1954,-2.173,-2.137,-2.0771,-1.9935,-2.0165,-1.9793,-1.8984,-1.942,-1.9901,0.0,0.0,0.0,0.0,0.0,0.0,0.0,0.0,0.0,0.0,0.0,0.0,0.0,0.0,0.0,0.0,0.0,0.0,0.0,0.0,0.0,0.0,0.0,0.0,0.0,0.0,0.0,0.0,0.0,0.0,0.0,0.0,0.0,0.0,0.0,0.0,0.0,0.0,-0.9674,-0.9331,-0.9028,-0.8968,-0.8814,0.0,0.0,0.0,0.0,0.0,0.0,-0.9038,-0.941,-0.9669,-0.9811,-1.025,-1.0643,-1.1035,-1.1789,-1.235,-1.2692,-1.3632,-1.4129,-1.4333,-1.5348,-1.596,-1.6268,-1.7107,-1.7896,-1.8599,-1.8727,-1.9191,-1.9953,-2.062,-2.1112,-2.1522,-2.208,-2.262,-2.3102,0.0,0.0,0.0,0.0,0.0,0.0,0.0,0.0,0.0,0.0,0.0,0.0,0.0,0.0,0.0,0.0,0.0,0.0,0.0,0.0,0.0,0.0,0.0,0.0,0.0,0.0,0.0,-2.3763,-2.2944,-2.2292,-2.179,-2.1464,-2.0822,-2.0006,-2.0132,-1.9895,-1.9394,-1.9926,-2.0397,-2.0809,0.0,0.0,0.0,0.0,0.0,0.0,0.0,0.0,0.0,0.0,0.0,0.0,0.0,0.0,0.0,0.0,0.0,0.0,0.0,0.0,0.0,0.0,0.0,0.0,0.0,0.0,0.0,0.0,0.0,0.0,0.0,0.0,0.0,0.0,0.0,0.0,0.0,0.0,0.0,-0.8378,-0.8129,0.0,0.0,0.0,0.0,-0.811,-0.8225,-0.8432,-0.8605,-0.8908,-0.9303,-0.9886,-1.0167,-1.0667,-1.1358,-1.1686,-1.2113,-1.2628,-1.3157,-1.3771,-1.4333,-1.5139,-1.5651,-1.5954,-1.7057,-1.7803,-1.8397,-1.9154,-1.9917,-2.0707,-2.1449,-2.204,-2.2541,-2.3299,-2.4077,-2.4659,0.0,0.0,0.0,0.0,0.0,0.0,0.0,0.0,0.0,0.0,0.0,0.0,0.0,0.0,0.0,0.0,0.0,0.0,0.0,0.0,0.0,0.0,0.0,0.0,0.0,0.0,-2.4507,-2.4263,-2.3277,-2.2647,-2.2371,-2.1761,-2.1157,-2.053,-2.0652,-2.0562,-2.0308,-2.0409,-2.0698,-2.1093,-2.1578,-2.1787,0.0,0.0,0.0,0.0,0.0,0.0,0.0,0.0,0.0,0.0,0.0,0.0,0.0,0.0,0.0,0.0,0.0,0.0,0.0,0.0,0.0,0.0,0.0,0.0,0.0,0.0,0.0,0.0,0.0,0.0,0.0,0.0,0.0,0.0,0.0,0.0,0.0,-0.7804,-0.7472,0.0,-0.7313,-0.7386,-0.7343,-0.727,-0.7695,-0.7996,-0.8101,-0.8689,-0.9257,-0.963,-1.0006,-1.0457,-1.1144,-1.1693,-1.2283,-1.2855,-1.3583,-1.4186,-1.4767,-1.5608,-1.6183,-1.6489,-1.7578,-1.8409,-1.8979,-1.9633,-2.0231,-2.0757,-2.1318,-2.1921,-2.2575,-2.3392,-2.4146,-2.4818,0.0,0.0,0.0,0.0,0.0,0.0,0.0,0.0,0.0,0.0,0.0,0.0,0.0,0.0,0.0,0.0,0.0,0.0,0.0,0.0,0.0,0.0,0.0,0.0,0.0,-2.5135,-2.4693,-2.4512,-2.3436,-2.2778,-2.2499,-2.1932,-2.1375,-2.0888,-2.1056,-2.1102,-2.108,-2.1177,-2.1299,-2.152,-2.1973,-2.2263,-2.2406,0.0,0.0,0.0,0.0,0.0,0.0,0.0,0.0,0.0,0.0,0.0,0.0,0.0,0.0,0.0,0.0,0.0,0.0,0.0,0.0,0.0,0.0,0.0,0.0,0.0,0.0,0.0,0.0,0.0,0.0,0.0,0.0,0.0,0.0,0.0,-0.7379,-0.7101,-0.6787,-0.6649,-0.6609,-0.6765,-0.6802,-0.6753,-0.7272,-0.7664,-0.7812,-0.8452,-0.9024,-0.9494,-0.9871,-1.0432,-1.1182,-1.1692,-1.2345,-1.3088,-1.3611,-1.4283,-1.5035,-1.5791,-1.6371,-1.6783,-1.7891,-1.8743,-1.9324,-1.9879,-2.0487,-2.1073,-2.1595,-2.217,-2.2895,-2.3766,-2.4524,-2.5162,0.0,0.0,0.0,0.0,0.0,0.0,0.0,0.0,0.0,0.0,0.0,0.0,0.0,0.0,0.0,0.0,0.0,0.0,0.0,0.0,0.0,0.0,0.0,0.0,-2.6082,-2.5194,-2.4633,-2.4487,-2.3445,-2.2641,-2.2128,-2.191,-2.1539,-2.1042,-2.1313,-2.1506,-2.1688,-2.2194,-2.2278,-2.2053,-2.2324,-2.2609,-2.2912,0.0,0.0,0.0,0.0,0.0,0.0,0.0,0.0,0.0,0.0,0.0,0.0,0.0,0.0,0.0,0.0,0.0,0.0,0.0,0.0,0.0,0.0,0.0,0.0,0.0,0.0,0.0,0.0,0.0,0.0,0.0,0.0,0.0,-0.7684,-0.726,-0.6756,-0.6227,-0.6098,-0.6003,-0.5896,-0.6249,-0.6516,-0.6597,-0.6964,-0.7397,-0.7843,-0.816,-0.8709,-0.9555,-0.9835,-1.0509,-1.1564,-1.1623,-1.2169,-1.3315,-1.3315,-1.391,-1.5035,-1.5624,-1.6205,-1.6783,-1.7891,-1.8743,-1.9324,-1.9879,-2.0747,-2.1776,-2.2274,-2.2887,-2.3497,-2.4538,-2.5265,-2.5876,0.0,0.0,0.0,0.0,0.0,0.0,0.0,0.0,0.0,0.0,0.0,0.0,0.0,0.0,0.0,0.0,0.0,0.0,0.0,0.0,0.0,0.0,0.0,0.0,-2.5747,-2.5301,-2.4807,-2.428,-2.3437,-2.2909,-2.2666,-2.2273,-2.2017,-2.1888,-2.2002,-2.2165,-2.2397,-2.2663,-2.2836,-2.2926,-2.2926,-2.2971,-2.3061,0.0,0.0,0.0,0.0,0.0,0.0,0.0,0.0,0.0,0.0,0.0,0.0,0.0,0.0,0.0,0.0,0.0,0.0,0.0,0.0,0.0,0.0,0.0,0.0,0.0,0.0,0.0,0.0,0.0,0.0,0.0,-0.7435,-0.7038,-0.7189,-0.6592,-0.6052,-0.5879,-0.5555,-0.5397,-0.5462,-0.5669,-0.5876,-0.6135,-0.6468,-0.6793,-0.7235,-0.7846,-0.8509,-0.9237,-0.9628,-1.0425,-1.1568,-1.1623,-1.2169,-1.3315,-1.3478,-1.4072,-1.5035,-1.5844,-1.6537,-1.712,-1.8003,-1.884,-1.9628,-2.0153,-2.0917,-2.1776,-2.2274,-2.2887,-2.3497,-2.4538,-2.547,-2.6418,0.0,0.0,0.0,0.0,0.0,0.0,0.0,0.0,0.0,0.0,0.0,0.0,0.0,0.0,0.0,0.0,0.0,0.0,0.0,0.0,0.0,0.0,0.0,-2.621,-2.5454,-2.498,-2.4564,-2.4167,-2.345,-2.3051,-2.2975,-2.2758,-2.2655,-2.2655,-2.2785,-2.2942,-2.3098,-2.3312,-2.3486,-2.3631,-2.361,-2.3523,-2.3414,-2.3538,-2.3523,-2.337,-2.2906,-2.2578,-2.2243,-2.1363,0.0,0.0,0.0,0.0,0.0,0.0,0.0,0.0,0.0,0.0,0.0,0.0,0.0,0.0,0.0,0.0,0.0,0.0,0.0,0.0,0.0,0.0,0.0,0.0,-0.6885,-0.6374,-0.6389,-0.5971,-0.5591,-0.5309,-0.5106,-0.4981,-0.4989,-0.5184,-0.5431,-0.5634,-0.6039,-0.6414,-0.69,-0.7552,-0.8318,-0.9175,-0.96,-1.0363,-1.1568,-1.1623,-1.2169,-1.3315,-1.3586,-1.418,-1.5035,-1.5897,-1.6643,0.0,-1.8062,-1.8893,-1.9732,-2.0256,-2.0968,0.0,0.0,0.0,0.0,0.0,-2.5858,-2.664,0.0,0.0,0.0,0.0,0.0,0.0,0.0,0.0,0.0,0.0,0.0,0.0,0.0,0.0,0.0,0.0,0.0,0.0,0.0,0.0,0.0,-2.6169,-2.613,-2.582,-2.5123,-2.4464,-2.4118,-2.4045,-2.3466,-2.3172,-2.3172,-2.3326,-2.3407,-2.3429,-2.361,-2.3717,-2.3724,-2.4057,-2.4183,-2.4204,-2.4323,-2.4177,-2.3882,-2.3967,-2.3861,-2.3638,-2.3538,-2.3275,-2.2839,-2.2001,0.0,0.0,0.0,0.0,0.0,0.0,0.0,0.0,0.0,0.0,0.0,0.0,0.0,0.0,0.0,0.0,0.0,0.0,0.0,0.0,0.0,0.0,0.0,0.0,-0.643,-0.5745,-0.5446,-0.5389,-0.5218,-0.4694,-0.4713,-0.4718,-0.4563,-0.4854,-0.5096,-0.5233,-0.5691,-0.6192,-0.6787,0.0,0.0,0.0,0.0,-1.0363,-1.1568,-1.1623,-1.2223,-1.3315,-1.364,-1.4234,-1.5089,-1.5945,-1.6696,-1.7338,-1.8062,-1.8893,-1.9783,-2.0308,-2.107,-2.1979,-2.2677,-2.3329,-2.4026,-2.5548,-2.6245,0.0,0.0,0.0,0.0,0.0,0.0,0.0,0.0,0.0,0.0,0.0,0.0,0.0,0.0,0.0,0.0,0.0,0.0,0.0,0.0,0.0,-2.6015,-2.5738,-2.5714,-2.5354,-2.457,-2.4505,-2.4246,-2.3695,-2.367,-2.3653,-2.3674,-2.3867,-2.3994,-2.4114,-2.4276,-2.4359,-2.4426,-2.4594,-2.4659,-2.4675,-2.4811,-2.4589,-2.4198,-2.4099,-2.4057,-2.3973,-2.3681,-2.3516,-2.329,-2.2692,-2.2437,-2.2278,-2.1653,0.0,0.0,0.0,0.0,0.0,0.0,0.0,0.0,0.0,0.0,0.0,0.0,0.0,0.0,0.0,0.0,0.0,0.0,0.0,0.0,-0.643,-0.5817,-0.5241,-0.4758,-0.48,-0.4727,-0.4431,-0.4539,-0.4553,-0.4282,-0.4616,-0.5066,-0.5484,-0.5636,-0.6085,-0.7048,-0.7489,-0.8201,-0.9368,-0.9651,-1.0363,-1.1568,-1.1787,-1.2387,-1.3315,0.0,0.0,-1.5458,-1.6258,-1.706,-1.7859,-1.822,-1.8997,-2.0078,-2.0609,-2.1733,-2.3097,-2.3429,-2.4035,-2.4775,-2.5752,-2.6245,-2.664,0.0,0.0,0.0,0.0,0.0,0.0,0.0,0.0,0.0,0.0,0.0,0.0,0.0,0.0,0.0,0.0,0.0,0.0,0.0,-2.61,-2.5834,-2.5304,-2.5304,-2.4965,-2.4221,-2.4294,-2.4193,-2.3852,-2.4078,-2.4183,-2.4219,-2.4431,-2.4594,-2.471,-2.4846,-2.4946,-2.5009,-2.5188,-2.525,-2.525,-2.5323,-2.5208,-2.4958,-2.4589,-2.4385,-2.4261,-2.3925,-2.3668,-2.3444,-2.2957,-2.2723,-2.2509,-2.2067,-2.1722,-2.141,0.0,0.0,0.0,0.0,0.0,0.0,0.0,0.0,0.0,0.0,0.0,0.0,0.0,0.0,-0.9314,-0.8583,0.0,-0.6839,-0.6106,-0.5541,-0.5072,-0.466,-0.4539,-0.4433,-0.43,-0.4461,-0.4524,-0.4429,-0.4632,-0.4985,-0.5388,-0.5536,-0.6035,-0.6943,-0.7437,-0.8201,-0.9368,-0.9816,-1.0527,-1.1568,-1.2005,-1.2659,-1.3537,-1.4229,-1.4976,-1.5725,-1.6411,-1.716,-1.8016,-1.8422,-1.9198,-2.0181,-2.096,-2.2131,-2.3447,-2.3786,-2.4332,-2.503,-2.5955,-2.64,-2.664,0.0,0.0,0.0,0.0,0.0,0.0,0.0,0.0,0.0,0.0,0.0,0.0,0.0,0.0,0.0,0.0,0.0,0.0,0.0,-2.5956,-2.5637,-2.4933,-2.4896,-2.4652,-2.4103,-2.4162,-2.4204,-2.4245,-2.4528,-2.469,-2.4731,-2.4985,-2.5143,-2.5262,-2.5375,-2.547,-2.5567,-2.5738,-2.5811,-2.583,-2.583,-2.583,-2.5756,-2.5224,-2.4866,-2.4564,-2.4213,-2.3876,-2.3516,-2.3127,-2.2814,-2.2555,-2.2123,-2.1722,-2.1326,-2.0883,-2.0397,0.0,0.0,0.0,0.0,0.0,0.0,0.0,0.0,-1.2403,-1.1568,-1.0554,-0.9821,-0.9103,-0.8139,-0.7366,-0.664,-0.5886,-0.5381,-0.4935,-0.4645,-0.4433,-0.4306,-0.4322,-0.4471,-0.4579,-0.455,-0.4743,-0.4987,-0.524,-0.5586,-0.6136,-0.6948,-0.7542,-0.8358,-0.9423,-1.0036,-1.0802,-1.1678,-1.2223,-1.293,-1.3802,-1.439,-1.5143,-1.5998,-1.6524,-1.7272,-1.8115,-1.8781,-1.9554,-2.0388,-2.1369,-2.2434,-2.3447,-2.3985,-2.448,-2.503,-2.61,-2.6496,-2.664,0.0,0.0,0.0,0.0,0.0,0.0,0.0,0.0,0.0,0.0,0.0,0.0,0.0,0.0,0.0,0.0,0.0,0.0,-2.4901,-2.4735,-2.4658,-2.456,-2.456,-2.4513,-2.4436,-2.4523,-2.4589,-2.4722,-2.4866,-2.5045,-2.522,-2.5317,-2.5527,-2.5807,-2.5842,-2.5936,-2.6134,-2.6207,-2.6226,-2.6242,-2.6296,-2.6296,-2.6207,-2.5956,-2.553,-2.4989,-2.4584,-2.4229,-2.3876,-2.3407,-2.3001,-2.2618,-2.2147,-2.1722,-2.1302,-2.0784,-2.0232,-1.9708,-1.9198,-1.8007,-1.6712,-1.5671,-1.4834,-1.4038,0.0,-1.233,-1.1495,-1.0738,-0.973,-0.8739,-0.7947,-0.7098,-0.6236,-0.5471,-0.5089,-0.4722,-0.4376,-0.43,-0.433,-0.4364,-0.451,-0.4508,-0.4341,-0.4829,-0.529,-0.5536,-0.6037,-0.6695,-0.753,-0.8118,-0.8835,-0.975,-1.0363,-1.1072,-1.1951,-1.255,-1.3256,-1.4169,-1.4713,-1.541,-1.6271,-1.6855,-1.7589,-1.8422,-1.9509,-2.0447,-2.1216,-2.1827,-2.2585,-2.3447,-2.4183,-2.4637,-2.503,-2.61,-2.6496,-2.664,0.0,0.0,0.0,0.0,0.0,0.0,0.0,0.0,0.0,0.0,0.0,0.0,0.0,0.0,0.0,0.0,0.0,0.0,-2.4909,-2.4806,-2.4726,-2.4564,-2.4564,-2.4564,-2.4564,-2.4746,-2.4866,-2.4922,-2.5217,-2.5391,-2.5467,-2.5659,-2.5862,-2.6078,-2.617,-2.6294,-2.6434,-2.6623,-2.6708,-2.6708,-2.6742,-2.6742,-2.6674,-2.6348,-2.5995,-2.5594,-2.4958,-2.4431,0.0,0.0,-2.3135,-2.264,-2.224,-2.1793,-2.1288,-2.0759,-2.0232,-1.9566,-1.8536,-1.7484,-1.6428,-1.5381,-1.4597,-1.3835,-1.2925,-1.2208,-1.1479,-1.0492,-0.97,-0.8815,-0.7808,-0.7037,-0.6296,-0.5571,-0.514,-0.4831,-0.4563,-0.4437,-0.4458,-0.4735,-0.4832,-0.4856,-0.4797,-0.5034,-0.5441,-0.6037,-0.6401,-0.703,-0.8108,-0.8461,-0.9198,-1.03,-1.0747,-1.135,-1.2219,-1.2989,-1.3743,-1.4439,-1.5196,-1.5891,-1.653,-1.7166,-1.8062,-1.9205,-1.999,-2.0814,-2.1573,-2.2123,-2.2736,-2.3447,-2.4192,-2.4686,-2.503,-2.61,-2.6496,-2.664,0.0,0.0,0.0,0.0,0.0,0.0,0.0,0.0,0.0,0.0,0.0,0.0,0.0,0.0,0.0,0.0,0.0,0.0,0.0,-2.5195,-2.4985,-2.4751,-2.4771,-2.4771,-2.4751,-2.4966,-2.5084,-2.5123,-2.5429,-2.5635,-2.5675,-2.5952,-2.6133,-2.6274,-2.6418,-2.6572,-2.6742,-2.6958,-2.7088,-2.7105,-2.7137,-2.7087,-2.7006,-2.6691,-2.6418,-2.6086,-2.531,-2.4719,0.0,0.0,-2.3312,-2.2754,-2.2356,-2.1864,-2.1288,-2.0759,-2.008,-1.9265,-1.8038,-1.7179,-1.6343,-1.5177,-1.4449,-1.377,-1.2818,-1.2202,-1.1516,-1.0502,-0.975,-0.896,-0.7783,-0.7093,-0.645,-0.5707,-0.5353,-0.5109,-0.4876,-0.4713,-0.4756,-0.5115,-0.5243,-0.5359,-0.5516,-0.5513,-0.5801,-0.6435,-0.6873,-0.7568,-0.8537,-0.9023,-0.9699,-1.0688,-1.1181,-1.1782,-1.255,-1.3418,-1.4175,-1.4869,-1.5565,-1.6258,-1.6942,-1.774,-1.8736,-1.9828,-2.0359,-2.1019,-2.1725,-2.2375,-2.2937,-2.3497,-2.4291,-2.4735,-2.503,-2.61,-2.6496,-2.664,0.0,0.0,0.0,0.0,0.0,0.0,0.0,0.0,0.0,0.0,0.0,0.0,0.0,0.0,0.0,0.0,0.0,0.0,0.0,-2.5646,-2.522,-2.5088,-2.5201,-2.522,-2.5088,-2.522,-2.5317,-2.5378,-2.5524,-2.5694,-2.5897,-2.6096,-2.6292,-2.6502,-2.6624,-2.6792,-2.6991,-2.7135,-2.7277,-2.7388,-2.7465,-2.7355,-2.7165,-2.704,-2.6742,-2.6314,-2.5626,0.0,0.0,-2.4156,-2.3603,-2.3016,-2.2555,-2.1949,-2.1288,-2.0759,-1.9759,-1.8652,-1.7913,-1.7179,-1.6343,-1.5177,-1.4449,-1.38,-1.3072,-1.2321,-1.1605,-1.0917,-0.9976,-0.8993,-0.797,-0.7369,-0.6695,-0.5746,-0.5656,-0.5581,-0.5242,-0.5168,-0.5248,-0.5458,-0.5728,-0.6057,0.0,-0.6454,-0.6435,-0.6659,-0.7638,-0.8387,-0.8797,-0.9831,-1.0505,-1.0684,-1.1787,-1.255,-1.2881,-1.3738,-1.4595,-1.5458,-1.5779,-1.6471,-1.7635,-1.8743,-1.9576,-2.013,-2.066,-2.1224,-2.1776,-2.2577,-2.3088,-2.3497,-2.4489,-2.4883,-2.503,-2.61,-2.6496,-2.664,0.0,0.0,0.0,0.0,0.0,0.0,0.0,0.0,0.0,0.0,0.0,0.0,0.0,0.0,0.0,0.0,0.0,0.0,0.0,-2.6487,-2.6026,-2.5911,-2.5499,-2.5294,-2.522,-2.5317,-2.5375,-2.5397,-2.5659,-2.5842,-2.5915,-2.6239,-2.645,-2.6502,-2.6792,-2.6942,-2.7007,-2.7294,-2.7434,-2.7465,-2.7542,-2.7511,-2.7371,-2.7198,-2.6907,-2.6539,0.0,0.0,0.0,-2.4343,-2.3696,-2.3016,-2.2555,-2.1949,-2.1215,-2.0334,-1.9474,-1.8625,-1.7886,-1.7179,-1.6371,-1.5352,-1.4722,-1.4132,-1.3448,-1.2816,-1.2142,-1.1187,-1.0325,-0.939,-0.8377,-0.7652,-0.7024,-0.6541,-0.6266,-0.6042,-0.5947,-0.5946,-0.6053,-0.6366,-0.66,0.0,0.0,0.0,0.0,-0.7822,-0.8345,-0.9026,-0.9881,-1.0375,-1.1008,-1.1782,-1.2223,-1.2817,-1.3738,-1.4223,-1.4922,-1.5779,-1.663,-1.7424,-1.816,-1.8952,-1.9576,-2.013,-2.0858,-2.1377,-2.1776,-2.2787,-2.3297,-2.3497,-2.4489,-2.4883,-2.503,-2.61,-2.6496,-2.664,0.0,0.0,0.0,0.0,0.0,0.0,0.0,0.0,0.0,0.0,0.0,0.0,0.0,0.0,0.0,0.0,0.0,0.0,0.0,0.0,-2.6772,-2.6379,-2.6001,-2.5648,-2.5352,-2.5413,-2.547,-2.547,-2.5715,-2.5844,-2.5915,-2.6239,-2.6433,-2.6502,-2.6775,-2.6941,-2.7039,-2.7277,-2.7465,-2.7542,-2.7557,-2.7542,-2.7481,-2.7261,-2.6972,0.0,0.0,0.0,0.0,-2.4508,-2.3839,-2.3083,-2.2586,-2.1827,-2.0932,-2.0055,-1.933,-1.8664,-1.7952,-1.7234,-1.647,-1.5684,-1.5086,-1.4521,-1.3939,-1.334,-1.2586,-1.1612,-1.07,-0.9834,-0.8899,-0.8141,-0.7545,-0.72,-0.6954,-0.6795,-0.666,-0.6798,-0.7011,-0.7249,-0.7581,-0.803,-0.8603,-0.8315,0.0,-0.8871,-0.9187,-0.9862,-1.0837,-1.1172,-1.1678,-1.255,-1.2871,-1.3413,-1.4169,-1.4761,-1.5565,-1.6524,-1.7424,-1.816,-1.8743,-1.9316,-1.9887,-2.0447,-2.1165,-2.1623,-2.2072,-2.2996,-2.3447,-2.3646,-2.4538,-2.4883,-2.503,-2.61,-2.6496,-2.664,0.0,0.0,0.0,0.0,0.0,0.0,0.0,0.0,0.0,0.0,0.0,0.0,0.0,0.0,0.0,0.0,0.0,0.0,0.0,0.0,0.0,-2.6659,-2.669,-2.6335,-2.5496,-2.5592,-2.5629,-2.5597,-2.5661,-2.5772,-2.5881,-2.6096,-2.6292,-2.6485,-2.664,-2.6841,-2.7069,-2.7165,-2.7355,-2.7572,-2.7526,-2.7496,-2.7465,-2.7198,0.0,0.0,0.0,0.0,-2.5114,-2.4645,-2.3946,-2.3164,-2.2603,-2.1585,-2.0485,-1.9952,-1.933,-1.8691,-1.8073,-1.7368,-1.6717,-1.6148,-1.5565,-1.4961,-1.4545,-1.3855,-1.304,-1.2238,-1.126,-1.0333,-0.9541,-0.8837,-0.8209,-0.7754,-0.7801,-0.7749,-0.7332,-0.781,-0.8106,-0.8,-0.8609,-0.9241,-0.9628,-0.9961,-1.0019,-0.9819,0.0,-1.0886,-1.161,-1.2169,-1.2604,-1.2935,-1.3792,-1.4223,-1.4277,-1.5405,-1.6524,-1.7635,-1.816,-1.8743,-1.9324,-1.9879,-2.0395,-2.0925,-2.1479,-2.1979,-2.2526,-2.3147,-2.3546,-2.3895,-2.4637,-2.4883,-2.503,-2.611,-2.6486,-2.661,0.0,0.0,0.0,0.0,0.0,0.0,0.0,0.0,0.0,0.0,0.0,0.0,0.0,0.0,0.0,0.0,0.0,0.0,0.0,0.0,0.0,0.0,0.0,0.0,0.0,0.0,0.0,0.0,0.0,-2.5719,-2.5772,-2.6061,-2.6238,-2.6274,-2.6572,-2.6741,-2.6808,-2.7037,-2.7181,-2.7324,0.0,-2.7373,-2.7244,0.0,0.0,0.0,0.0,0.0,-2.4918,-2.4487,-2.3588,-2.2532,-2.1874,-2.1177,-2.0485,-1.9952,-1.9396,-1.8813,-1.8088,-1.7694,-1.7281,-1.6547,-1.6229,-1.5953,-1.5273,-1.4684,-1.3986,-1.3077,-1.21,-1.1175,-1.0534,-0.9776,-0.9197,-0.891,-0.8923,-0.885,-0.8376,-0.8777,-0.9176,-0.9294,-0.9561,-1.0046,-1.0853,-1.1206,-1.165,0.0,-1.1656,-1.157,-1.2164,-1.2767,-1.331,-1.3846,-1.4277,-1.4815,-1.5458,-1.6577,-1.7318,-1.7635,-1.8586,-1.9168,-1.9324,-2.005,-2.0565,-2.0925,-2.1479,-2.1979,-2.2526,-2.3147,-2.3646,-2.4084,-2.4686,-2.503,-2.5284,-2.6159,-2.6285,-2.6135,0.0,0.0,0.0,0.0,0.0,0.0,0.0,0.0,0.0,0.0,0.0,0.0,0.0,0.0,0.0,0.0,0.0,0.0,0.0,0.0,0.0,0.0,0.0,0.0,0.0,0.0,0.0,0.0,0.0,0.0,0.0,-2.5842,-2.6005,-2.6115,-2.6365,-2.6504,-2.6573,0.0,0.0,0.0,0.0,0.0,0.0,0.0,0.0,0.0,0.0,-2.5118,-2.4277,-2.3831,-2.3068,-2.2208,-2.152,-2.0896,-2.0321,-1.9862,-1.9489,-1.908,-1.8515,-1.8229,-1.7999,-1.7441,-1.7079,-1.6698,-1.619,-1.5573,-1.484,-1.3897,-1.3094,-1.236,-1.1665,-1.0976,-1.0465,-1.0231,-1.0131,-0.9937,-0.9538,-0.9962,-1.0381,-1.0464,-1.082,-1.1338,-1.2116,-1.2496,-1.2932,-1.3683,-1.296,-1.2771,-1.3432,-1.3732,-1.4167,-1.493,-1.5093,-1.5672,-1.663,-1.7265,-1.7845,-1.837,-1.9011,-1.948,-1.9843,-2.0411,-2.0873,-2.1267,0.0,-2.2283,-2.2937,-2.3247,-2.3746,-2.4332,-2.4735,-2.5088,-2.5362,-2.5988,-2.6044,-2.5896,0.0,0.0,0.0,0.0,0.0,0.0,0.0,0.0,0.0,0.0,0.0,0.0,0.0,0.0,0.0,0.0,0.0,0.0,0.0,0.0,0.0,0.0,0.0,0.0,0.0,0.0,0.0,0.0,0.0,0.0,0.0,0.0,0.0,0.0,0.0,0.0,0.0,0.0,0.0,0.0,0.0,0.0,0.0,0.0,0.0,0.0,-2.5419,-2.4502,-2.3508,-2.3024,-2.254,-2.2044,-2.1375,-2.0788,-2.0246,-1.982,-1.9672,-1.9514,-1.909,-1.8917,-1.875,-1.8416,-1.7906,-1.7406,-1.7067,-1.6517,-1.5769,-1.4768,-1.423,-1.3679,-1.2929,-1.2294,-1.1828,-1.1547,-1.1288,-1.1044,-1.0751,-1.1203,-1.1537,-1.1598,-1.2179,-1.2823,-1.3435,-1.3737,-1.4095,-1.4687,-1.4292,-1.4329,-1.4947,-1.4859,-1.5171,-1.6028,-1.612,-1.6615,-1.7582,-1.774,-1.8325,-1.9279,-1.9428,-1.9843,-2.0573,-2.0822,-2.1275,-2.1776,0.0,0.0,-2.3397,-2.3447,-2.3895,-2.4578,-2.4728,-2.5003,-2.5295,-2.562,-2.5702,-2.5684,0.0,0.0,0.0,0.0,0.0,0.0,0.0,0.0,0.0,0.0,-3.4799,-3.3778,0.0,0.0,0.0,0.0,0.0,0.0,0.0,0.0,0.0,0.0,0.0,0.0,0.0,0.0,0.0,0.0,0.0,0.0,0.0,0.0,0.0,0.0,0.0,0.0,0.0,0.0,0.0,0.0,0.0,0.0,0.0,0.0,0.0,0.0,-2.4619,-2.3943,-2.3341,-2.2836,-2.2301,-2.1769,-2.1204,-2.0963,-2.0793,-2.0395,-2.022,-2.0074,-1.9599,-1.9471,-1.9288,-1.8712,-1.8541,-1.8372,-1.7696,-1.7392,-1.6956,-1.6124,-1.552,-1.4987,-1.4358,-1.3567,-1.2929,-1.2569,-1.2468,-1.2251,-1.1818,-1.2108,-1.2529,-1.2979,-1.3312,-1.3841,-1.4839,-1.5212,-1.5552,-1.5798,-1.6166,-1.6102,-1.5366,-1.5962,-1.6507,-1.6945,-1.7376,-1.7609,-1.7589,-1.8534,-1.9116,-1.9331,-1.9946,-2.0462,-2.0822,-2.1121,-2.1522,-2.203,0.0,0.0,-2.3397,-2.3646,-2.4143,-2.4796,-2.4514,-2.4708,-2.5137,-2.5265,-2.5058,-2.486,0.0,0.0,0.0,0.0,0.0,0.0,0.0,-3.6856,-3.6474,-3.6077,-3.5417,-3.4788,-3.4305,-3.3875,-3.3348,0.0,0.0,0.0,0.0,0.0,0.0,0.0,0.0,0.0,0.0,0.0,-2.8124,-2.7763,0.0,-2.6572,-2.6556,-2.5905,-2.5648,-2.5707,0.0,0.0,0.0,0.0,0.0,0.0,0.0,0.0,0.0,0.0,0.0,0.0,0.0,-2.4194,-2.3938,-2.342,-2.2859,-2.2305,-2.1592,-2.1108,-2.077,-2.0744,-2.0677,-2.0529,-2.0201,-2.0081,-1.9973,-1.9835,-1.9573,-1.925,-1.9049,-1.8631,-1.8089,-1.744,-1.6889,-1.6312,-1.5562,-1.5018,-1.447,-1.3995,-1.3921,-1.3809,-1.3452,-1.3683,-1.406,-1.4418,-1.4776,-1.5262,-1.5965,-1.6454,-1.6757,-1.7044,-1.7285,-1.7183,-1.6541,-1.7364,-1.7832,-1.7873,-1.8266,-1.8547,-1.8667,-1.9091,-1.9532,-1.9954,-2.0462,-2.0873,-2.1121,-2.1522,-2.1878,-2.2123,-2.2585,0.0,-2.3397,-2.3705,-2.4122,-2.4552,-2.4353,-2.4469,-2.4724,-2.4806,-2.4696,-2.4607,0.0,0.0,0.0,0.0,0.0,0.0,0.0,-3.7187,-3.691,-3.6322,-3.6126,-3.592,-3.5598,-3.4914,-3.4177,0.0,0.0,0.0,0.0,0.0,0.0,0.0,0.0,0.0,0.0,0.0,0.0,-2.8203,-2.7368,0.0,0.0,0.0,0.0,0.0,-2.5348,-2.5076,-2.497,0.0,0.0,0.0,0.0,-2.513,0.0,0.0,0.0,0.0,0.0,-2.4575,-2.444,-2.3926,-2.3398,-2.2844,-2.2194,-2.1505,-2.0984,-2.1136,-2.1115,-2.1056,-2.0966,-2.0799,-2.0753,-2.0994,-2.0593,-2.0205,-2.0231,-1.9809,-1.9221,-1.8639,-1.8168,-1.7643,-1.6854,-1.641,-1.6009,-1.538,-1.5385,-1.5303,-1.5022,-1.5234,-1.5516,-1.5783,-1.622,-1.6639,-1.7044,-1.7533,-1.7889,-1.811,-1.8227,0.0,-1.7889,-1.8679,-1.8984,-1.8786,-1.9041,-1.9331,-1.9694,-1.959,-1.9894,-2.0573,-2.0873,-2.1173,-2.1479,-2.1928,-2.2182,-2.2333,-2.2846,0.0,0.0,-2.3656,-2.3978,-2.4259,-2.4079,-2.4124,-2.4274,-2.4346,-2.4364,-2.4446,0.0,0.0,0.0,0.0,0.0,0.0,0.0,-3.7838,-3.7777,-3.7713,-3.7182,-3.6778,-3.6758,-3.6073,-3.5369,0.0,0.0,0.0,0.0,0.0,0.0,0.0,0.0,0.0,0.0,0.0,0.0,-2.8551,-2.7806,0.0,0.0,0.0,0.0,0.0,0.0,-2.5014,-2.4559,-2.4544,0.0,0.0,0.0,0.0,0.0,0.0,0.0,0.0,0.0,-2.4644,-2.4168,-2.3747,-2.3267,-2.2817,-2.2867,-2.2531,-2.2085,-2.1814,-2.168,-2.169,-2.1966,-2.1802,-2.1564,-2.1545,-2.1481,-2.1282,-2.0619,-2.0544,-2.0423,-1.9638,-1.9282,-1.8998,-1.8458,-1.7653,-1.6974,-1.6651,-1.6543,-1.632,-1.5877,-1.6283,-1.6725,-1.6981,-1.7302,-1.7695,-1.8177,-1.8577,-1.8758,-1.8816,-1.9345,0.0,-1.912,-1.9499,-1.9688,-1.9661,-1.9914,-1.9939,-1.9701,-2.0165,-2.0565,-2.0873,-2.1121,-2.1522,-2.203,-2.2072,-2.2384,-2.2946,-2.3247,0.0,0.0,-2.3602,-2.3816,-2.4202,-2.3418,-2.3415,-2.3844,-2.3843,-2.3858,-2.3978,0.0,0.0,0.0,0.0,0.0,0.0,-3.7788,-3.77,-3.7642,-3.7642,-3.7329,-3.7081,-3.7081,-3.6742,-3.6213,-3.5432,0.0,0.0,0.0,0.0,0.0,0.0,0.0,0.0,0.0,0.0,-2.9061,-2.8847,-2.8061,0.0,0.0,0.0,0.0,0.0,0.0,-2.5304,-2.5076,-2.4697,0.0,0.0,0.0,0.0,0.0,0.0,0.0,0.0,0.0,0.0,-2.4762,-2.4436,-2.3996,-2.3557,-2.3393,-2.3048,-2.2616,-2.2406,-2.2234,-2.216,-2.2294,-2.2212,-2.2162,-2.245,-2.2256,-2.2001,-2.2005,-2.1691,-2.1308,-2.0995,-2.0554,-2.0111,-1.9641,-1.9093,-1.8545,-1.8093,-1.804,-1.7869,-1.7463,-1.7939,-1.8251,-1.8222,-1.8658,-1.8988,-1.9223,-1.9577,-1.9809,-1.9968,-2.0392,0.0,-2.068,-2.068,-2.063,-2.0615,-2.0914,-2.0965,-2.0787,-2.0936,-2.1079,-2.1173,-2.1573,-2.1869,-2.2123,-2.2485,-2.2795,-2.3038,-2.3148,0.0,0.0,-2.321,-2.3269,-2.3474,-2.3134,-2.3166,-2.3423,-2.3694,-2.3797,-2.3927,0.0,0.0,0.0,0.0,0.0,-3.7642,-3.7642,-3.7494,-3.7405,-3.7405,-3.724,-3.715,-3.715,-3.706,-3.6759,-3.6188,-3.5471,0.0,0.0,0.0,0.0,0.0,0.0,0.0,0.0,0.0,-2.9372,-2.9087,-2.828,-2.7823,0.0,0.0,-2.652,-2.6327,0.0,0.0,0.0,0.0,0.0,0.0,0.0,0.0,0.0,0.0,0.0,0.0,0.0,0.0,0.0,0.0,0.0,-2.4005,-2.3833,-2.3462,-2.3065,-2.2954,-2.273,-2.2542,-2.2803,-2.2819,-2.2868,-2.3239,-2.3117,-2.2941,-2.3181,-2.2798,-2.2382,-2.2258,-2.1719,-2.1166,-2.0739,-2.0401,-1.9992,-1.9399,-1.9407,-1.9395,-1.8964,-1.9348,-1.9594,-1.9472,-1.9891,-2.0213,-2.0213,-2.05,-2.0788,-2.1067,-2.131,0.0,-2.1717,-2.1717,-2.166,-2.1489,-2.1724,-2.1767,-2.1626,-2.1669,-2.163,-2.1522,-2.1928,-2.2131,-2.2283,-2.2795,-2.2985,-2.2912,0.0,0.0,0.0,-2.2791,-2.2815,-2.2993,-2.287,-2.2955,-2.3144,-2.3624,-2.3797,-2.3927,0.0,0.0,0.0,0.0,0.0,0.0,-3.751,-3.7329,-3.7194,-3.7194,-3.7075,-3.7015,-3.7015,-3.7015,-3.6999,-3.6984,-3.6313,0.0,0.0,0.0,0.0,0.0,0.0,0.0,0.0,0.0,-2.9562,-2.9305,-2.8503,-2.8045,-2.7881,-2.7065,-2.6376,-2.581,0.0,0.0,0.0,0.0,0.0,0.0,0.0,0.0,0.0,0.0,0.0,0.0,0.0,0.0,0.0,0.0,0.0,0.0,0.0,-2.3885,-2.3477,-2.3477,-2.3127,-2.2903,-2.3753,-2.3851,-2.3734,-2.387,-2.4074,-2.418,-2.3799,-2.3741,-2.3687,-2.3264,-2.2666,-2.2075,-2.1826,-2.1579,-2.1157,-2.0585,-2.0653,-2.0604,-2.0128,-2.0393,-2.0614,-2.0647,-2.0976,-2.1174,-2.1174,-2.1417,-2.171,-2.2059,0.0,0.0,-2.2108,-2.2675,-2.2732,-2.2116,-2.2339,-2.2315,-2.1888,-2.2144,-2.22,-2.2072,-2.2072,-2.2283,-2.2594,-2.2896,-2.2886,0.0,0.0,0.0,0.0,-2.2455,-2.2602,-2.2964,-2.2558,-2.2706,-2.3144,-2.3624,-2.3797,-2.3927,0.0,0.0,0.0,0.0,0.0,0.0,0.0,-3.715,-3.7216,-3.7685,-3.7592,-3.7607,-3.7991,-3.7478,-3.7105,-3.7009,-3.626,0.0,0.0,0.0,0.0,0.0,0.0,0.0,0.0,0.0,-2.9819,-2.952,-2.8709,-2.8151,-2.7883,-2.7227,-2.6745,-2.6464,-2.6038,-2.574,0.0,0.0,0.0,0.0,0.0,0.0,0.0,0.0,0.0,0.0,0.0,0.0,0.0,0.0,0.0,0.0,0.0,0.0,0.0,-2.4307,-2.4104,-2.3805,-2.3954,-2.4342,-2.4696,-2.4599,-2.4733,-2.4809,-2.4692,-2.4226,-2.3792,-2.3803,-2.3543,-2.3259,-2.3178,-2.2909,-2.262,-2.2318,-2.2079,-2.1878,-2.1617,-2.1916,-2.2135,-2.1969,-2.2232,-2.2441,-2.2441,0.0,-2.2675,-2.3022,0.0,0.0,-2.3296,-2.352,-2.3352,-2.2732,-2.3191,-2.3168,-2.2539,-2.2761,-2.2657,-2.2072,-2.2333,-2.2594,-2.2896,-2.3147,0.0,0.0,0.0,0.0,0.0,-2.227,-2.2328,-2.2621,-2.2665,-2.2838,-2.3144,-2.3624,-2.3797,-2.3884,0.0,0.0,0.0,0.0,0.0,0.0,0.0,-3.7202,-3.7406,-3.7778,-3.7868,-3.7983,-3.8249,-3.7781,-3.7299,-3.6922,-3.6312,0.0,0.0,0.0,0.0,0.0,0.0,0.0,-3.1516,-3.069,-3.0075,-2.9676,-2.8898,-2.8364,-2.8057,-2.7381,-2.6917,-2.6637,-2.619,-2.5855,0.0,0.0,0.0,0.0,0.0,0.0,-2.5369,0.0,0.0,0.0,0.0,0.0,0.0,0.0,0.0,0.0,0.0,0.0,0.0,0.0,-2.4975,-2.4814,-2.4637,-2.4916,-2.5317,-2.5202,-2.5292,-2.5363,-2.5363,-2.4959,-2.4648,-2.4767,-2.4553,-2.4301,-2.4211,-2.3913,-2.3624,-2.3499,-2.3203,-2.3083,-2.3188,-2.3232,-2.319,-2.3061,-2.3215,-2.3352,0.0,-2.3352,-2.3408,0.0,0.0,0.0,-2.3913,-2.4033,-2.3921,-2.3528,-2.3865,-2.3731,-2.2983,-2.3249,-2.3088,-2.2434,-2.2644,-2.2896,-2.3147,-2.3246,0.0,0.0,0.0,0.0,0.0,-2.211,-2.223,-2.2441,-2.2706,-2.2925,-2.3144,-2.3624,-2.3797,-2.3884,0.0,0.0,0.0,0.0,0.0,0.0,0.0,-3.7406,-3.765,-3.7598,-3.7973,-3.8205,-3.8031,-3.7952,-3.7612,-3.6842,0.0,0.0,0.0,0.0,0.0,0.0,0.0,0.0,-3.1567,-3.0929,-3.0353,-2.9848,-2.9071,-2.861,-2.8385,-2.7594,-2.6939,-2.6443,-2.6216,-2.5787,0.0,0.0,0.0,0.0,-2.5084,-2.4998,0.0,0.0,0.0,0.0,0.0,0.0,0.0,0.0,0.0,0.0,0.0,0.0,0.0,0.0,0.0,0.0,0.0,-2.5599,-2.5604,-2.5724,-2.582,-2.5894,-2.5883,-2.591,0.0,-2.5955,-2.5582,-2.5193,-2.4983,-2.4647,-2.4398,-2.4301,-2.4161,-2.4226,-2.4737,-2.4319,-2.3972,-2.4039,-2.4033,-2.4033,-2.4033,-2.4033,-2.4033,0.0,0.0,0.0,-2.4033,-2.4312,-2.4487,-2.4487,-2.4462,-2.4044,-2.3266,-2.3542,-2.3471,-2.3046,-2.3046,-2.3138,-2.3393,-2.3175,0.0,0.0,0.0,0.0,0.0,-2.2008,-2.222,-2.2441,-2.2706,-2.2925,-2.3144,-2.3624,-2.3797,-2.3884,0.0,0.0,0.0,0.0,0.0,0.0,0.0,0.0,0.0,0.0,-3.8728,-3.8879,-3.9028,-3.8587,-3.8093,0.0,0.0,0.0,0.0,0.0,0.0,0.0,0.0,0.0,-3.2057,-3.103,-3.0464,-3.0337,-2.9281,-2.8706,-2.8548,-2.7746,-2.7238,-2.6992,-2.6492,-2.6166,0.0,0.0,0.0,0.0,-2.5834,-2.5743,0.0,0.0,0.0,0.0,-2.5401,-2.5492,0.0,0.0,0.0,0.0,0.0,0.0,0.0,0.0,-2.6373,-2.6401,-2.6407,0.0,-2.6352,-2.6063,-2.6497,-2.6912,0.0,-2.6541,-2.6455,-2.6455,-2.6194,-2.5979,-2.6077,-2.5976,-2.5913,-2.6025,-2.572,-2.5527,-2.5665,-2.5414,-2.5252,-2.5293,-2.5302,-2.5302,-2.5302,-2.5302,0.0,0.0,0.0,-2.5302,-2.5302,-2.5357,-2.5412,-2.5412,-2.5077,-2.4584,-2.3885,-2.3644,-2.3468,-2.3297,-2.3297,-2.3237,-2.3188,-2.3147,0.0,0.0,0.0,0.0,-2.1731,-2.2176,-2.2353,-2.2441,-2.2882,-2.3057,-2.3144,-2.345,-2.3667,-2.3841,0.0,0.0,0.0,0.0,0.0,0.0,0.0,0.0,0.0,0.0,0.0,0.0,0.0,0.0,0.0,0.0,0.0,0.0,0.0,0.0,0.0,0.0,0.0,-3.2806,-3.2293,-3.1293,-3.0642,-3.0411,-2.9528,-2.898,-2.8731,-2.795,-2.7408,-2.7046,-2.628,-2.5892,-2.5829,-2.5829,-2.5829,-2.5829,-2.5704,0.0,0.0,0.0,0.0,0.0,-2.5744,-2.5933,0.0,-2.6079,-2.6263,-2.6553,0.0,0.0,0.0,0.0,-2.6635,-2.6687,-2.7004,-2.689,-2.6713,-2.678,-2.7065,-2.7272,-2.7279,-2.7094,-2.6963,-2.7176,-2.703,-2.6914,-2.7068,-2.6844,-2.6746,-2.6856,-2.6603,-2.6352,-2.626,-2.62,-2.6008,-2.5734,-2.5688,-2.5688,0.0,0.0,0.0,0.0,0.0,-2.5688,-2.5688,-2.5688,-2.5599,-2.5431,-2.504,-2.4624,-2.4298,-2.3868,-2.3635,-2.3596,-2.3596,-2.3489,-2.3296,-2.3114,-2.2735,0.0,0.0,0.0,-2.1741,-2.222,-2.2397,-2.2441,-2.2916,-2.3091,-2.3135,-2.3406,-2.3634,-2.3841,0.0,0.0,0.0,0.0,0.0,0.0,0.0,0.0,0.0,0.0,0.0,0.0,0.0,0.0,0.0,0.0,0.0,0.0,0.0,0.0,0.0,0.0,0.0,-3.2613,-3.2387,-3.1569,-3.0911,-3.0396,-2.9767,-2.9228,-2.8796,-2.8112,-2.7472,-2.6875,-2.609,-2.5678,-2.5563,-2.5563,-2.5531,-2.5518,-2.5486,0.0,0.0,0.0,0.0,0.0,0.0,0.0,0.0,-2.6796,-2.6944,-2.7148,-2.7221,0.0,0.0,0.0,0.0,0.0,-2.7534,-2.7319,-2.7082,-2.7538,-2.7597,-2.7551,-2.7712,-2.7612,-2.7611,-2.8004,-2.7921,-2.7778,-2.7935,-2.76,-2.732,-2.7395,-2.7165,-2.6927,-2.6771,-2.6708,-2.6545,-2.6008,-2.5953,0.0,0.0,0.0,0.0,0.0,0.0,-2.5953,-2.5953,-2.5953,-2.5783,-2.529,-2.4933,-2.4639,-2.4524,-2.409,-2.3886,-2.3854,-2.3791,-2.3654,-2.3389,-2.2995,-2.2584,0.0,0.0,0.0,-2.1741,-2.222,-2.2397,-2.2441,-2.2916,-2.3091,-2.3144,-2.3363,-2.358,-2.3841,0.0,0.0,0.0,0.0,0.0,0.0,0.0,0.0,0.0,0.0,0.0,0.0,0.0,0.0,0.0,0.0,0.0,0.0,0.0,0.0,0.0,-3.2945,-3.3094,-3.2947,-3.2387,-3.1648,-3.1137,-3.0899,-2.9782,-2.8996,-2.8489,-2.8006,-2.7499,-2.6984,-2.6827,-2.6755,-2.6755,-2.6755,-2.6641,-2.646,-2.6312,0.0,0.0,0.0,0.0,0.0,0.0,0.0,0.0,-2.7126,-2.7038,-2.7007,-2.7299,0.0,0.0,0.0,0.0,0.0,-2.8418,-2.8339,-2.8125,-2.7948,-2.8219,-2.8377,-2.8051,-2.8244,-2.8519,-2.8583,-2.8537,-2.8499,-2.8727,-2.8655,-2.859,-2.8506,-2.8033,-2.7615,-2.7314,-2.726,-2.726,-2.7152,0.0,0.0,0.0,0.0,0.0,0.0,0.0,0.0,0.0,-2.7161,-2.6857,-2.6243,-2.5783,-2.531,-2.4774,-2.4153,-2.3918,-2.4143,-2.3755,-2.3331,-2.2986,-2.2565,-2.2163,0.0,0.0,-2.1696,-2.1741,-2.222,-2.2397,-2.2441,-2.2916,-2.3091,-2.3091,-2.3144,-2.344,-2.3884,0.0,0.0,0.0,0.0,0.0,0.0,0.0,0.0,0.0,0.0,0.0,0.0,0.0,0.0,0.0,0.0,0.0,0.0,0.0,0.0,0.0,-3.2485,-3.2602,-3.2566,-3.23,-3.1766,-3.1292,-3.1023,-3.0125,-2.9454,-2.898,-2.7972,-2.7202,-2.6546,-2.6465,-2.6396,-2.6408,-2.6709,-2.6799,-2.6719,0.0,0.0,0.0,0.0,0.0,0.0,0.0,0.0,0.0,0.0,-2.7459,-2.7639,-2.7952,0.0,0.0,0.0,0.0,0.0,-2.9042,-2.895,-2.8855,-2.9127,-2.9046,-2.8908,-2.885,-2.9072,-2.9353,-2.9413,-2.9337,-2.9216,-2.928,-2.9258,-2.9306,-2.9273,-2.8769,-2.8325,-2.8279,-2.7898,-2.7584,0.0,0.0,0.0,0.0,0.0,0.0,0.0,0.0,0.0,0.0,0.0,-2.6848,-2.6328,-2.5862,-2.5399,-2.4836,-2.4542,-2.435,-2.4192,-2.3739,-2.3288,-2.2895,-2.2474,-2.2062,-2.1696,0.0,-2.1785,-2.1919,-2.2264,-2.2485,-2.2662,-2.2969,-2.3091,-2.3135,-2.3406,-2.3624,-2.3884,0.0,0.0,0.0,0.0,0.0,0.0,0.0,0.0,0.0,0.0,0.0,0.0,0.0,0.0,0.0,0.0,0.0,0.0,0.0,0.0,-3.3594,-3.2113,-3.2023,-3.1986,-3.1986,-3.1633,-3.1299,-3.0911,-3.0368,-2.9823,-2.9274,-2.797,-2.7042,-2.6516,-2.6327,-2.6279,-2.6316,-2.6721,-2.6857,-2.6858,0.0,0.0,0.0,0.0,0.0,0.0,0.0,0.0,0.0,0.0,0.0,0.0,0.0,0.0,0.0,-2.9005,-2.9026,-2.8999,-2.9527,-2.9555,-2.9545,-3.0081,-2.9722,-2.9344,-2.9591,-2.9818,-3.0016,-3.0141,-3.0047,-2.9858,-2.9807,-2.9741,-2.9807,-3.0039,-2.9433,-2.8995,-2.9169,-2.8618,-2.8067,-2.7853,-2.7799,0.0,0.0,0.0,0.0,0.0,0.0,0.0,0.0,0.0,-2.6631,-2.6151,-2.5819,-2.5398,-2.4892,-2.4788,-2.4604,-2.4202,-2.3738,-2.3332,-2.2935,-2.2511,-2.216,-2.1865,-2.1865,-2.1963,-2.2185,-2.2397,-2.2618,-2.2803,-2.3013,-2.3091,-2.3135,-2.358,-2.3754,-2.3841,0.0,0.0,0.0,0.0,0.0,0.0,0.0,0.0,0.0,0.0,0.0,0.0,0.0,0.0,0.0,0.0,0.0,0.0,0.0,0.0,-3.2735,-3.171,-3.1471,-3.1347,-3.1347,-3.1161,-3.0962,-3.0736,-3.0305,-2.9631,-2.8636,-2.7879,-2.7471,-2.741,-2.7397,-2.7373,-2.741,-2.7447,-2.7336,-2.715,-2.7186,0.0,0.0,0.0,0.0,0.0,0.0,0.0,0.0,0.0,0.0,0.0,0.0,0.0,-2.9016,-2.9374,-2.9435,-2.955,-3.0032,-3.0331,-3.0463,-3.0261,-3.0036,-2.9921,-3.0105,-3.0328,-3.0464,-3.0457,-3.0404,-3.0349,-3.0328,-3.0262,-3.0309,-3.0768,-3.0201,-2.9711,-2.9742,0.0,-2.9026,0.0,0.0,0.0,0.0,0.0,0.0,0.0,0.0,0.0,0.0,0.0,0.0,-2.6035,-2.5987,-2.5616,-2.4892,-2.4514,-2.4325,-2.4268,-2.3881,-2.3456,-2.2985,-2.2579,-2.2381,-2.2353,-2.2353,-2.2353,-2.2397,-2.2662,-2.2803,-2.2803,-2.3013,-2.3091,-2.3135,-2.3416,-2.3634,-2.3841,0.0,0.0,0.0,0.0,0.0,0.0,0.0,0.0,0.0,0.0,0.0,0.0,0.0,0.0,0.0,0.0,0.0,0.0,0.0,-3.2726,-3.2284,-3.1275,-3.1136,-3.1011,-3.0748,-3.0798,-3.066,-3.0318,-2.987,-2.9235,-2.8383,-2.7984,-2.764,-2.7285,-2.7061,-2.6961,-2.6935,-2.7169,-2.7198,-2.7183,-2.7505,-2.7608,0.0,0.0,0.0,0.0,0.0,0.0,0.0,0.0,-2.885,-2.8901,0.0,-2.9337,-2.9385,-2.9791,-2.994,-3.0055,-3.0572,-3.0662,-3.0712,-3.1046,-3.0971,-3.0734,-3.0652,-3.0906,-3.1153,-3.096,-3.1172,-3.1317,-3.1263,-3.1237,-3.1197,-3.122,-3.0578,-3.0056,-3.0056,0.0,0.0,0.0,0.0,0.0,0.0,0.0,0.0,0.0,0.0,0.0,0.0,0.0,0.0,-2.6705,-2.6448,-2.6084,-2.5664,-2.5245,-2.48,-2.4341,-2.3631,-2.3153,-2.2983,-2.2577,-2.2397,-2.2397,-2.2397,-2.2485,-2.2662,-2.2759,-2.2882,-2.3013,-2.3057,-2.3091,-2.3135,-2.3406,-2.3634,-2.3841,0.0,0.0,0.0,0.0,0.0,0.0,0.0,0.0,0.0,0.0,0.0,0.0,0.0,0.0,0.0,0.0,0.0,0.0,-3.2184,-3.2082,-3.1708,-3.0937,-3.0836,-3.0634,-3.0292,-3.0394,-3.0279,-3.0011,-2.947,-2.8961,-2.845,-2.8179,-2.7869,-2.7519,-2.7147,-2.7005,-2.7029,-2.7239,-2.7364,-2.7387,-2.7752,-2.7893,0.0,0.0,0.0,0.0,0.0,0.0,0.0,0.0,0.0,0.0,0.0,0.0,0.0,0.0,-3.0331,-3.0549,-3.0916,-3.1085,-3.1283,-3.1732,-3.1838,-3.1712,-3.1328,-3.1429,-3.1622,-3.1579,-3.1875,-3.2126,-3.2131,-3.2055,-3.1894,0.0,-3.1158,-3.0582,0.0,0.0,0.0,0.0,0.0,0.0,0.0,0.0,0.0,0.0,0.0,0.0,0.0,0.0,0.0,0.0,-2.6647,-2.633,-2.5988,-2.5617,-2.5076,-2.4447,-2.3554,-2.3127,-2.3019,-2.2742,-2.2608,-2.2608,-2.2608,-2.275,-2.2882,-2.2882,-2.2969,-2.3091,-2.3091,-2.3091,-2.3135,-2.3319,-2.3537,-2.3841,0.0,0.0,0.0,0.0,0.0,0.0,0.0,0.0,0.0,0.0,0.0,0.0,0.0,0.0,0.0,0.0,0.0,0.0,-3.131,-3.1086,-3.0911,-3.0698,-3.0482,-3.0292,-3.0113,-2.9895,-2.9792,-2.9792,-2.9131,-2.8791,-2.8803,-2.8367,-2.8219,-2.8179,-2.8002,-2.7893,-2.7893,-2.7881,-2.7881,-2.7881,-2.7881,-2.7893,-2.7911,0.0,0.0,0.0,0.0,0.0,0.0,0.0,-2.9504,0.0,0.0,0.0,0.0,0.0,-3.0595,-3.1019,-3.1019,-3.1743,-3.244,-3.2158,-3.2506,-3.2729,-3.2128,-3.1823,-3.1771,-3.2285,-3.2553,-3.2739,-3.2882,-3.2529,-3.2359,-3.2827,-3.2114,-3.1392,0.0,0.0,0.0,0.0,0.0,0.0,0.0,0.0,0.0,0.0,0.0,0.0,0.0,0.0,0.0,0.0,-2.6496,-2.6275,-2.5785,-2.539,-2.4947,-2.4504,-2.3799,-2.3363,-2.3091,-2.3091,-2.3091,-2.3091,-2.3091,-2.3091,-2.3091,-2.3091,-2.3091,-2.3091,-2.3091,-2.3091,-2.3091,-2.3091,-2.3406,-2.3797,0.0,0.0,0.0,0.0,0.0,0.0,0.0,0.0,0.0,0.0,0.0,0.0,0.0,0.0,0.0,0.0,0.0,0.0,-3.071,-3.0596,-3.0482,-3.0267,-3.0088,-2.9844,-2.9625,-2.9275,-2.9091,-2.9091,-2.8776,-2.8538,-2.8367,-2.8111,-2.8002,-2.8002,-2.7736,-2.7615,-2.7615,-2.7464,-2.7394,-2.7394,-2.7394,-2.7643,-2.7979,0.0,0.0,0.0,0.0,0.0,0.0,0.0,0.0,0.0,0.0,0.0,0.0,-3.0216,-3.0595,-3.1088,-3.1456,-3.2007,-3.2532,-3.2662,-3.2778,-3.2779,-3.2443,-3.2128,-3.2053,-3.2742,-3.2919,-3.2998,-3.3147,-3.2791,-3.2351,-3.2009,-3.1678,-3.1338,0.0,0.0,0.0,0.0,0.0,0.0,0.0,0.0,0.0,0.0,0.0,0.0,0.0,0.0,0.0,0.0,-2.6998,-2.6584,-2.6077,-2.5371,-2.4824,-2.4504,-2.3964,-2.358,-2.3363,-2.3188,-2.3091,-2.3091,-2.3091,-2.3091,-2.3091,-2.3091,-2.3091,-2.3091,-2.3091,-2.3091,-2.3091,-2.3091,-2.3406,-2.3797,0.0,0.0,0.0,0.0,0.0,0.0,0.0,0.0,0.0,0.0,-3.1963,-3.1817,0.0,0.0,0.0,0.0,0.0,0.0,0.0,-3.0254,-3.0113,-2.9972,-2.9702,-2.9516,-2.9465,-2.9354,-2.9165,-2.8879,-2.8555,-2.8271,-2.807,-2.7869,-2.7748,-2.7748,-2.7493,-2.7371,-2.7371,-2.726,-2.719,-2.719,-2.719,-2.7529,-2.8,0.0,0.0,0.0,0.0,0.0,0.0,0.0,0.0,0.0,0.0,0.0,0.0,-3.0468,-3.0905,-3.1421,-3.1915,-3.242,-3.2879,-3.3012,-3.3042,-3.298,-3.2718,-3.2549,-3.2594,-3.293,-3.311,-3.3276,-3.3226,-3.2836,0.0,-3.1932,-3.1664,-3.1386,0.0,0.0,0.0,0.0,0.0,0.0,0.0,0.0,0.0,0.0,0.0,0.0,0.0,0.0,0.0,0.0,-2.7056,-2.6547,-2.596,-2.5458,-2.4954,-2.4506,-2.4145,-2.3894,-2.3764,-2.3416,-2.3188,-2.3091,-2.3091,-2.3091,-2.3091,-2.3091,-2.3091,-2.3091,-2.3091,-2.3091,-2.3091,-2.3232,-2.3493,-2.3841,0.0,0.0,0.0,0.0,0.0,0.0,0.0,0.0,0.0,0.0,-3.1535,-3.1373,0.0,0.0,0.0,0.0,0.0,0.0,0.0,0.0,-2.9753,-2.9753,-2.9349,-2.9267,-2.9541,-2.9827,-2.963,-2.8952,-2.8436,-2.8066,-2.7841,-2.7615,-2.7482,-2.7441,-2.726,-2.719,-2.719,-2.719,-2.719,-2.719,-2.719,-2.7564,-2.8092,-2.854,0.0,0.0,0.0,0.0,0.0,0.0,0.0,0.0,-3.0216,-3.0216,-3.0308,-3.0801,-3.1329,-3.1905,-3.2294,-3.2845,-3.3281,-3.3281,-3.3281,-3.3242,-3.2992,-3.3079,-3.3137,-3.2882,-3.3196,-3.34,-3.3165,-3.2729,-3.2422,-3.2422,-3.1976,0.0,0.0,0.0,0.0,0.0,0.0,0.0,0.0,0.0,0.0,0.0,0.0,0.0,0.0,0.0,0.0,-2.7264,-2.6806,-2.626,-2.5607,-2.5565,-2.5204,0.0,-2.4325,-2.4206,-2.4163,-2.3721,-2.3363,-2.3091,-2.3091,-2.3091,-2.3091,-2.3091,-2.3091,-2.3091,-2.3091,-2.3091,-2.3135,-2.3406,-2.3634,-2.3841,0.0,0.0,0.0,0.0,0.0,0.0,0.0,0.0,0.0,0.0,0.0,0.0,0.0,0.0,0.0,0.0,0.0,0.0,0.0,0.0,-2.926,-2.926,-2.9417,-2.9363,-2.9046,-2.9517,-2.9319,-2.8437,-2.8332,-2.8023,-2.7563,-2.7383,-2.726,-2.726,-2.7231,-2.719,-2.719,-2.719,-2.719,-2.719,-2.719,-2.7759,-2.8551,-2.8666,-2.9263,0.0,0.0,0.0,0.0,0.0,0.0,0.0,-3.0216,-3.0216,-3.0239,-3.0354,-3.1031,-3.1766,-3.1892,-3.2592,-3.3281,-3.3281,-3.3281,-3.3281,-3.3231,-3.3261,-3.3253,-3.3115,-3.3179,-3.3246,-3.3194,-3.2782,-3.2458,0.0,0.0,0.0,0.0,0.0,0.0,0.0,0.0,0.0,0.0,0.0,0.0,0.0,0.0,0.0,0.0,0.0,0.0,-2.7054,-2.6592,-2.6205,-2.5826,-2.5326,-2.4965,0.0,-2.4583,-2.4325,-2.4163,-2.3721,-2.3363,-2.3091,-2.3091,-2.3091,-2.3091,-2.3091,-2.3091,-2.3091,-2.3091,-2.3091,-2.3135,-2.3406,-2.3634,-2.3841,0.0,0.0,0.0,0.0,0.0,0.0,0.0,0.0,0.0,0.0,0.0,0.0,0.0,0.0,0.0,0.0,0.0,0.0,0.0,0.0,-2.8882,-2.8697,-2.9003,-2.9046,-2.8811,-2.9193,-2.9035,-2.83,-2.8187,-2.7879,-2.733,-2.726,-2.719,-2.719,-2.719,-2.719,-2.719,-2.719,-2.719,-2.719,-2.719,-2.7816,-2.87,-2.87,-2.9332,-3.0216,-3.0216,0.0,0.0,0.0,0.0,0.0,0.0,0.0,-3.0262,-3.0526,-3.1146,-3.18,-3.2041,-3.2684,-3.3281,-3.3281,-3.3281,-3.3281,-3.3281,-3.3281,-3.3311,-3.326,-3.3164,-3.3011,-3.2886,-3.2673,-3.2493,0.0,0.0,0.0,0.0,0.0,0.0,0.0,0.0,0.0,0.0,0.0,0.0,0.0,0.0,0.0,0.0,-2.7645,-2.7194,-2.6944,-2.6486,-2.6107,-2.5755,-2.5423,-2.5126,-2.4903,-2.4743,-2.454,-2.4163,-2.3721,-2.3416,-2.3276,-2.3144,-2.3091,-2.3091,-2.3091,-2.3091,-2.3091,-2.3091,-2.3091,-2.3144,-2.3493,-2.3711,-2.3841,0.0,0.0,0.0,0.0,0.0,0.0,0.0,0.0,0.0,0.0,0.0,0.0,0.0,0.0,0.0,0.0,0.0,0.0,0.0,0.0,0.0,-2.8179,-2.8498,-2.8657,-2.8615,-2.8951,-2.8823,-2.8247,-2.8091,-2.7725,-2.719,-2.719,-2.719,-2.719,-2.719,-2.719,-2.719,-2.719,-2.719,-2.7161,-2.7241,-2.7813,-2.8582,-2.8674,-2.9268,-3.008,-3.008,-3.0125,-3.0136,-3.0136,0.0,0.0,0.0,0.0,-3.0308,-3.0744,-3.1237,-3.1779,-3.2121,-3.2684,-3.3166,-3.3258,-3.3281,-3.3281,-3.3281,-3.3281,-3.3281,-3.3281,-3.3131,-3.288,-3.2656,-3.2656,0.0,0.0,0.0,0.0,0.0,0.0,0.0,0.0,0.0,0.0,0.0,0.0,0.0,0.0,0.0,0.0,-2.7939,-2.7446,-2.7082,-2.6847,-2.644,-2.6032,-2.5696,-2.5644,-2.5433,-2.5031,-2.4946,-2.4658,-2.4249,-2.3807,-2.359,-2.3503,-2.3232,-2.3091,-2.3091,-2.3091,-2.3091,-2.3091,-2.3091,-2.3091,-2.3144,-2.3624,-2.3797,-2.3884,0.0,0.0,0.0,0.0,0.0,0.0,0.0,0.0,0.0,0.0,-2.9972,-2.9767,0.0,0.0,0.0,0.0,0.0,0.0,0.0,0.0,0.0,-2.7921,-2.8427,-2.8574,-2.8365,-2.8823,-2.875,-2.8061,-2.8019,-2.7725,-2.719,-2.719,-2.719,-2.719,-2.719,-2.719,-2.719,-2.719,-2.7108,-2.6978,-2.7368,-2.7793,-2.8139,-2.8533,-2.9083,-2.9577,-2.9577,-2.9726,-2.9931,-2.9931,-3.0057,0.0,0.0,0.0,-3.0227,-3.0308,-3.0698,-3.1123,-3.1192,-3.1892,-3.2707,-3.3166,-3.3281,-3.3281,-3.3281,-3.3281,-3.3281,0.0,-3.3281,-3.3242,-3.3181,0.0,0.0,0.0,0.0,0.0,0.0,0.0,0.0,0.0,0.0,0.0,0.0,0.0,0.0,0.0,0.0,0.0,-2.7666,-2.7046,-2.6662,-2.6651,-2.6346,-2.6157,-2.6104,-2.577,-2.5559,-2.5517,-2.5084,-2.4743,-2.4454,-2.4196,-2.3894,-2.3503,-2.3232,-2.3091,-2.3091,-2.3091,-2.3091,-2.3091,-2.3091,-2.3091,-2.3144,-2.3624,-2.3797,-2.3884,0.0,0.0,0.0,0.0,0.0,0.0,0.0,0.0,0.0,0.0,0.0,-2.9378,0.0,0.0,0.0,0.0,0.0,0.0,0.0,0.0,0.0,-2.7696,-2.7807,-2.7812,-2.7688,-2.7907,-2.7877,-2.7564,-2.7564,-2.7449,-2.719,-2.719,-2.719,-2.719,-2.719,-2.719,-2.719,-2.7067,-2.6985,-2.6937,-2.7279,-2.7678,-2.8063,-2.8522,-2.9014,-2.9485,-2.9485,-2.9588,-2.9691,-2.9691,-2.9817,-3.0011,-3.0011,0.0,0.0,0.0,-3.0595,-3.1077,-3.1364,-3.1754,-3.2202,-3.2707,-3.2833,-3.2914,-3.3212,-3.3431,-3.353,-3.353,-3.363,-3.3679,0.0,0.0,0.0,0.0,0.0,0.0,0.0,0.0,0.0,0.0,0.0,0.0,0.0,0.0,0.0,0.0,0.0,-2.7881,-2.7571,-2.717,-2.6891,-2.6768,-2.6644,-2.649,-2.6199,-2.6032,-2.577,-2.538,-2.5031,-2.4743,-2.4497,-2.4292,-2.4034,-2.3677,-2.3406,-2.3232,-2.3091,-2.3091,-2.3091,-2.3091,-2.3091,-2.3091,-2.3144,-2.3624,-2.3797,-2.3884,0.0,0.0,0.0,0.0,0.0,0.0,0.0,0.0,0.0,0.0,0.0,0.0,0.0,0.0,0.0,0.0,0.0,0.0,0.0,0.0,0.0,-2.74,-2.726,-2.719,-2.719,-2.719,-2.719,-2.719,-2.719,-2.719,-2.719,-2.719,-2.719,-2.719,-2.719,-2.719,-2.719,-2.6974,-2.693,-2.7047,-2.729,-2.7641,-2.8033,-2.8533,-2.8978,-2.9301,-2.9301,-2.9347,-2.9393,-2.9393,-2.9634,-2.9886,-2.9886,-3.0057,0.0,0.0,0.0,-3.0928,-3.1433,-3.1582,-3.1733,-3.2264,-3.2391,-3.2577,-3.3169,0.0,-3.3627,0.0,-3.3977,0.0,0.0,0.0,0.0,0.0,0.0,0.0,0.0,0.0,0.0,0.0,0.0,0.0,0.0,0.0,0.0,0.0,0.0,-2.8034,-2.7626,-2.7371,-2.7219,-2.7056,-2.6933,-2.6685,-2.6313,-2.6199,-2.5812,-2.52,-2.5031,-2.4828,-2.4497,-2.4325,-2.411,-2.3797,-2.359,-2.3373,-2.3091,-2.3091,-2.3091,-2.3091,-2.3091,-2.3091,-2.3154,-2.3743,-2.3968,-2.4075,0.0,0.0,0.0,0.0,0.0,0.0,0.0,0.0,0.0,0.0,0.0,0.0,-2.855,-2.8339,-2.8139,-2.7973,-2.7921,0.0,0.0,0.0,0.0,-2.7231,-2.7231,0.0,-2.719,-2.719,-2.719,-2.719,-2.719,-2.719,-2.719,-2.719,-2.719,-2.719,-2.719,-2.719,-2.719,-2.6974,-2.705,-2.7312,-2.7588,-2.7811,-2.8058,-2.8585,-2.8828,-2.885,-2.885,-2.8943,-2.9128,-2.9128,-2.9462,-2.9886,-2.9886,-3.0057,-3.0216,0.0,0.0,0.0,-3.0905,-3.1054,-3.1215,-3.1935,-3.2099,-3.2333,0.0,0.0,-3.3488,-3.397,0.0,0.0,0.0,0.0,0.0,0.0,0.0,0.0,0.0,0.0,0.0,0.0,0.0,0.0,0.0,0.0,0.0,0.0,0.0,-2.7916,-2.7881,-2.7615,-2.7482,-2.7482,-2.7085,-2.6809,-2.6603,-2.6146,-2.5675,-2.52,-2.52,-2.4946,-2.4497,-2.4497,-2.4229,-2.3797,-2.359,-2.3373,-2.3091,-2.3091,-2.3091,-2.3091,-2.3091,-2.3091,-2.3227,-2.4137,-2.4474,-2.4579,0.0,0.0,0.0,0.0,0.0,0.0,0.0,0.0,0.0,0.0,0.0,0.0,0.0,-2.8111,-2.7909,-2.7655,-2.7516,0.0,0.0,0.0,0.0,-2.7026,-2.7026,-2.7067,-2.719,-2.719,-2.719,-2.719,-2.719,-2.719,-2.719,-2.719,-2.719,-2.719,-2.719,-2.719,-2.719,-2.685,-2.6936,-2.7303,-2.7392,-2.7655,-2.8045,-2.8617,-2.9,-2.9274,-2.9274,-2.9471,-2.9737,-2.9467,-2.9615,-2.9851,-2.9701,-2.9829,-3.0011,-3.017,-3.0216,-3.0262,-3.0445,-3.0594,-3.0904,-3.1519,-3.1774,-3.1996,-3.2641,-3.2901,-3.3102,-3.328,0.0,0.0,0.0,0.0,0.0,0.0,0.0,0.0,0.0,0.0,0.0,0.0,0.0,0.0,0.0,0.0,0.0,0.0,0.0,0.0,-2.8111,-2.7869,-2.7696,-2.7522,-2.736,-2.7044,-2.6603,-2.6146,-2.5675,-2.52,-2.52,-2.4956,-2.4497,-2.4497,-2.4325,-2.4024,-2.3797,-2.345,-2.312,-2.3437,-2.3555,-2.3584,-2.3812,-2.391,-2.402,-2.4696,-2.4947,-2.5058,0.0,0.0,0.0,0.0,0.0,0.0,0.0,0.0,-2.8752,-2.8605,0.0,0.0,0.0,0.0,-2.7626,-2.733,-2.7179,-2.7015,-2.6809,-2.6809,-2.6809,-2.6809,-2.685,-2.6974,-2.7108,-2.719,-2.719,-2.719,-2.719,-2.719,-2.719,-2.719,-2.719,-2.719,-2.719,-2.719,-2.719,-2.6768,-2.6942,-2.7495,-2.736,-2.7697,-2.8331,-2.8822,-2.9252,-2.95,-2.9674,-2.9936,-3.0166,-2.9838,-2.9833,-2.9883,-2.968,-2.9734,-2.9931,-3.0136,-3.0216,-3.0216,-3.0216,-3.0397,-3.0716,-3.1168,-3.1432,-3.1744,-3.2333,-3.265,-3.2848,-3.3015,0.0,0.0,0.0,0.0,0.0,0.0,0.0,0.0,0.0,0.0,0.0,0.0,0.0,0.0,0.0,0.0,0.0,0.0,0.0,0.0,-2.8299,-2.8111,-2.7869,-2.751,-2.736,-2.7085,-2.6603,-2.6188,-2.577,-2.5327,-2.5242,-2.4988,-2.4615,-2.454,-2.4368,-2.4206,-2.4089,-2.3799,-2.3457,-2.3717,-2.3877,-2.4033,-2.4307,-2.446,-2.4582,-2.5201,-2.5446,-2.564,0.0,0.0,0.0,0.0,0.0,0.0,0.0,0.0,-2.8645,-2.8259,0.0,0.0,0.0,0.0,0.0,-2.6933,-2.6891,-2.6809,-2.6603,-2.6603,-2.6603,-2.6603,0.0,0.0,-2.6891,-2.7097,-2.719,-2.719,-2.719,-2.719,-2.719,-2.719,-2.719,-2.719,-2.719,-2.719,-2.719,-2.6768,-2.7133,-2.7964,-2.7503,-2.7894,-2.8858,-2.9292,-2.9489,-2.9565,-3.0057,-3.0242,-3.0253,-3.0242,-3.006,-2.9913,-2.988,-2.9864,-2.9931,-3.0136,-3.0216,-3.0216,0.0,0.0,0.0,-3.0927,-3.1139,0.0,-3.2313,0.0,-3.2623,-3.314,0.0,0.0,0.0,0.0,0.0,0.0,0.0,0.0,0.0,0.0,0.0,0.0,0.0,0.0,0.0,0.0,0.0,0.0,0.0,-2.8724,-2.851,-2.8299,-2.8007,-2.7522,-2.7126,-2.6809,-2.6603,-2.6313,-2.5979,-2.5601,-2.5338,-2.5073,-2.4903,-2.4615,-2.4368,-2.4227,-2.4412,-2.4381,-2.4113,-2.3908,-2.4072,-2.4434,-2.4443,-2.4601,-2.4937,-2.5598,-2.5973,-2.6351,0.0,0.0,0.0,0.0,0.0,-2.8764,-2.8407,-2.8367,-2.8259,0.0,0.0,0.0,-2.751,-2.7249,-2.6974,-2.6727,-2.6685,-2.6561,-2.6324,-2.6313,-2.6313,-2.6313,-2.6354,-2.6561,-2.6891,-2.6933,-2.7067,-2.719,-2.719,-2.719,-2.719,-2.719,-2.719,-2.719,-2.719,-2.719,-2.719,-2.6768,-2.7133,-2.7964,-2.7503,-2.7894,-2.8858,-2.9292,-2.9707,-3.0078,-3.0537,-3.093,-3.1181,-3.0821,-3.0444,-3.0038,-2.97,-2.9758,-2.9931,-3.0136,-3.0216,-3.0216,-3.0216,0.0,0.0,0.0,0.0,0.0,0.0,0.0,0.0,0.0,0.0,0.0,0.0,0.0,0.0,0.0,0.0,0.0,0.0,0.0,0.0,0.0,0.0,0.0,0.0,0.0,0.0,0.0,-2.9532,-2.8803,-2.8724,-2.8379,-2.8059,-2.78,-2.736,-2.6951,-2.6603,-2.6313,-2.5979,-2.5601,-2.5338,-2.5073,-2.4903,-2.4615,-2.4454,-2.4442,-2.4686,-2.4919,-2.5098,-2.4822,-2.4832,-2.4969,-2.5425,-2.5686,-2.5801,-2.637,-2.6659,-2.6812,0.0,0.0,0.0,0.0,0.0,-2.8486,-2.8259,-2.8139,-2.799,0.0,0.0,0.0,-2.7536,-2.7432,-2.7273,-2.7093,-2.685,-2.6612,-2.637,-2.6184,-2.6063,-2.6063,-2.6157,-2.6396,-2.6768,-2.685,-2.7015,-2.719,-2.719,-2.719,-2.719,-2.719,-2.719,-2.719,-2.719,-2.719,-2.719,-2.6768,-2.7133,-2.7964,-2.7503,-2.7894,-2.8869,-2.9521,-2.9969,-3.0297,-3.0963,-3.1389,-3.1575,-3.1291,-3.0756,-3.0176,-2.9858,-2.9757,-2.9772,-3.0136,-3.0216,-3.0216,-3.0216,-3.0601,-3.0984,-3.0984,0.0,0.0,-3.1705,-3.1705,0.0,0.0,0.0,0.0,0.0,0.0,0.0,0.0,0.0,0.0,0.0,0.0,0.0,0.0,0.0,0.0,0.0,0.0,0.0,-3.061,-2.961,-2.8988,-2.8791,-2.8407,-2.8111,-2.7933,-2.7534,-2.7115,-2.6727,-2.6479,-2.6188,-2.5864,-2.5506,-2.5253,-2.5031,-2.4786,-2.4729,-2.4817,-2.505,-2.5411,-2.5813,-2.5687,-2.5676,-2.5706,-2.6098,-2.6352,-2.6448,-2.6805,-2.7034,-2.7272,0.0,0.0,-2.8803,-2.8764,-2.8447,-2.8167,-2.8139,-2.795,-2.7771,0.0,-2.7568,-2.7582,-2.7601,-2.7826,-2.7876,-2.7646,-2.7226,-2.6854,-2.6704,-2.6256,-2.5983,-2.5983,-2.6096,-2.6313,-2.6592,-2.6768,-2.6985,-2.719,-2.719,-2.719,-2.719,-2.719,-2.719,-2.719,-2.719,-2.719,-2.719,-2.6824,-2.7189,-2.7964,-2.7503,-2.7894,-2.8902,-2.9838,-3.0209,-3.033,-3.128,-3.1618,-3.1567,-3.1564,-3.0952,-3.0182,-3.0156,-2.9842,-2.9577,-3.0045,-3.017,-3.0216,-3.0216,-3.0556,-3.0972,-3.0972,-3.1318,0.0,-3.1705,-3.1705,-3.1705,0.0,0.0,0.0,0.0,0.0,0.0,0.0,0.0,0.0,0.0,0.0,0.0,0.0,0.0,0.0,0.0,-3.1712,-3.1091,-3.0393,-2.9742,-2.9223,-2.8831,-2.8447,-2.8139,-2.7933,-2.7655,-2.733,-2.6891,-2.6685,-2.6479,-2.6199,-2.577,-2.5464,-2.52,-2.5041,-2.5046,-2.522,-2.5491,-2.5839,-2.6247,-2.6506,-2.6544,-2.6496,-2.6544,-2.6699,-2.69,-2.6948,-2.7225,-2.7631,0.0,-2.8843,-2.8685,-2.8367,-2.8259,-2.8047,-2.7684,-2.7603,-2.7673,-2.7854,-2.8099,-2.8096,-2.772,-2.7733,-2.7646,-2.7403,-2.7272,-2.7217,-2.7173,-2.6736,-2.6442,-2.6442,-2.6156,-2.6146,-2.6603,-2.6644,-2.685,-2.719,-2.719,-2.719,-2.719,-2.719,-2.719,-2.719,-2.719,-2.719,-2.7213,-2.7155,-2.7502,-2.7964,-2.7503,-2.7894,-2.8902,-2.9838,-3.0209,-3.033,-3.128,-3.1618,-3.1564,-3.1171,-3.0668,-3.0182,-2.9987,-2.9771,-2.9542,-2.9874,-3.0045,-3.0216,-3.0216,-3.0442,-3.0724,-3.0927,-3.1184,0.0,-3.1661,-3.1705,-3.1705,0.0,0.0,0.0,0.0,0.0,0.0,0.0,0.0,0.0,0.0,0.0,0.0,0.0,0.0,0.0,0.0,-3.1712,-3.1173,-3.0566,-2.9833,-2.9223,-2.8831,-2.8724,-2.8459,-2.7933,-2.7841,-2.7516,-2.6903,-2.6685,-2.6479,-2.6199,-2.577,-2.5464,-2.5211,-2.5378,-2.5349,-2.523,-2.6047,-2.645,-2.6563,-2.6971,-2.688,-2.6496,-2.6747,-2.6853,-2.6948,-2.7129,-2.7404,-2.7631,-2.8657,-2.8566,-2.8447,-2.8259,-2.8007,-2.7765,-2.7563,-2.762,-2.7762,-2.7786,-2.8136,-2.8332,-2.8066,-2.8186,-2.8172,-2.8081,-2.7807,-2.7631,-2.7631,-2.7184,-2.6824,-2.6595,-2.6355,-2.6358,-2.6603,-2.6603,-2.6809,-2.719,-2.719,-2.719,-2.719,-2.719,-2.719,-2.719,-2.719,-2.719,-2.7183,-2.7268,-2.7549,-2.7986,-2.7722,-2.8112,-2.8902,-2.9838,-3.0209,-3.033,-3.128,-3.1618,-3.1553,-3.1061,-3.0592,-3.0182,-2.9951,-2.9724,-2.9531,-2.984,-3.0057,-3.0216,-3.0216,-3.0397,-3.0668,-3.0927,-3.1139,0.0,0.0,-3.1705,-3.1705,-3.1705,-3.1705,0.0,0.0,0.0,0.0,0.0,0.0,0.0,0.0,0.0,0.0,0.0,0.0,0.0,0.0,-3.1323,-3.0783,-3.0244,-2.971,-2.9263,-2.8961,-2.8831,-2.8566,-2.807,-2.7962,-2.7679,-2.7208,-2.6798,-2.652,-2.6396,-2.5948,-2.5644,-2.5401,-2.5786,-2.5876,-2.5729,-2.6462,-2.6853,-2.6978,-2.7216,-2.7253,-2.7207,-2.7362,-2.741,-2.7479,-2.7939,-2.8313,-2.8517,-2.8431,-2.8271,-2.8139,-2.8047,-2.7765,-2.7516,-2.7568,-2.7785,-2.7889,-2.7784,-2.8288,-2.8673,-2.8616,-2.8896,-2.9077,-2.9077,-2.8593,-2.8274,-2.8274,-2.7729,-2.7293,-2.6878,-2.6725,-2.6686,-2.6749,-2.6689,-2.685,-2.719,0.0,0.0,0.0,-2.719,-2.719,-2.719,-2.719,-2.719,-2.7236,-2.7369,-2.7639,-2.802,-2.8095,-2.8407,-2.8902,-2.974,-3.0084,-3.0242,-3.1189,-3.1527,-3.1451,-3.1061,-3.0592,-3.0182,-2.9903,-2.9678,-2.9531,-2.9737,-3.0,-3.0216,-3.0216,-3.0352,-3.0578,-3.0883,-3.1095,-3.1282,0.0,0.0,0.0,0.0,0.0,0.0,0.0,0.0,0.0,0.0,0.0,0.0,0.0,0.0,0.0,0.0,0.0,0.0,0.0,-3.0771,-3.0269,-2.9829,-2.9599,-2.9353,-2.9091,-2.8961,-2.8645,-2.8219,-2.8002,-2.7788,-2.7522,-2.6921,-2.6644,-2.6592,-2.6146,-2.5866,-2.5763,-2.6206,-2.645,-2.6438,-2.6967,-2.7295,-2.7452,-2.7546,-2.7748,-2.807,-2.8022,-2.8025,-2.8188,-2.8859,-2.9254,-2.9511,-2.8179,-2.807,-2.7869,-2.7603,-2.7563,-2.7591,-2.79,-2.7775,-2.7798,-2.8244,-2.9117,-2.9631,-2.942,-2.9751,-3.0046,-3.0046,-2.9598,-2.9314,-2.9314,-2.8462,-2.7893,-2.7838,-2.7228,-2.6958,-2.7222,-2.6994,-2.6985,-2.719,-2.719,0.0,0.0,0.0,-2.719,-2.719,-2.719,-2.719,-2.7206,-2.7698,-2.7952,-2.8042,-2.8503,-2.8749,-2.8858,-2.9358,-2.9693,-2.9958,-3.0895,-3.123,-3.1206,0.0,-3.0592,-3.0122,-2.9689,-2.9515,-2.9485,-2.9531,-2.9852,-3.0216,-3.0216,-3.0216,-3.0306,-3.0578,-3.0826,-3.0944,-3.068,0.0,-3.0874,-3.0362,0.0,0.0,-3.0266,0.0,0.0,0.0,0.0,0.0,0.0,0.0,0.0,0.0,0.0,0.0,0.0,0.0,-2.9867,-2.9792,-2.9792,-2.9585,-2.9131,-2.9091,-2.8816,-2.8219,-2.8002,-2.7788,-2.7522,-2.7085,-2.6768,-2.6603,-2.6313,-2.6178,-2.6217,-2.6702,-2.702,-2.7186,-2.7664,-2.7898,-2.7935,-2.8349,-2.8561,-2.8603,-2.841,-2.8565,-2.8922,-2.9303,-2.9571,-2.9796,-2.799,-2.7817,-2.7615,-2.7522,-2.7655,-2.7766,-2.7786,-2.7923,-2.8344,-2.9161,-2.9484,-2.9741,-2.9882,-3.0089,-3.0209,-3.0209,-3.0024,-2.9784,-2.95,-2.9106,-2.8626,-2.8023,-2.7613,-2.7334,-2.7312,-2.7028,-2.7015,-2.719,-2.719,-2.719,0.0,0.0,-2.719,-2.719,-2.719,-2.719,-2.7259,-2.7755,-2.8008,-2.8053,-2.8558,-2.8803,0.0,-2.9292,-2.9639,-2.9861,-3.0249,-3.0389,-3.0374,0.0,-2.9947,0.0,0.0,-2.9283,-2.9485,-2.9485,-2.9852,-3.0216,-3.0216,-3.0216,-3.0261,-3.0532,-3.0559,-3.0511,-3.0494,-3.0467,-3.035,-3.0134,0.0,0.0,0.0,0.0,0.0,0.0,-3.1055,0.0,0.0,0.0,0.0,0.0,0.0,0.0,0.0,0.0,0.0,0.0,0.0,-2.9663,-2.9275,-2.917,-2.8934,-2.8566,-2.8219,-2.795,-2.7748,-2.729,-2.6962,-2.6768,-2.6674,-2.6622,-2.667,-2.7314,-2.758,-2.7557,-2.8029,-2.8299,-2.8423,-2.8615,-2.903,-2.953,-2.9569,-2.9636,-2.9698,-3.0288,-3.0637,-3.0867,-2.7854,-2.7638,-2.7447,-2.7626,-2.7766,-2.7869,-2.7854,-2.8377,-2.9048,-2.9697,-2.9862,-3.0002,-3.0362,-3.0515,-3.0603,-3.0603,-3.0482,-3.0253,-2.9893,-2.962,-2.9172,-2.8416,-2.812,-2.7843,-2.7482,-2.7315,-2.7204,-2.719,-2.719,-2.719,0.0,0.0,-2.719,-2.719,-2.719,-2.719,-2.7247,-2.7651,-2.7885,-2.8031,-2.8415,-2.8683,-2.8858,-2.915,-2.9348,-2.9515,-2.9644,-2.9698,-2.9671,-2.9546,-2.9489,0.0,-2.8957,0.0,-2.9485,-2.9485,-2.9852,-3.0216,-3.0216,0.0,0.0,0.0,0.0,0.0,0.0,0.0,0.0,0.0,0.0,0.0,0.0,0.0,-3.0041,-3.0282,0.0,-3.0705,0.0,0.0,0.0,0.0,0.0,0.0,0.0,0.0,0.0,0.0,-2.9792,-2.9702,-2.9419,-2.9197,-2.9013,-2.8803,-2.8407,-2.8111,-2.7893,-2.7482,-2.7224,-2.7096,-2.7026,-2.7124,-2.7314,-2.7809,-2.8021,-2.8036,-2.8524,-2.8783,-2.8914,-2.9219,-2.9685,-3.0378,-3.0748,-3.0803,-3.0705,-3.1192,-3.1516,-3.1772,-2.7904,-2.7564,-2.738,-2.7874,-2.7767,-2.7766,-2.8288,-2.9227,-2.9763,-2.9525,-3.0286,-3.0854,-3.0876,-3.1302,-3.1575,-3.1575,-3.1149,-3.0865,-3.0854,-2.9991,-2.9467,-2.9434,-2.893,-2.8466,-2.7997,-2.7963,-2.7713,-2.719,-2.719,-2.719,0.0,0.0,-2.719,-2.719,-2.719,-2.719,-2.7224,-2.7279,-2.7571,-2.8009,-2.8007,-2.8342,-2.8811,0.0,-2.871,-2.8785,-2.9242,0.0,0.0,-2.9498,-2.9489,0.0,0.0,0.0,0.0,0.0,0.0,0.0,0.0,0.0,0.0,-3.0216,0.0,0.0,0.0,0.0,-2.8956,0.0,0.0,-2.8558,-2.8558,-2.8706,-2.8931,-2.9101,-2.9324,0.0,0.0,0.0,0.0,0.0,0.0,0.0,0.0,0.0,0.0,-2.9792,-2.9792,-2.9702,-2.9419,-2.9197,-2.9013,-2.8803,-2.8407,-2.8111,-2.7893,-2.7615,-2.752,-2.7583,-2.7375,-2.7664,-2.8342,-2.8116,-2.8298,-2.8803,-2.9248,-2.9467,-2.9554,-3.0472,-3.0865,-3.0941,-3.1653,-3.1942,-3.1953,-3.1964,-3.1975,-3.2077,-2.7976,-2.7843,-2.7861,-2.8191,-2.8313,-2.8567,-2.9296,-2.9528,-2.9814,-3.0341,-3.069,-3.1018,-3.1334,-3.152,-3.1618,-3.1618,-3.1465,-3.1236,-3.0919,-3.0592,-3.0241,-2.9771,-2.9435,-2.9071,-2.8744,-2.8231,-2.7897,-2.7725,-2.7351,-2.719,-2.719,-2.719,-2.719,-2.719,-2.719,-2.719,-2.7183,-2.7268,-2.7549,-2.8031,0.0,-2.8661,-2.8768,0.0,0.0,-2.8511,-2.8672,-2.8726,0.0,-2.8969,-2.9044,-2.9022,-2.8858,-2.9117,-2.9485,-2.9485,-2.9852,0.0,0.0,0.0,-3.0135,-2.9814,0.0,0.0,0.0,0.0,0.0,0.0,0.0,0.0,-2.851,-2.8538,-2.8697,-2.9052,-2.917,-2.9326,0.0,-2.9792,0.0,0.0,0.0,0.0,0.0,0.0,0.0,-2.9792,-2.9792,-2.9753,0.0,-2.93,-2.9052,-2.9013,-2.8618,-2.8398,-2.8363,-2.8281,-2.8277,-2.832,-2.8445,-2.8521,-2.8578,-2.8684,-2.8918,-2.9296,-2.9412,-2.9838,-3.0439,-3.0976,-3.1345,-3.1682,-3.2162,-3.2331,-3.2331,-3.2331,-3.2454,-3.2667,-2.8231,-2.8177,-2.8221,-2.8474,-2.8847,-2.9289,-2.9697,-2.9869,-3.0199,-3.081,-3.1203,-3.1542,-3.1859,-3.2033,-3.2077,-3.1902,-3.1891,-3.1684,-3.1181,-3.1096,-3.0756,-3.0179,-2.9999,-2.9635,-2.9114,-2.8525,-2.8149,-2.7977,-2.7472,-2.719,-2.719,-2.719,-2.719,-2.719,-2.719,-2.719,-2.7213,-2.716,-2.7478,-2.8053,0.0,-2.8803,0.0,0.0,-2.8488,-2.8395,0.0,-2.8395,-2.8441,-2.871,-2.8803,-2.8803,-2.8803,-2.9117,-2.9485,-2.9485,-2.9852,-3.0216,-3.0216,-3.0089,0.0,-2.9573,-2.9051,0.0,-2.8507,0.0,-2.8151,0.0,0.0,0.0,-2.851,-2.851,-2.863,-2.9013,-2.9091,-2.9248,0.0,-2.9792,0.0,0.0,0.0,-2.9792,0.0,0.0,-2.9792,-2.9792,-2.9792,-2.9792,0.0,0.0,-2.917,-2.9091,-2.8958,-2.8862,-2.8746,-2.8851,-2.8939,-2.9106,-2.9077,-2.9116,-2.9139,-2.9403,-2.9617,-2.9796,-3.0138,-3.0634,-3.1208,-3.1556,-3.1901,-3.2229,-3.2505,-3.2656,-3.2656,-3.2656,-3.2869,-3.3231,-2.8612,-2.8565,-2.8497,-2.8701,-2.9353,-2.9807,-2.9591,-3.0319,-3.0898,-3.093,-3.1782,-3.2383,-3.2383,-3.2829,-3.2906,-3.2427,-3.2361,-3.2143,-3.16,-3.1416,-3.113,-3.0659,-3.0611,-3.0169,-2.916,-2.8845,-2.8471,-2.8012,-2.7483,-2.719,-2.719,-2.719,-2.719,-2.719,-2.719,-2.719,-2.719,-2.6974,-2.7313,-2.8042,-2.8536,-2.8781,-2.8803,-2.8803,-2.8617,-2.8395,-2.8395,-2.8395,-2.8441,-2.871,-2.8803,-2.8803,-2.8803,-2.9117,-2.9485,-2.9485,-2.9852,-3.0204,-3.0181,-2.9848,-2.9481,-2.9435,0.0,0.0,0.0,0.0,-2.7962,0.0,0.0,0.0,0.0,-2.851,-2.863,-2.9013,-2.9131,-2.93,-2.9753,-2.9792,-2.9792,0.0,0.0,-2.9792,-2.9792,-2.9792,-2.9792,-2.9792,-2.9792,-2.9792,0.0,0.0,0.0,-2.9128,-2.9459,-2.9414,-2.9076,-2.9312,-2.9562,-2.9846,-2.936,-2.9421,-2.9942,-3.0186,-3.0339,-3.044,-3.1311,-3.1726,-3.1782,-3.2303,-3.2493,-3.2555,-3.283,-3.2942,-3.2942,-3.2942,-3.3281,-3.3729,-2.8734,-2.9006,-2.9211,-2.9305,-2.9467,-2.9825,-3.0428,-3.0745,-3.1029,-3.1389,-3.199,-3.2383,-3.2383,-3.2492,-3.2514,-3.2394,-3.2044,-3.176,-3.1629,-3.1763,-3.1523,-3.0875,-3.0996,-3.0738,-2.9953,-2.9104,-2.8643,-2.8517,-2.7644,-2.719,-2.719,-2.719,-2.719,-2.719,-2.719,-2.719,-2.719,-2.6974,-2.7229,-2.7789,-2.8072,-2.844,0.0,0.0,-2.8757,-2.871,-2.871,-2.871,-2.871,-2.8757,-2.8803,-2.8803,-2.8803,-2.9117,-2.9485,-2.9485,-2.9852,-3.0135,-2.978,-2.9596,-2.932,-2.8563,-2.8172,-2.7957,0.0,0.0,0.0,0.0,0.0,0.0,0.0,0.0,-2.863,-2.9013,-2.9378,-2.9663,-2.9792,-2.9792,-2.9792,-2.9792,0.0,0.0,-2.9792,-2.9792,-2.9792,-2.9792,-2.9792,0.0,0.0,0.0,0.0,-2.9681,-2.9654,-2.9777,-3.0117,-3.0013,-3.0112,-3.038,-3.0066,-3.0102,-3.0419,-3.0497,-3.083,-3.1356,-3.1603,-3.1916,-3.2325,-3.2661,-3.2779,-3.283,-3.3081,-3.3331,-3.3481,-3.3481,-3.3729,-3.4026,-2.9121,-2.9467,-2.986,-3.0067,-3.01,-3.0286,-3.081,-3.1072,-3.1313,-3.1586,-3.2066,-3.2383,-3.2383,-3.2558,-3.2601,-3.2405,-3.2121,-3.191,-3.1783,-3.2026,-3.1895,-3.1117,-3.1312,-3.1072,-3.0239,-2.9217,-2.87,-2.87,-2.7671,-2.719,-2.719,-2.719,-2.719,-2.719,-2.719,-2.719,-2.7201,-2.713,-2.7254,-2.7543,-2.7667,0.0,0.0,-2.8123,-2.8123,-2.8123,-2.8123,-2.8265,-2.844,-2.844,-2.8298,-2.8169,-2.8271,-2.8577,-2.8892,-2.8981,-2.925,-2.9493,-2.9217,-2.8999,-2.87,-2.8126,-2.7816,-2.7617,-2.751,-2.7708,-2.7962,0.0,0.0,0.0,0.0,0.0,-2.863,-2.9013,-2.9507,-2.9792,-2.9792,-2.9792,-2.9792,-2.9792,-2.9792,0.0,-2.9792,-2.9792,-2.9792,-2.9792,-2.9792,0.0,0.0,0.0,0.0,-2.9889,-3.0261,-3.0507,-3.0651,-3.0683,-3.0723,-3.0781,-3.0731,-3.0756,-3.0775,-3.1244,-3.1661,-3.206,-3.2297,-3.2558,-3.2869,-3.3131,-3.3231,-3.3281,-3.353,-3.3817,-3.4014,-3.4014,-3.4113,-3.4249,-2.9576,-2.9969,-3.0428,-3.0821,-3.0952,-3.0985,0.0,-3.1356,0.0,-3.1618,0.0,-3.2383,-3.2383,-3.2732,-3.2862,-3.2416,-3.2328,-3.2203,-3.1947,-3.2224,-3.2038,-3.1298,-3.1483,-3.1192,-3.0239,-2.9217,-2.87,-2.87,-2.7671,-2.719,-2.719,-2.719,-2.719,-2.719,-2.719,-2.719,-2.7213,-2.72,-2.7245,-2.7292,-2.7239,-2.7261,-2.7315,-2.7315,-2.7315,-2.7315,-2.7315,-2.7544,-2.7903,-2.7903,-2.7665,-2.7403,-2.7646,-2.7854,-2.8105,-2.8345,-2.8551,-2.8689,-2.862,-2.8299,-2.7966,-2.7897,-2.7552,-2.726,-2.7441,-2.7708,-2.7962,-2.8179,-2.8339,-2.851,0.0,0.0,-2.8709,-2.9052,-2.9507,-2.9792,-2.9792,-2.9792,-2.9792,-2.9792,-2.9792,0.0,0.0,0.0,0.0,0.0,0.0,0.0,0.0,0.0,0.0,0.0,-3.0982,0.0,-3.1062,0.0,-3.1229,-3.1029,-3.1318,-3.1368,-3.1228,-3.216,-3.2621,-3.2762,-3.3174,-3.3381,-3.3431,-3.3679,-3.3729,-3.3779,-3.4026,-3.4249,-3.4433,-3.4482,-3.4482,-3.4482,-3.0041,-3.0461,-3.0799,-3.0887,-3.1225,-3.1498,-3.1498,-3.1575,-3.1618,-3.1618,-3.2066,-3.2383,-3.2383,-3.2448,-3.247,-3.2394,-3.2001,-3.1717,-3.168,-3.1762,-3.158,-3.1009,-3.1081,-3.0847,-3.0227,-2.9217,-2.87,-2.87,-2.7671,-2.719,-2.719,-2.719,-2.719,-2.719,-2.719,-2.719,-2.7201,-2.6858,0.0,-2.7269,-2.6887,-2.6933,-2.7315,-2.7315,-2.7315,-2.7315,-2.7315,-2.737,-2.7435,-2.7435,-2.7524,-2.7646,-2.7701,-2.7997,-2.8345,-2.8389,-2.8551,-2.8609,-2.8218,-2.8046,-2.7885,-2.7461,-2.7259,-2.726,-2.7441,-2.7708,-2.7962,-2.8179,-2.8339,-2.851,-2.851,0.0,0.0,0.0,0.0,0.0,0.0,-2.9792,-2.9792,-2.9792,-2.9792,-2.9792,0.0,0.0,0.0,0.0,0.0,0.0,0.0,0.0,0.0,0.0,0.0,0.0,0.0,0.0,0.0,-3.1273,-3.1523,-3.1855,-3.2242,-3.2887,-3.3402,-3.3836,-3.393,-3.3977,-3.3977,-3.4026,-3.4026,-3.4075,-3.4249,-3.4384,-3.4433,-3.4884,-3.5078,-3.5078,-3.0848,-3.1127,-3.1269,-3.1269,-3.1465,0.0,0.0,-3.1618,-3.1618,-3.1618,-3.1837,-3.199,-3.199,-3.199,-3.199,-3.199,-3.176,-3.1571,-3.1431,-3.1589,-3.1427,-3.076,-3.09,-3.0641,-2.986,-2.9091,-2.8574,-2.8322,-2.7587,-2.719,-2.719,-2.719,-2.719,-2.719,-2.719,-2.719,0.0,0.0,0.0,-2.692,-2.6414,-2.6387,-2.6583,-2.6583,-2.6583,-2.6583,-2.6583,-2.6626,-2.6788,-2.703,-2.6996,-2.698,-2.7193,-2.7448,-2.766,-2.7744,-2.787,-2.7885,-2.7656,-2.7598,-2.7529,-2.7247,-2.726,-2.7412,-2.7655,-2.7869,-2.8111,-2.8299,-2.8419,-2.855,-2.8657,-2.8895,0.0,0.0,0.0,0.0,0.0,0.0,-2.9792,-2.9792,-2.9908,-2.9972,-2.9972,0.0,0.0,0.0,0.0,0.0,0.0,0.0,0.0,0.0,0.0,0.0,0.0,0.0,0.0,-3.171,-3.2119,-3.2547,-3.2948,-3.3489,-3.3877,-3.4125,-3.4125,-3.4125,-3.4125,-3.4211,-3.4347,-3.4506,-3.4738,-3.4823,-3.4872,-3.5271,-3.5416,-3.5416,-3.1451,-3.1618,-3.1618,-3.1618,-3.1618,-3.1618,-3.1618,-3.1618,-3.1618,-3.1618,-3.1618,-3.1618,-3.1618,-3.1618,-3.1618,-3.1618,-3.1531,-3.1363,-3.1252,-3.1278,-3.1102,-3.0541,-3.0672,-3.0377,-2.9515,-2.8976,-2.8459,-2.7977,-2.7472,-2.719,0.0,-2.719,0.0,0.0,0.0,0.0,0.0,0.0,-2.6603,-2.6561,-2.6104,-2.5895,-2.5895,-2.5895,-2.5937,-2.5948,-2.5948,-2.6104,-2.6326,-2.6734,-2.6665,-2.6396,-2.6768,-2.6933,-2.6974,-2.7149,-2.719,-2.719,-2.719,-2.7231,-2.726,-2.726,-2.7423,-2.7655,-2.7921,-2.8111,-2.8259,-2.8471,-2.851,-2.8538,-2.8764,-2.8961,0.0,0.0,0.0,0.0,0.0,0.0,-2.9869,-2.9869,-3.0049,-3.0152,-3.0152,0.0,0.0,0.0,0.0,-2.9792,-2.9792,-3.0809,0.0,0.0,0.0,-3.2344,-3.2081,0.0,-3.1893,0.0,-3.2742,-3.3173,-3.3468,-3.4012,-3.4261,-3.4261,-3.4261,-3.4261,-3.4371,-3.4494,-3.4726,-3.4981,-3.5223,-3.5271,-3.532,-3.5572,-3.5668,-3.5668,-3.1516,-3.1618,0.0,0.0,0.0,0.0,-3.1618,-3.1618,-3.1618,-3.1618,-3.1618,-3.1618,-3.1618,-3.1618,-3.1618,-3.1618,-3.1214,-3.0941,-3.0947,-3.0403,-3.0122,-3.0236,-3.01,-2.984,-2.9515,-2.8976,-2.8459,-2.7977,-2.7472,-2.719,0.0,0.0,0.0,0.0,0.0,0.0,0.0,-2.6768,-2.6603,-2.6561,-2.6104,-2.5895,-2.5895,-2.5895,-2.6021,-2.6157,-2.6157,-2.6354,-2.6614,-2.6824,-2.6896,-2.685,-2.6891,-2.7026,-2.719,-2.719,-2.719,-2.719,-2.719,-2.733,-2.7482,-2.7482,-2.7655,-2.7921,-2.8139,-2.8179,-2.8259,-2.8471,-2.851,-2.8538,-2.8764,-2.8961,-2.917,0.0,0.0,0.0,0.0,0.0,-3.0075,-3.0075,-3.0254,-3.0368,-3.0368,-3.0368,0.0,0.0,-3.0011,-2.9792,-2.9792,-3.0809,0.0,-3.1345,0.0,-3.255,-3.2344,-3.2081,0.0,-3.2457,-3.2985,-3.3502,-3.3959,-3.4498,-3.4738,-3.4738,-3.4738,-3.4884,-3.5078,-3.5126,-3.5271,-3.5524,-3.5572,-3.5572,-3.562,-3.586,-3.5968,-3.6003,0.0,0.0,0.0,0.0,0.0,0.0,0.0,-3.1618,-3.152,-3.1225,-3.1444,-3.1618,-3.1618,-3.1356,-3.1181,-3.1181,-3.0756,-3.0362,-3.0067,-2.9958,-2.9806,-2.9566,-2.9454,-2.9238,-2.8838,-2.8485,-2.8023,0.0,0.0,0.0,0.0,0.0,0.0,0.0,0.0,-2.719,-2.719,-2.6891,-2.6768,-2.6768,-2.6437,-2.6313,-2.6313,-2.6313,-2.6354,-2.6437,-2.6437,-2.6603,-2.6753,-2.6488,-2.6631,-2.6933,-2.7026,-2.7149,-2.719,-2.719,-2.719,-2.719,-2.719,-2.733,-2.7522,-2.7522,-2.7777,-2.8111,-2.8179,-2.8299,-2.8379,-2.8471,-2.8618,-2.8724,-2.8922,-2.9157,-2.9353,0.0,0.0,0.0,0.0,0.0,0.0,-3.0254,-3.0457,-3.0571,-3.0571,0.0,0.0,0.0,0.0,-3.0124,-3.0452,-3.1065,0.0,-3.1876,0.0,-3.268,-3.2593,-3.2344,-3.2653,-3.3418,-3.3441,-3.3893,-3.4715,-3.4933,-3.5126,-3.5271,-3.5271,-3.532,-3.5416,-3.5416,-3.5512,-3.562,-3.5764,-3.5812,-3.586,-3.6146,-3.6228,-3.6275,-3.1094,0.0,-3.1309,0.0,-3.1302,-3.1203,-3.1203,-3.1203,-3.1083,-3.0734,-3.0996,-3.1203,-3.1203,-3.0898,-3.069,-3.069,-3.0264,-2.9849,-2.95,-2.9558,-2.941,-2.9093,-2.897,0.0,-2.84,-2.806,-2.7641,-2.719,-2.719,0.0,0.0,0.0,0.0,0.0,-2.719,-2.719,-2.719,-2.6974,-2.6891,-2.6891,-2.6685,-2.6603,-2.6603,-2.6603,-2.6644,-2.6685,-2.6685,-2.6719,-2.6741,-2.6365,-2.6348,-2.6582,-2.6703,-2.6743,-2.6743,-2.6743,-2.6743,-2.6783,-2.6823,-2.7012,-2.7149,-2.7228,-2.7636,-2.8032,-2.8032,-2.8271,-2.851,-2.8578,-2.8685,-2.8882,-2.9118,-2.9314,-2.947,-2.9753,0.0,0.0,0.0,-3.0203,0.0,-3.0457,-3.066,-3.0811,-3.0811,-3.0811,0.0,0.0,0.0,0.0,0.0,0.0,0.0,0.0,0.0,0.0,0.0,-3.255,-3.2899,-3.3764,-3.3741,-3.4198,-3.5088,-3.5246,-3.5416,-3.562,-3.562,-3.562,-3.5716,-3.5716,-3.5764,-3.5847,-3.6051,-3.6098,-3.6146,-3.6323,-3.6452,-3.6499,-3.0979,-3.0842,-3.0619,-3.0858,-3.0537,-3.0231,-3.0231,-3.0231,-3.022,-3.022,-3.022,-3.0231,-3.0231,-3.022,-3.022,-3.022,-2.9773,-2.9489,-2.9489,-2.9077,-2.8907,0.0,0.0,-2.84,-2.84,-2.7878,-2.7451,-2.719,0.0,0.0,-2.719,0.0,-2.719,-2.719,-2.719,-2.719,-2.719,-2.6974,-2.6891,-2.6891,-2.6685,-2.6603,-2.6603,-2.6603,-2.6727,-2.6891,-2.6891,-2.6736,-2.6513,-2.6513,-2.614,-2.5688,-2.5739,-2.5739,-2.5739,-2.5739,-2.5739,-2.5777,-2.597,-2.615,-2.6356,-2.6557,-2.7153,-2.769,-2.769,-2.8138,-2.8538,-2.8764,-2.8791,-2.891,-2.9341,-2.9419,-2.947,-2.9753,0.0,0.0,0.0,0.0,0.0,-3.0698,-3.0874,-3.0986,-3.0986,-3.0986,0.0,0.0,0.0,0.0,0.0,0.0,0.0,-3.219,-3.2767,0.0,-3.2711,-3.2711,-3.2865,-3.3224,-3.3752,-3.4293,-3.4834,-3.5375,-3.562,-3.562,-3.562,-3.5764,-3.6015,-3.6015,-3.6146,-3.6405,-3.6405,-3.6405,-3.6405,-3.6405,-3.6534,-3.6709,-2.9666,-2.9871,-3.0072,-3.0121,-3.0199,-3.0209,-3.0209,-3.0209,-3.0089,-2.9762,-2.9718,-2.9587,-2.9259,-2.9521,-2.9718,0.0,-2.927,-2.9033,0.0,-2.8891,-2.8661,-2.8379,-2.8087,-2.7766,-2.7396,-2.72,-2.7092,-2.6985,0.0,0.0,0.0,-2.6703,-2.6531,-2.6198,-2.6198,-2.6198,-2.6158,-2.6119,-2.6068,-2.6102,-2.6405,-2.6542,-2.6542,-2.6542,-2.6582,-2.6577,-2.6194,-2.6044,-2.5899,-2.5532,-2.5302,-2.5107,-2.4786,-2.5153,-2.5716,-2.5716,-2.5716,-2.5754,-2.5958,-2.6165,-2.6344,-2.6534,-2.6866,-2.715,-2.715,-2.7558,-2.8008,-2.8217,-2.8665,-2.9079,-2.9341,-2.956,-2.9702,-2.9792,-2.9972,0.0,0.0,0.0,-3.0736,-3.0874,-3.0949,-3.0986,0.0,-3.0986,0.0,0.0,0.0,0.0,0.0,0.0,0.0,0.0,-3.3212,0.0,-3.2982,-3.2982,-3.3214,-3.3689,-3.3672,-3.4152,-3.5056,-3.5241,-3.5643,-3.6133,-3.6133,-3.6181,-3.6275,-3.6275,-3.6323,-3.6405,-3.6534,-3.6581,-3.6628,-3.6828,-3.6922,-3.6968,-2.8953,-2.9105,-2.9283,-2.9488,-2.9542,-2.9578,-2.9663,-2.9663,-2.9554,-2.9296,-2.9263,-2.9142,-2.8836,-2.9077,0.0,-2.9263,-2.8978,-2.8803,-2.8803,-2.8628,-2.8353,-2.8012,-2.7557,-2.7183,-2.6895,0.0,0.0,-2.6891,-2.6914,-2.6783,-2.6501,-2.6306,-2.6014,-2.5716,-2.5716,-2.5716,-2.5716,-2.5716,-2.5716,-2.5739,-2.606,-2.6175,-2.6175,-2.6175,-2.6175,-2.614,-2.583,-2.5578,-2.536,-2.5027,-2.4786,-2.459,-2.4292,-2.4625,-2.5142,-2.5142,-2.5179,-2.5304,-2.5492,-2.5704,-2.5904,-2.6052,-2.6355,-2.6633,-2.6849,-2.7226,-2.7617,-2.8041,-2.8539,-2.9028,-2.9484,-2.9702,-2.983,-2.9895,-3.0075,-3.0267,-3.0482,0.0,0.0,0.0,0.0,0.0,0.0,-3.1182,0.0,0.0,0.0,0.0,0.0,0.0,0.0,-3.3501,-3.3513,0.0,-3.3197,-3.3197,-3.333,-3.3596,-3.362,-3.415,-3.5023,-3.5023,-3.5415,-3.6056,-3.6184,-3.6344,-3.6546,-3.664,-3.664,-3.6687,-3.6815,-3.6862,-3.6862,-3.7062,-3.7155,-3.7261,-2.8767,-2.8516,0.0,0.0,-2.8649,0.0,-2.871,-2.8757,-2.8757,-2.8803,-2.8771,-2.8749,-2.8749,-2.8716,-2.8705,-2.8705,0.0,0.0,0.0,-2.8254,-2.7925,-2.7903,-2.7053,0.0,-2.6839,-2.642,-2.6396,-2.6891,-2.6594,-2.645,-2.6404,-2.5888,-2.5647,-2.5612,-2.5612,-2.5612,-2.5612,-2.5612,-2.5612,-2.5612,-2.5647,-2.5658,-2.5658,-2.5658,-2.5658,-2.5658,-2.5624,-2.5291,-2.4866,-2.4866,-2.4568,-2.42,-2.42,-2.42,-2.42,-2.42,-2.4345,-2.4526,-2.4765,-2.4957,-2.5111,-2.5276,-2.5685,-2.6178,-2.6669,-2.6989,-2.7333,-2.8035,-2.8385,-2.8799,-2.959,-2.9729,-2.9819,-3.0075,-3.0254,-3.0482,-3.066,0.0,0.0,0.0,0.0,0.0,0.0,-3.1509,-3.1823,0.0,0.0,0.0,0.0,0.0,-3.3408,-3.37,-3.3725,-3.3641,-3.3441,-3.3441,-3.3313,-3.3167,-3.3639,-3.418,-3.4708,-3.4708,-3.5009,-3.5491,-3.5742,-3.6184,-3.6705,-3.6951,-3.7083,-3.7108,-3.7108,-3.7108,-3.7108,-3.7155,-3.7307,-3.7505,0.0,0.0,-2.7799,-2.7942,-2.8036,-2.8196,-2.843,-2.8488,-2.8571,-2.8757,-2.8429,-2.8211,-2.8211,-2.7872,-2.7654,-2.7654,-2.7992,-2.8211,-2.8211,-2.7752,-2.7326,-2.6933,-2.6704,-2.6452,-2.6154,-2.617,-2.6354,-2.6685,-2.637,-2.6007,-2.5643,-2.5272,-2.4912,-2.4556,-2.4556,-2.4556,-2.4556,-2.4556,-2.4556,-2.459,-2.4958,-2.5107,-2.5107,-2.5107,-2.5107,-2.505,-2.4682,-2.4464,-2.4372,-2.4372,-2.4292,-2.42,-2.42,-2.42,-2.42,-2.42,-2.4345,-2.4526,-2.4765,-2.4957,-2.5111,-2.5276,-2.5408,-2.5528,-2.5661,-2.6154,-2.6664,-2.6993,-2.757,-2.8226,-2.895,-2.9101,-2.9315,-3.0012,-3.0254,-3.0482,-3.066,-3.0874,0.0,0.0,-3.0986,-3.0986,-3.0986,-3.1509,-3.198,0.0,0.0,0.0,0.0,0.0,-3.41,-3.4021,-3.3992,-3.3894,-3.3641,-3.3641,-3.3598,-3.3556,-3.3696,-3.4066,-3.4627,-3.4627,-3.4933,-3.5411,-3.55,-3.5865,-3.6422,-3.6468,-3.6724,-3.7108,-3.7307,-3.7413,-3.7413,-3.7657,-3.7749,-3.7808,-2.7309,-2.7404,-2.7489,-2.7584,-2.7557,-2.7643,-2.7864,-2.775,-2.7667,-2.7839,-2.7657,-2.7529,-2.7529,-2.7379,-2.7315,-2.7315,-2.7511,-2.7664,-2.7664,-2.7216,-2.6889,-2.6595,-2.6377,-2.6168,-2.5906,-2.6032,-2.6077,-2.6103,-2.579,-2.5413,-2.4928,-2.4596,-2.4294,-2.408,-2.4164,-2.42,-2.42,-2.42,-2.42,-2.4212,-2.4487,-2.4579,-2.4579,-2.4579,-2.4579,-2.4556,-2.4292,-2.42,-2.42,-2.42,-2.42,-2.42,-2.42,-2.42,-2.42,-2.42,-2.4345,-2.4526,-2.4765,-2.4957,-2.5111,-2.5276,-2.5312,-2.5312,-2.5312,-2.5754,-2.6259,-2.6624,-2.7172,-2.7838,-2.875,-2.8888,-2.9189,-3.0088,-3.033,-3.0482,-3.0798,-3.0911,0.0,-3.0986,-3.0986,-3.1091,-3.1352,-3.1901,-3.2463,-3.3064,0.0,0.0,-3.4384,-3.4397,-3.4356,-3.4243,-3.4243,-3.4105,-3.3894,-3.3755,-3.3713,-3.3713,-3.3713,-3.3879,-3.42,-3.42,-3.4507,-3.5058,-3.5133,-3.5499,-3.6084,-3.6148,-3.636,-3.6645,-3.6793,-3.6838,-3.6884,-3.7032,-3.709,-3.709,-2.7206,-2.7195,-2.7232,-2.7348,-2.706,-2.689,-2.7144,-2.6881,-2.6647,-2.6692,-2.6784,-2.6853,-2.6853,-2.6921,-2.6965,-2.6965,-2.6965,-2.7042,-2.7206,-2.6726,-2.6475,-2.6475,-2.6125,-2.5895,-2.5895,-2.5895,-2.5738,-2.5459,-2.516,-2.4786,-2.4321,-2.4013,-2.3861,-2.3861,-2.4043,-2.4127,-2.4152,-2.4152,-2.4164,-2.42,-2.42,-2.42,-2.42,-2.42,-2.42,-2.42,-2.42,-2.42,-2.42,-2.42,-2.42,-2.42,-2.42,-2.42,-2.42,-2.42,-2.4309,-2.4502,-2.4754,-2.4957,-2.5147,-2.5276,-2.5312,-2.5312,-2.5312,-2.5606,-2.6033,-2.65,-2.6907,-2.7469,-2.8499,-2.8712,-2.9101,-3.0113,-3.0342,-3.0558,-3.0949,0.0,-3.0986,-3.0986,-3.0986,-3.1209,-3.1745,-3.2359,-3.2947,-3.3548,-3.4097,0.0,0.0,-3.4397,-3.4397,-3.4397,-3.4397,-3.4314,-3.416,-3.3937,-3.3797,-3.3797,-3.3797,-3.3797,-3.3797,-3.3797,-3.408,-3.4598,-3.4757,-3.518,-3.5737,-3.5918,-3.6031,-3.6109,-3.6109,-3.6109,-3.6109,-3.6109,-3.6109,-3.6109,-2.6672,-2.6718,-2.6594,-2.6246,-2.6131,-2.617,-2.6406,-2.6399,-2.6446,-2.6692,-2.6319,-2.6052,-2.6052,-2.5744,-2.5541,-2.5541,-2.5541,-2.5851,-2.666,-2.6278,-2.6016,-2.6016,-2.5939,-2.5895,-2.5895,-2.5895,-2.5708,-2.5256,-2.4911,-2.4531,-2.4066,-2.3791,-2.3641,-2.3641,-2.3677,-2.3787,-2.3934,-2.3934,-2.4043,-2.42,-2.42,-2.42,-2.42,-2.42,-2.42,-2.42,-2.42,-2.42,-2.42,-2.42,-2.42,-2.42,-2.42,-2.42,-2.42,-2.42,-2.4236,-2.4345,-2.4682,-2.5016,-2.5276,-2.5276,-2.5312,-2.5312,-2.5312,-2.5606,-2.5935,-2.6021,-2.6348,-2.6813,-2.7419,-2.7921,-2.8521,-2.95,-3.0061,-3.0558,-3.0949,0.0,-3.0986,-3.0986,-3.0986,-3.1209,-3.1745,-3.2359,-3.2947,-3.3548,-3.4097,-3.4397,-3.4397,-3.4397,-3.4397,-3.4397,-3.4397,-3.4397,-3.4356,-3.4314,-3.4314,-3.4314,-3.4314,-3.4314,-3.4314,-3.4314,-3.4324,-3.4415,-3.4444,-3.4826,-3.5387,-3.543,-3.5691,-3.6109,-3.6109,-3.6109,-3.6109,-3.6109,-3.6109,-3.6109,-2.5997,-2.6043,-2.6017,-2.5916,-2.5689,-2.5578,-2.5677,-2.5503,-2.539,-2.5488,-2.5409,-2.5358,-2.5358,-2.5243,-2.52,-2.52,-2.52,-2.5381,-2.5819,-2.5773,-2.578,-2.5895,-2.5895,-2.5895,-2.5895,-2.5895,-2.5546,-2.4803,-2.4693,-2.4188,-2.3442,-2.3446,-2.3446,-2.3446,-2.3556,-2.3641,-2.3751,-2.3861,-2.397,-2.4043,-2.4164,-2.42,-2.42,-2.42,-2.42,-2.42,-2.42,-2.42,-2.42,-2.42,-2.42,-2.42,-2.42,-2.42,-2.42,-2.42,-2.4273,-2.4418,-2.4718,-2.4992,-2.5218,-2.5276,-2.5312,-2.5312,-2.5312,-2.5535,-2.5758,-2.5875,-2.6119,-2.6536,-2.718,-2.7733,-2.8359,-2.9198,-2.9959,0.0,0.0,-3.0911,-3.0986,-3.0986,-3.0986,-3.1326,-3.2215,-3.2542,-3.3064,-3.3953,-3.4254,-3.4397,-3.4397,-3.4397,-3.4397,-3.4397,-3.4397,-3.4397,-3.4397,-3.4397,-3.4397,-3.4397,-3.4397,-3.4397,-3.4397,-3.4397,-3.4397,-3.4397,-3.4397,-3.4554,-3.4816,-3.4816,-3.4959,-3.5182,-3.5182,-3.5182,-3.5182,-3.5182,-3.5182,-3.5182,-2.531,-2.5411,-2.546,-2.5506,-2.5251,-2.5024,-2.5024,-2.4724,-2.4497,-2.4497,-2.4658,-2.4828,-2.4828,-2.4946,-2.5031,-2.5031,-2.5031,-2.5073,-2.5115,-2.5338,-2.5517,-2.5728,-2.5812,-2.5853,-2.5895,-2.5895,-2.5437,-2.4486,-2.4486,-2.3984,-2.3001,-2.315,-2.3224,-2.3224,-2.3372,-2.3494,-2.3519,-2.3677,-2.3787,-2.3861,-2.4043,-2.4127,-2.4152,-2.4189,-2.42,-2.42,-2.42,-2.42,-2.42,-2.42,-2.42,-2.42,-2.42,-2.42,-2.42,-2.42,-2.4309,-2.449,-2.4718,-2.4957,-2.5111,-2.5276,-2.5312,-2.5312,-2.5312,-2.5465,-2.5641,-2.5875,-2.6062,-2.6445,-2.7145,-2.7733,-2.8346,-2.9074,0.0,0.0,0.0,-3.0798,-3.0911,-3.0911,-3.0986,-3.1378,-3.2398,-3.262,-3.3117,-3.4136,-3.4332,-3.4397,-3.4397,-3.4397,-3.4397,-3.4397,-3.4397,-3.4397,-3.4397,-3.4397,-3.4397,-3.4397,-3.4397,-3.4397,-3.4397,-3.4397,-3.4397,-3.4397,-3.4397,-3.4397,-3.4397,-3.4397,-3.4397,-3.4397,-3.4397,-3.4397,-3.4397,-3.4397,-3.4397,-3.4397,-2.4565,-2.4798,-2.4798,-2.4413,-2.444,-2.4549,-2.4549,-2.4518,-2.4497,-2.4497,-2.4497,-2.454,-2.454,-2.454,-2.454,-2.454,-2.454,-2.4658,-2.4903,-2.4946,-2.5031,-2.5242,-2.5464,-2.5696,-2.5895,-2.5895,-2.5437,-2.4486,-2.4486,-2.3984,-2.3001,-2.3001,-2.3001,-2.3038,-2.3038,-2.315,-2.3335,-2.3335,-2.3446,-2.3629,-2.3824,-2.3934,-2.3934,-2.4127,-2.42,-2.42,-2.42,-2.42,-2.42,-2.42,-2.42,-2.42,-2.42,-2.42,-2.42,-2.42,-2.42,-2.4309,-2.4682,-2.4957,-2.5111,-2.5276,-2.5312,-2.5312,-2.5312,-2.5465,-2.5641,-2.5875,-2.6062,-2.6445,-2.7145,-2.7733,-2.8346,-2.9074,0.0,0.0,-3.0406,-3.0609,-3.0736,-3.0736,-3.0874,-3.1222,-3.181,-3.2385,-3.296,-3.36,-3.411,-3.4397,-3.4397,-3.4397,-3.4397,-3.4397,-3.4397,-3.4397,-3.4397,-3.4397,-3.4397,-3.4397,-3.4397,-3.4397,-3.4397,-3.4397,-3.4397,-3.4397,-3.4397,-3.4397,-3.4397,-3.4397,-3.4397,-3.4397,-3.4397,-3.4397,-3.4397,-3.4397,-3.4397,-3.4397,-2.3839,-2.3971,-2.4008,-2.3967,-2.4013,-2.4057,-2.4057,-2.4196,-2.4325,-2.4325,-2.4411,-2.4497,-2.4497,-2.4497,-2.4497,-2.4497,-2.4497,-2.454,-2.4658,-2.4658,-2.4828,-2.52,-2.5285,-2.538,-2.5464,-2.5644,-2.5361,-2.4689,-2.4578,-2.4137,-2.3449,-2.3143,-2.3001,-2.3001,-2.3001,-2.3038,-2.3113,-2.3261,-2.3335,-2.3446,-2.3641,-2.3703,-2.3751,-2.3934,-2.4007,-2.4043,-2.4164,-2.42,-2.42,-2.42,-2.42,-2.42,-2.42,-2.42,-2.42,-2.42,-2.42,-2.4273,-2.4526,-2.4754,-2.4957,-2.5111,-2.5241,-2.5312,-2.5312,-2.5347,-2.5465,-2.5676,-2.5875,-2.6258,-2.6991,-2.7648,-2.8285,-2.89,0.0,-3.0113,-3.019,-3.0381,-3.052,-3.052,-3.0685,-3.1019,-3.1565,-3.1915,-3.2568,-3.3522,-3.3783,-3.4045,-3.4384,-3.4397,-3.4397,-3.4397,-3.4397,-3.4397,-3.4397,-3.4397,-3.4397,-3.4397,-3.4397,-3.4397,-3.4397,-3.4397,-3.4397,-3.4397,-3.4397,-3.4397,-3.4397,-3.4397,-3.4397,-3.4397,-3.4397,-3.4397,-3.4397,-3.4397,-3.4397,-3.4397,-2.3319,-2.346,-2.3547,-2.3667,-2.3754,-2.3797,-2.3797,-2.398,-2.4067,-2.4067,-2.4196,-2.4282,-2.4282,-2.4282,-2.4282,-2.4282,-2.4368,-2.4411,-2.4411,-2.4454,-2.4658,-2.5073,-2.5115,-2.5158,-2.52,-2.538,-2.5228,-2.4703,-2.4646,-2.4248,-2.3607,-2.3346,-2.3143,-2.3001,-2.3001,-2.3001,-2.3001,-2.315,-2.3224,-2.3224,-2.3409,-2.3519,-2.353,-2.3751,-2.3824,-2.3824,-2.397,-2.4007,-2.4007,-2.4007,-2.4007,-2.4007,-2.4007,-2.4043,-2.4116,-2.4189,-2.42,-2.4236,-2.4381,-2.4562,-2.479,-2.5016,-2.5182,-2.5241,-2.5276,-2.5312,-2.5347,-2.5571,-2.5845,-2.6316,-2.7097,-2.7789,-2.8462,-2.9063,-2.9643,-3.0011,-3.0011,-3.019,-3.0292,-3.0292,-3.0495,-3.0764,-3.1216,-3.1539,-3.2098,-3.2986,-3.3208,-3.3548,-3.411,-3.4306,-3.4397,-3.4397,-3.4397,-3.4397,-3.4397,-3.4397,-3.4397,-3.4397,-3.4397,-3.4397,-3.4397,-3.4397,-3.4397,-3.4397,-3.4397,-3.4397,-3.4397,-3.4397,-3.4397,-3.4397,-3.4397,-3.4397,-3.4397,-3.4397,-3.4397,-3.4397,-2.3091,-2.3319,-2.3503,-2.3503,-2.3667,-2.3797,-2.3797,-2.3797,-2.3797,-2.3797,-2.3797,-2.3797,-2.3797,-2.3797,-2.3797,-2.3797,-2.4024,-2.4206,-2.4206,-2.4378,-2.4615,-2.4861,-2.4903,-2.4988,-2.52,-2.52,-2.4987,-2.4499,-2.4703,-2.4301,-2.3397,-2.3628,-2.3433,-2.3001,-2.3001,-2.3001,-2.3001,-2.3001,-2.3001,-2.3001,-2.3224,-2.3298,-2.3335,-2.3519,-2.3593,-2.3593,-2.3593,-2.3593,-2.3593,-2.3593,-2.3593,-2.3593,-2.3593,-2.3751,-2.3934,-2.4152,-2.42,-2.42,-2.42,-2.4345,-2.4598,-2.5016,-2.5123,-2.5111,-2.5276,-2.5312,-2.5347,-2.5571,-2.6031,-2.6675,-2.7618,-2.8238,-2.8874,-2.9653,-2.9792,-2.9792,-2.9792,-2.9972,-3.0113,-3.0113,-3.0292,-3.0482,-3.066,-3.1177,-3.1578,-3.1797,-3.2372,-3.2947,-3.3561,-3.4097,-3.4397,-3.4397,-3.4397,-3.4397,-3.4397,-3.4397,-3.4397,-3.4397,-3.4397,-3.4397,-3.4397,-3.4397,-3.4397,-3.4397,-3.4397,-3.4397,-3.4397,-3.4397,-3.4397,-3.4397,-3.4397,-3.4397,-3.4397,-3.4397,-3.4397,-3.4397,-2.2882,-2.3057,-2.3232,-2.3232,-2.3276,-2.3309,-2.3309,-2.345,-2.359,-2.359,-2.3711,-2.3797,-2.3797,-2.3797,-2.3797,-2.3797,-2.3884,-2.3927,-2.3927,-2.4153,-2.4325,-2.4411,-2.4529,-2.4658,-2.47,-2.4903,-2.4925,-2.4788,-2.4637,-2.4463,-2.4185,-2.3884,-2.3595,-2.3286,-2.3286,-2.3167,-2.3001,-2.3001,-2.3001,-2.3001,-2.3075,-2.3075,-2.3113,-2.3298,-2.3372,-2.3409,-2.3556,-2.3593,-2.3593,-2.3593,-2.3593,-2.3593,-2.3593,-2.3751,-2.3897,-2.397,-2.408,-2.42,-2.42,-2.4236,-2.4345,-2.4598,-2.4873,-2.5111,-2.5147,-2.5241,-2.5312,-2.5382,-2.5924,-2.6603,-2.725,-2.8051,-2.8785,-2.9422,-2.9702,-2.9792,-2.9792,-2.9869,-2.9908,-2.9908,-3.0075,-3.0228,-3.0267,-3.056,-3.0971,-3.1552,-3.228,-3.2947,-3.3561,-3.3744,-3.4005,-3.4384,-3.4397,-3.4397,-3.4397,-3.4397,-3.4397,-3.4397,-3.4397,-3.4397,-3.4397,-3.4397,-3.4397,-3.4397,-3.4397,-3.4397,-3.4397,-3.4397,-3.4397,-3.4397,-3.4397,-3.4397,-3.4397,-3.4397,-3.4397,-3.4397,-2.2618,-2.275,-2.2828,-2.2828,-2.2916,-2.2969,-2.2969,-2.3188,-2.3319,-2.3319,-2.345,-2.3537,-2.3537,-2.3537,-2.3537,-2.3537,-2.3624,-2.3711,-2.3797,-2.3927,-2.4067,-2.4206,-2.4335,-2.4411,-2.4497,-2.4658,-2.4743,-2.4743,-2.4682,-2.4545,-2.4365,-2.4161,-2.3889,-2.3538,-2.3462,-2.3302,-2.3161,-2.3051,-2.3001,-2.3001,-2.3001,-2.3001,-2.3001,-2.315,-2.3187,-2.3187,-2.3335,-2.3372,-2.3372,-2.3372,-2.3372,-2.3372,-2.3457,-2.3556,-2.3677,-2.3751,-2.3934,-2.408,-2.408,-2.4152,-2.4236,-2.4345,-2.4634,-2.4909,-2.5052,-2.5147,-2.5301,-2.5576,-2.613,-2.6784,-2.738,-2.8144,-2.8841,-2.933,-2.956,-2.9702,-2.9792,-2.9792,-2.9792,-2.9792,-2.9895,-3.0011,-3.0075,-3.0228,-3.0548,-3.1151,-3.1824,-3.2424,-3.2881,-3.3339,-3.3744,-3.4071,-3.4293,-3.4397,-3.4397,-3.4397,-3.4397,-3.4397,-3.4397,-3.4397,-3.4397,-3.4397,-3.4397,-3.4397,-3.4397,-3.4397,-3.4397,-3.4397,-3.4397,-3.4397,-3.4397,-3.4397,-3.4397,-3.4397,-3.4397,-3.4397,-2.2353,-2.2397,-2.2397,-2.2397,-2.2618,-2.2759,-2.2759,-2.2925,-2.3057,-2.3057,-2.3057,-2.3057,-2.3057,-2.3101,-2.3091,-2.3091,-2.3319,-2.3547,-2.3711,-2.3754,-2.3884,-2.412,-2.4153,-2.4249,-2.4454,-2.4497,-2.4497,-2.4497,-2.4743,-2.4661,-2.4221,-2.4428,-2.4257,-2.383,-2.3592,-2.3423,-2.3354,-2.3139,-2.3008,-2.2964,-2.3001,-2.3001,-2.3001,-2.3001,-2.3001,-2.3001,-2.3001,-2.3001,-2.3001,-2.3001,-2.3001,-2.3038,-2.3224,-2.3298,-2.3335,-2.3519,-2.3751,-2.3897,-2.3897,-2.4043,-2.42,-2.42,-2.4345,-2.4562,-2.4981,-2.5123,-2.535,-2.5961,-2.6574,-2.7189,-2.7839,-2.8439,-2.891,-2.9302,-2.938,-2.947,-2.974,-2.9792,-2.9792,-2.9792,-2.9792,-2.9869,-3.0049,-3.0075,-3.0228,-3.0622,-3.1112,-3.1539,-3.1759,-3.2815,-3.3456,-3.3509,-3.4045,-3.4332,-3.4332,-3.4371,-3.4397,-3.4397,-3.4397,-3.4397,-3.4397,-3.4397,-3.4397,-3.4397,-3.4397,-3.4397,-3.4397,-3.4397,-3.4397,-3.4397,-3.4397,-3.4397,-3.4397,-3.4397,-3.4397,-3.4397,-2.2185,-2.2309,-2.2397,-2.2397,-2.2441,-2.2485,-2.2485,-2.252,-2.2564,-2.2564,-2.275,-2.2891,-2.2891,-2.3013,-2.3091,-2.3091,-2.3135,-2.3232,-2.3232,-2.345,-2.359,-2.3634,-2.3797,-2.4024,-2.4249,-2.4411,-2.4497,-2.4497,-2.454,-2.4531,-2.4437,-2.448,-2.4367,-2.4094,-2.407,-2.3697,-2.3182,-2.3268,-2.3086,-2.2777,-2.2927,-2.3001,-2.3001,-2.3001,-2.3001,-2.3001,-2.3001,-2.3001,-2.3001,-2.3001,-2.3001,-2.3001,-2.3038,-2.3187,-2.3298,-2.3335,-2.3641,-2.3897,-2.3897,-2.4043,-2.42,-2.42,-2.4236,-2.4381,-2.479,-2.5276,-2.573,-2.6045,-2.6875,-2.7584,-2.7731,-2.8321,-2.8843,-2.891,-2.9184,-2.9419,-2.947,-2.9663,-2.9792,-2.9792,-2.9792,-2.983,-2.9869,-3.0011,-3.0152,-3.0228,-3.0611,-3.1099,-3.1552,-3.1954,-3.2424,-3.2868,-3.3456,-3.377,-3.377,-3.4188,-3.4397,-3.4397,-3.4397,-3.4397,-3.4397,-3.4397,-3.4397,-3.4397,-3.4397,-3.4397,-3.4397,-3.4397,-3.4397,-3.4397,-3.4397,-3.4397,-3.4397,-3.4397,-3.4397,-3.4397,-2.1919,-2.1998,-2.2087,-2.2087,-2.2176,-2.2274,-2.2274,-2.2353,-2.2397,-2.2397,-2.253,-2.2618,-2.2618,-2.2838,-2.3013,-2.3101,-2.3091,-2.3091,-2.3091,-2.3232,-2.3373,-2.3503,-2.358,-2.3754,-2.398,-2.4239,-2.4411,-2.4497,-2.4497,-2.4497,-2.4497,-2.4497,-2.4458,-2.4346,-2.4221,-2.3978,-2.3604,-2.3346,-2.312,-2.2874,-2.2875,-2.2852,-2.2852,-2.2964,-2.3001,-2.3001,-2.3001,-2.3001,-2.3001,-2.3001,-2.3001,-2.3001,-2.3001,-2.3075,-2.315,-2.315,-2.3372,-2.3641,-2.3751,-2.3897,-2.408,-2.4164,-2.42,-2.4273,-2.461,-2.5189,-2.5846,-2.6257,-2.7064,-2.7762,-2.8014,-2.8397,-2.8685,-2.8803,-2.8988,-2.9184,-2.938,-2.9509,-2.965,-2.9792,-2.9792,-2.9792,-2.9792,-2.9895,-3.0011,-3.0075,-3.0267,-3.0624,-3.1099,-3.1448,-3.185,-3.228,-3.2855,-3.3156,-3.3156,-3.3731,-3.4018,-3.4018,-3.428,-3.4397,-3.4397,-3.4397,-3.4397,-3.4397,-3.4397,-3.4397,-3.4397,-3.4397,-3.4397,-3.4397,-3.4397,-3.4397,-3.4397,-3.4397,-3.4397,-3.4397,-2.1651,-2.1651,-2.1651,-2.1687,-2.1874,-2.2052,-2.2052,-2.2176,-2.2264,-2.2264,-2.2309,-2.2353,-2.2353,-2.2618,-2.2891,-2.3047,-2.3091,-2.3091,-2.3091,-2.3091,-2.3188,-2.3416,-2.3406,-2.3537,-2.3754,-2.398,-2.4196,-2.4454,-2.4497,-2.4497,-2.4497,-2.4497,-2.4497,-2.4487,-2.4325,-2.419,-2.4116,-2.353,-2.3186,-2.3044,-2.2831,-2.2703,-2.2665,-2.2815,-2.2889,-2.2889,-2.2927,-2.2964,-2.3001,-2.3001,-2.3001,-2.3001,-2.3001,-2.3001,-2.3001,-2.3001,-2.315,-2.3335,-2.3567,-2.3751,-2.3934,-2.4152,-2.42,-2.4248,-2.4522,-2.5172,-2.5887,-2.6489,-2.7263,-2.7993,-2.8426,-2.851,-2.855,-2.8724,-2.8803,-2.891,-2.9263,-2.9341,-2.947,-2.9702,-2.9792,-2.9792,-2.9792,-2.9792,-2.9869,-3.0049,-3.0075,-3.0241,-3.0584,-3.1035,-3.141,-3.1577,-3.2124,-3.2423,-3.2423,-3.3062,-3.3401,-3.3506,-3.4003,-3.4264,-3.4397,-3.4397,-3.4397,-3.4397,-3.4397,-3.4397,-3.4397,-3.4397,-3.4397,-3.4397,-3.4397,-3.4397,-3.4397,-3.4397,-3.4397,-3.4397,-2.1392,-2.1437,-2.1482,-2.1651,-2.1741,-2.1731,-2.1731,-2.1785,-2.1776,-2.1776,-2.2008,-2.2141,-2.2141,-2.2539,-2.2794,-2.2838,-2.3013,-2.3091,-2.3091,-2.3091,-2.3135,-2.3135,-2.3135,-2.3276,-2.3547,-2.359,-2.3807,-2.4249,-2.4411,-2.4497,-2.4497,-2.4497,-2.4497,-2.4497,-2.4478,-2.4282,-2.395,-2.4032,-2.3589,-2.2832,-2.3002,-2.2802,-2.244,-2.2478,-2.2478,-2.2515,-2.2665,-2.2852,-2.3001,-2.3001,-2.3001,-2.3001,-2.3001,-2.3001,-2.3001,-2.3001,-2.315,-2.3335,-2.3567,-2.3751,-2.3934,-2.4152,-2.42,-2.4303,-2.4765,-2.555,-2.6299,-2.656,-2.7562,-2.8426,-2.8498,-2.851,-2.851,-2.855,-2.8685,-2.8831,-2.887,-2.9184,-2.9419,-2.947,-2.965,-2.9792,-2.9792,-2.9792,-2.9792,-2.983,-3.0011,-3.0113,-3.019,-3.0394,-3.056,-3.0598,-3.11,-3.1395,-3.1395,-3.2,-3.2527,-3.3003,-3.3299,-3.3762,-3.4397,-3.4397,-3.4397,-3.4397,-3.4397,-3.4397,-3.4397,-3.4397,-3.4397,-3.4397,-3.4397,-3.4397,-3.4397,-3.4397,-3.4397,-3.4397,-2.1141,-2.1195,-2.1195,-2.1275,-2.1419,-2.1517,-2.1517,-2.1607,-2.1696,-2.1696,-2.1785,-2.1874,-2.1874,-2.2185,-2.2495,-2.2803,-2.2882,-2.2969,-2.3091,-2.3091,-2.3091,-2.3091,-2.3091,-2.3144,-2.3276,-2.3416,-2.359,-2.3807,-2.4153,-2.4325,-2.4325,-2.4464,-2.4497,-2.4497,-2.4497,-2.4394,-2.4229,-2.4106,-2.3804,-2.3387,-2.3053,-2.2794,-2.2622,-2.2471,-2.2402,-2.2402,-2.2515,-2.259,-2.2665,-2.2777,-2.2815,-2.2852,-2.2964,-2.3001,-2.3001,-2.3001,-2.3075,-2.3187,-2.3519,-2.3677,-2.3824,-2.4116,-2.42,-2.4326,-2.4809,-2.5541,-2.6262,-2.6786,-2.7644,-2.8391,-2.8471,-2.851,-2.851,-2.851,-2.8578,-2.8657,-2.8803,-2.8949,-2.9145,-2.938,-2.965,-2.9792,-2.9792,-2.9792,-2.9792,-2.9792,-2.9869,-2.9972,-3.0075,-3.019,-3.0292,-3.0406,-3.065,-3.0727,-3.0727,-3.1291,-3.1701,-3.1957,-3.2708,-3.3478,-3.4243,-3.4356,-3.4397,-3.4397,-3.4397,-3.4397,-3.4397,-3.4397,-3.4397,-3.4397,-3.4397,-3.4397,-3.4397,-3.4397,-3.4397,-3.4397]}]]